<?xml version="1.0" encoding="UTF-8" standalone="no" ?>
<gpx xmlns="http://www.topografix.com/GPX/1/1" xmlns:xsi="http://www.w3.org/2001/XMLSchema-instance" xsi:schemaLocation="http://www.topografix.com/GPX/1/1 http://www.topografix.com/GPX/1/1/gpx.xsd" version="1.1" creator="VisuGPX - https://www.visugpx.com">
  <metadata>
    <name>Baume Cornillane La Raye 23122020</name>
    <desc><![CDATA[Réalisé le 23122020 Attention sur les crêtes, calcaires très glissants et précipice proche! Un peu avant la grotte une descente de 100m très boueuse. Avantage de l'hiver, la cascade près de la grotte de la dame est conséquente..]]></desc>
  </metadata>
  <trk>
    <name><![CDATA[2020-12-23 09:04:28]]></name>
    <extensions>
      <line xmlns="http://www.topografix.com/GPX/gpx_style/0/2">
        <color>0000FF</color>
        <opacity>0.59</opacity>
        <width>6</width>
      </line>
    </extensions>
    <trkseg>
      <trkpt lat="44.8232" lon="5.03957">
        <ele>325.1</ele>
      </trkpt>
      <trkpt lat="44.82309" lon="5.03962">
        <ele>325.7</ele>
      </trkpt>
      <trkpt lat="44.82322" lon="5.04">
        <ele>328</ele>
      </trkpt>
      <trkpt lat="44.82334" lon="5.04031">
        <ele>331.3</ele>
      </trkpt>
      <trkpt lat="44.82341" lon="5.04056">
        <ele>333.5</ele>
      </trkpt>
      <trkpt lat="44.82355" lon="5.04098">
        <ele>338.8</ele>
      </trkpt>
      <trkpt lat="44.82359" lon="5.04113">
        <ele>341.9</ele>
      </trkpt>
      <trkpt lat="44.82364" lon="5.04132">
        <ele>345.8</ele>
      </trkpt>
      <trkpt lat="44.82365" lon="5.04162">
        <ele>352.1</ele>
      </trkpt>
      <trkpt lat="44.82369" lon="5.04174">
        <ele>354.7</ele>
      </trkpt>
      <trkpt lat="44.82358" lon="5.04197">
        <ele>361</ele>
      </trkpt>
      <trkpt lat="44.8238" lon="5.04254">
        <ele>372.6</ele>
      </trkpt>
      <trkpt lat="44.82413" lon="5.04256">
        <ele>369.5</ele>
      </trkpt>
      <trkpt lat="44.82421" lon="5.04284">
        <ele>374.2</ele>
      </trkpt>
      <trkpt lat="44.82406" lon="5.04306">
        <ele>379.5</ele>
      </trkpt>
      <trkpt lat="44.82394" lon="5.04325">
        <ele>383.6</ele>
      </trkpt>
      <trkpt lat="44.82377" lon="5.04346">
        <ele>385.2</ele>
      </trkpt>
      <trkpt lat="44.82366" lon="5.04356">
        <ele>384.9</ele>
      </trkpt>
      <trkpt lat="44.82353" lon="5.04356">
        <ele>385.2</ele>
      </trkpt>
      <trkpt lat="44.82347" lon="5.04364">
        <ele>384.5</ele>
      </trkpt>
      <trkpt lat="44.8234" lon="5.04381">
        <ele>402.68</ele>
        <time>2020-12-23T08:19:15.336Z</time>
      </trkpt>
      <trkpt lat="44.82349" lon="5.04385">
        <ele>403.67</ele>
        <time>2020-12-23T08:19:24.391Z</time>
      </trkpt>
      <trkpt lat="44.82357" lon="5.04387">
        <ele>403.33</ele>
        <time>2020-12-23T08:19:33.530Z</time>
      </trkpt>
      <trkpt lat="44.82369" lon="5.04382">
        <ele>403.56</ele>
        <time>2020-12-23T08:19:43.650Z</time>
      </trkpt>
      <trkpt lat="44.82379" lon="5.04379">
        <ele>403.38</ele>
        <time>2020-12-23T08:19:52.730Z</time>
      </trkpt>
      <trkpt lat="44.82387" lon="5.04375">
        <ele>402.91</ele>
        <time>2020-12-23T08:20:02.529Z</time>
      </trkpt>
      <trkpt lat="44.82396" lon="5.04372">
        <ele>402.53</ele>
        <time>2020-12-23T08:20:12.569Z</time>
      </trkpt>
      <trkpt lat="44.82406" lon="5.04369">
        <ele>402.22</ele>
        <time>2020-12-23T08:20:22.630Z</time>
      </trkpt>
      <trkpt lat="44.82415" lon="5.04368">
        <ele>402.1</ele>
        <time>2020-12-23T08:20:31.770Z</time>
      </trkpt>
      <trkpt lat="44.82427" lon="5.04365">
        <ele>401.84</ele>
        <time>2020-12-23T08:20:41.109Z</time>
      </trkpt>
      <trkpt lat="44.82438" lon="5.04356">
        <ele>401.4</ele>
        <time>2020-12-23T08:20:50.529Z</time>
      </trkpt>
      <trkpt lat="44.8245" lon="5.04356">
        <ele>401.53</ele>
        <time>2020-12-23T08:21:00.530Z</time>
      </trkpt>
      <trkpt lat="44.82461" lon="5.0436">
        <ele>401.08</ele>
        <time>2020-12-23T08:21:10.349Z</time>
      </trkpt>
      <trkpt lat="44.82467" lon="5.04375">
        <ele>402.07</ele>
        <time>2020-12-23T08:21:19.449Z</time>
      </trkpt>
      <trkpt lat="44.82478" lon="5.04382">
        <ele>403.16</ele>
        <time>2020-12-23T08:21:28.571Z</time>
      </trkpt>
      <trkpt lat="44.82488" lon="5.04384">
        <ele>403.25</ele>
        <time>2020-12-23T08:21:37.611Z</time>
      </trkpt>
      <trkpt lat="44.82494" lon="5.04388">
        <ele>403.51</ele>
        <time>2020-12-23T08:21:47.151Z</time>
      </trkpt>
      <trkpt lat="44.82502" lon="5.04395">
        <ele>403.19</ele>
        <time>2020-12-23T08:21:56.594Z</time>
      </trkpt>
      <trkpt lat="44.8251" lon="5.04401">
        <ele>402.68</ele>
        <time>2020-12-23T08:22:06.093Z</time>
      </trkpt>
      <trkpt lat="44.82518" lon="5.04408">
        <ele>401.83</ele>
        <time>2020-12-23T08:22:15.572Z</time>
      </trkpt>
      <trkpt lat="44.82525" lon="5.04417">
        <ele>401.15</ele>
        <time>2020-12-23T08:22:24.653Z</time>
      </trkpt>
      <trkpt lat="44.82533" lon="5.04428">
        <ele>399.97</ele>
        <time>2020-12-23T08:22:33.792Z</time>
      </trkpt>
      <trkpt lat="44.82539" lon="5.0444">
        <ele>399.04</ele>
        <time>2020-12-23T08:22:43.218Z</time>
      </trkpt>
      <trkpt lat="44.82545" lon="5.04456">
        <ele>398.67</ele>
        <time>2020-12-23T08:22:52.553Z</time>
      </trkpt>
      <trkpt lat="44.82546" lon="5.04473">
        <ele>398.78</ele>
        <time>2020-12-23T08:23:01.973Z</time>
      </trkpt>
      <trkpt lat="44.82547" lon="5.0449">
        <ele>398.89</ele>
        <time>2020-12-23T08:23:11.353Z</time>
      </trkpt>
      <trkpt lat="44.82548" lon="5.04507">
        <ele>399.12</ele>
        <time>2020-12-23T08:23:20.775Z</time>
      </trkpt>
      <trkpt lat="44.82546" lon="5.04524">
        <ele>399.95</ele>
        <time>2020-12-23T08:23:30.693Z</time>
      </trkpt>
      <trkpt lat="44.82544" lon="5.04539">
        <ele>400.77</ele>
        <time>2020-12-23T08:23:39.753Z</time>
      </trkpt>
      <trkpt lat="44.82543" lon="5.04554">
        <ele>402.31</ele>
        <time>2020-12-23T08:23:49.034Z</time>
      </trkpt>
      <trkpt lat="44.82546" lon="5.04568">
        <ele>403.7</ele>
        <time>2020-12-23T08:23:58.214Z</time>
      </trkpt>
      <trkpt lat="44.82554" lon="5.04577">
        <ele>405.36</ele>
        <time>2020-12-23T08:24:07.494Z</time>
      </trkpt>
      <trkpt lat="44.82566" lon="5.04579">
        <ele>406.87</ele>
        <time>2020-12-23T08:24:17.638Z</time>
      </trkpt>
      <trkpt lat="44.82575" lon="5.04584">
        <ele>408.28</ele>
        <time>2020-12-23T08:24:27.347Z</time>
      </trkpt>
      <trkpt lat="44.82584" lon="5.0459">
        <ele>409.56</ele>
        <time>2020-12-23T08:24:36.418Z</time>
      </trkpt>
      <trkpt lat="44.82592" lon="5.04599">
        <ele>409.74</ele>
        <time>2020-12-23T08:24:46.437Z</time>
      </trkpt>
      <trkpt lat="44.826" lon="5.0461">
        <ele>408.83</ele>
        <time>2020-12-23T08:24:55.717Z</time>
      </trkpt>
      <trkpt lat="44.82608" lon="5.04621">
        <ele>408.15</ele>
        <time>2020-12-23T08:25:05.038Z</time>
      </trkpt>
      <trkpt lat="44.82617" lon="5.04633">
        <ele>407.61</ele>
        <time>2020-12-23T08:25:14.437Z</time>
      </trkpt>
      <trkpt lat="44.82624" lon="5.04645">
        <ele>406.63</ele>
        <time>2020-12-23T08:25:23.677Z</time>
      </trkpt>
      <trkpt lat="44.8263" lon="5.04657">
        <ele>405.25</ele>
        <time>2020-12-23T08:25:32.918Z</time>
      </trkpt>
      <trkpt lat="44.82632" lon="5.04674">
        <ele>404.43</ele>
        <time>2020-12-23T08:25:41.997Z</time>
      </trkpt>
      <trkpt lat="44.82633" lon="5.04692">
        <ele>402.8</ele>
        <time>2020-12-23T08:25:51.450Z</time>
      </trkpt>
      <trkpt lat="44.82635" lon="5.04712">
        <ele>401.78</ele>
        <time>2020-12-23T08:26:01.411Z</time>
      </trkpt>
      <trkpt lat="44.82635" lon="5.04729">
        <ele>401.26</ele>
        <time>2020-12-23T08:26:10.492Z</time>
      </trkpt>
      <trkpt lat="44.82635" lon="5.04746">
        <ele>400.38</ele>
        <time>2020-12-23T08:26:19.631Z</time>
      </trkpt>
      <trkpt lat="44.82634" lon="5.04761">
        <ele>399.83</ele>
        <time>2020-12-23T08:26:28.792Z</time>
      </trkpt>
      <trkpt lat="44.82631" lon="5.04776">
        <ele>398.81</ele>
        <time>2020-12-23T08:26:38.052Z</time>
      </trkpt>
      <trkpt lat="44.82629" lon="5.04793">
        <ele>399.58</ele>
        <time>2020-12-23T08:26:47.330Z</time>
      </trkpt>
      <trkpt lat="44.82624" lon="5.04807">
        <ele>399.87</ele>
        <time>2020-12-23T08:26:57.331Z</time>
      </trkpt>
      <trkpt lat="44.82616" lon="5.04821">
        <ele>400.89</ele>
        <time>2020-12-23T08:27:07.414Z</time>
      </trkpt>
      <trkpt lat="44.8261" lon="5.04836">
        <ele>400.83</ele>
        <time>2020-12-23T08:27:16.952Z</time>
      </trkpt>
      <trkpt lat="44.82606" lon="5.04854">
        <ele>401.79</ele>
        <time>2020-12-23T08:27:27.213Z</time>
      </trkpt>
      <trkpt lat="44.82601" lon="5.04869">
        <ele>402.44</ele>
        <time>2020-12-23T08:27:36.657Z</time>
      </trkpt>
      <trkpt lat="44.82598" lon="5.04884">
        <ele>403.7</ele>
        <time>2020-12-23T08:27:46.074Z</time>
      </trkpt>
      <trkpt lat="44.82596" lon="5.04899">
        <ele>405.01</ele>
        <time>2020-12-23T08:27:55.312Z</time>
      </trkpt>
      <trkpt lat="44.82591" lon="5.04911">
        <ele>405.98</ele>
        <time>2020-12-23T08:28:04.833Z</time>
      </trkpt>
      <trkpt lat="44.82587" lon="5.04923">
        <ele>406.92</ele>
        <time>2020-12-23T08:28:14.274Z</time>
      </trkpt>
      <trkpt lat="44.82583" lon="5.04935">
        <ele>408.34</ele>
        <time>2020-12-23T08:28:24.513Z</time>
      </trkpt>
      <trkpt lat="44.82586" lon="5.04948">
        <ele>409.59</ele>
        <time>2020-12-23T08:28:33.735Z</time>
      </trkpt>
      <trkpt lat="44.82585" lon="5.0496">
        <ele>410.62</ele>
        <time>2020-12-23T08:28:43.015Z</time>
      </trkpt>
      <trkpt lat="44.82581" lon="5.04969">
        <ele>411.66</ele>
        <time>2020-12-23T08:28:52.455Z</time>
      </trkpt>
      <trkpt lat="44.82572" lon="5.04979">
        <ele>413.63</ele>
        <time>2020-12-23T08:29:02.658Z</time>
      </trkpt>
      <trkpt lat="44.82566" lon="5.04986">
        <ele>415.5</ele>
        <time>2020-12-23T08:29:11.694Z</time>
      </trkpt>
      <trkpt lat="44.82559" lon="5.04994">
        <ele>417.23</ele>
        <time>2020-12-23T08:29:21.235Z</time>
      </trkpt>
      <trkpt lat="44.82553" lon="5.05003">
        <ele>418.66</ele>
        <time>2020-12-23T08:29:30.337Z</time>
      </trkpt>
      <trkpt lat="44.8255" lon="5.05014">
        <ele>419.7</ele>
        <time>2020-12-23T08:29:39.757Z</time>
      </trkpt>
      <trkpt lat="44.82547" lon="5.05026">
        <ele>421.35</ele>
        <time>2020-12-23T08:29:49.138Z</time>
      </trkpt>
      <trkpt lat="44.82552" lon="5.05037">
        <ele>422.39</ele>
        <time>2020-12-23T08:29:58.695Z</time>
      </trkpt>
      <trkpt lat="44.82559" lon="5.05046">
        <ele>423.76</ele>
        <time>2020-12-23T08:30:07.874Z</time>
      </trkpt>
      <trkpt lat="44.82567" lon="5.05057">
        <ele>424.39</ele>
        <time>2020-12-23T08:30:17.498Z</time>
      </trkpt>
      <trkpt lat="44.82576" lon="5.05067">
        <ele>425.07</ele>
        <time>2020-12-23T08:30:27.558Z</time>
      </trkpt>
      <trkpt lat="44.82587" lon="5.05079">
        <ele>425.12</ele>
        <time>2020-12-23T08:30:37.478Z</time>
      </trkpt>
      <trkpt lat="44.82598" lon="5.05089">
        <ele>425.65</ele>
        <time>2020-12-23T08:30:46.638Z</time>
      </trkpt>
      <trkpt lat="44.82605" lon="5.05101">
        <ele>425.92</ele>
        <time>2020-12-23T08:30:56.377Z</time>
      </trkpt>
      <trkpt lat="44.82611" lon="5.05114">
        <ele>425.13</ele>
        <time>2020-12-23T08:31:05.720Z</time>
      </trkpt>
      <trkpt lat="44.82617" lon="5.05127">
        <ele>425.76</ele>
        <time>2020-12-23T08:31:15.219Z</time>
      </trkpt>
      <trkpt lat="44.82624" lon="5.05146">
        <ele>425.3</ele>
        <time>2020-12-23T08:31:24.598Z</time>
      </trkpt>
      <trkpt lat="44.82631" lon="5.05157">
        <ele>424.8</ele>
        <time>2020-12-23T08:31:34.378Z</time>
      </trkpt>
      <trkpt lat="44.82639" lon="5.05169">
        <ele>425.23</ele>
        <time>2020-12-23T08:31:43.680Z</time>
      </trkpt>
      <trkpt lat="44.82643" lon="5.05186">
        <ele>425.04</ele>
        <time>2020-12-23T08:31:52.980Z</time>
      </trkpt>
      <trkpt lat="44.82643" lon="5.05204">
        <ele>425.25</ele>
        <time>2020-12-23T08:32:02.345Z</time>
      </trkpt>
      <trkpt lat="44.82641" lon="5.0522">
        <ele>426.01</ele>
        <time>2020-12-23T08:32:11.499Z</time>
      </trkpt>
      <trkpt lat="44.82643" lon="5.05235">
        <ele>426.81</ele>
        <time>2020-12-23T08:32:20.548Z</time>
      </trkpt>
      <trkpt lat="44.82648" lon="5.05249">
        <ele>427.33</ele>
        <time>2020-12-23T08:32:30.029Z</time>
      </trkpt>
      <trkpt lat="44.82651" lon="5.05264">
        <ele>427.64</ele>
        <time>2020-12-23T08:32:39.178Z</time>
      </trkpt>
      <trkpt lat="44.82647" lon="5.05278">
        <ele>427.71</ele>
        <time>2020-12-23T08:32:48.440Z</time>
      </trkpt>
      <trkpt lat="44.82641" lon="5.0529">
        <ele>427.72</ele>
        <time>2020-12-23T08:32:57.877Z</time>
      </trkpt>
      <trkpt lat="44.82636" lon="5.05304">
        <ele>428.34</ele>
        <time>2020-12-23T08:33:07.418Z</time>
      </trkpt>
      <trkpt lat="44.82633" lon="5.05319">
        <ele>429.31</ele>
        <time>2020-12-23T08:33:16.480Z</time>
      </trkpt>
      <trkpt lat="44.82627" lon="5.05332">
        <ele>430.67</ele>
        <time>2020-12-23T08:33:25.509Z</time>
      </trkpt>
      <trkpt lat="44.82618" lon="5.05337">
        <ele>431.79</ele>
        <time>2020-12-23T08:33:35.048Z</time>
      </trkpt>
      <trkpt lat="44.8261" lon="5.05343">
        <ele>433.25</ele>
        <time>2020-12-23T08:33:44.270Z</time>
      </trkpt>
      <trkpt lat="44.82603" lon="5.05351">
        <ele>434.8</ele>
        <time>2020-12-23T08:33:53.710Z</time>
      </trkpt>
      <trkpt lat="44.82598" lon="5.05359">
        <ele>436.54</ele>
        <time>2020-12-23T08:34:03.489Z</time>
      </trkpt>
      <trkpt lat="44.82595" lon="5.05369">
        <ele>438.42</ele>
        <time>2020-12-23T08:34:13.769Z</time>
      </trkpt>
      <trkpt lat="44.82593" lon="5.05382">
        <ele>439.75</ele>
        <time>2020-12-23T08:34:23.346Z</time>
      </trkpt>
      <trkpt lat="44.82593" lon="5.05393">
        <ele>441.74</ele>
        <time>2020-12-23T08:34:32.392Z</time>
      </trkpt>
      <trkpt lat="44.82592" lon="5.05402">
        <ele>443.44</ele>
        <time>2020-12-23T08:34:42.113Z</time>
      </trkpt>
      <trkpt lat="44.82593" lon="5.05416">
        <ele>445.13</ele>
        <time>2020-12-23T08:34:52.591Z</time>
      </trkpt>
      <trkpt lat="44.82593" lon="5.05429">
        <ele>446.37</ele>
        <time>2020-12-23T08:35:02.000Z</time>
      </trkpt>
      <trkpt lat="44.82592" lon="5.05426">
        <ele>445.41</ele>
        <time>2020-12-23T08:35:12.000Z</time>
      </trkpt>
      <trkpt lat="44.82593" lon="5.05428">
        <ele>446.76</ele>
        <time>2020-12-23T08:37:37.000Z</time>
      </trkpt>
      <trkpt lat="44.82592" lon="5.0543">
        <ele>446.78</ele>
        <time>2020-12-23T08:38:18.000Z</time>
      </trkpt>
      <trkpt lat="44.82593" lon="5.05433">
        <ele>446.84</ele>
        <time>2020-12-23T08:38:40.000Z</time>
      </trkpt>
      <trkpt lat="44.82593" lon="5.05435">
        <ele>447.08</ele>
        <time>2020-12-23T08:39:02.000Z</time>
      </trkpt>
      <trkpt lat="44.82594" lon="5.05437">
        <ele>447.11</ele>
        <time>2020-12-23T08:39:35.000Z</time>
      </trkpt>
      <trkpt lat="44.82593" lon="5.0544">
        <ele>447.48</ele>
        <time>2020-12-23T08:39:46.000Z</time>
      </trkpt>
      <trkpt lat="44.82594" lon="5.05443">
        <ele>447.69</ele>
        <time>2020-12-23T08:39:56.000Z</time>
      </trkpt>
      <trkpt lat="44.82596" lon="5.05457">
        <ele>448.68</ele>
        <time>2020-12-23T08:40:06.000Z</time>
      </trkpt>
      <trkpt lat="44.82601" lon="5.05472">
        <ele>449.91</ele>
        <time>2020-12-23T08:40:16.000Z</time>
      </trkpt>
      <trkpt lat="44.82608" lon="5.05481">
        <ele>451.17</ele>
        <time>2020-12-23T08:40:26.000Z</time>
      </trkpt>
      <trkpt lat="44.82616" lon="5.05487">
        <ele>452.41</ele>
        <time>2020-12-23T08:40:36.000Z</time>
      </trkpt>
      <trkpt lat="44.82624" lon="5.05494">
        <ele>453.42</ele>
        <time>2020-12-23T08:40:46.000Z</time>
      </trkpt>
      <trkpt lat="44.82629" lon="5.05511">
        <ele>454.01</ele>
        <time>2020-12-23T08:40:55.879Z</time>
      </trkpt>
      <trkpt lat="44.8263" lon="5.05524">
        <ele>454.82</ele>
        <time>2020-12-23T08:41:04.999Z</time>
      </trkpt>
      <trkpt lat="44.82633" lon="5.05542">
        <ele>456.11</ele>
        <time>2020-12-23T08:41:14.999Z</time>
      </trkpt>
      <trkpt lat="44.82636" lon="5.05554">
        <ele>457.65</ele>
        <time>2020-12-23T08:41:24.999Z</time>
      </trkpt>
      <trkpt lat="44.82641" lon="5.05555">
        <ele>459.41</ele>
        <time>2020-12-23T08:41:34.999Z</time>
      </trkpt>
      <trkpt lat="44.82644" lon="5.05558">
        <ele>461.48</ele>
        <time>2020-12-23T08:41:44.999Z</time>
      </trkpt>
      <trkpt lat="44.82652" lon="5.05559">
        <ele>462.61</ele>
        <time>2020-12-23T08:41:54.543Z</time>
      </trkpt>
      <trkpt lat="44.82659" lon="5.05564">
        <ele>464.07</ele>
        <time>2020-12-23T08:42:04.999Z</time>
      </trkpt>
      <trkpt lat="44.82663" lon="5.05573">
        <ele>466.34</ele>
        <time>2020-12-23T08:42:14.983Z</time>
      </trkpt>
      <trkpt lat="44.82666" lon="5.05577">
        <ele>467.92</ele>
        <time>2020-12-23T08:42:23.999Z</time>
      </trkpt>
      <trkpt lat="44.82673" lon="5.05586">
        <ele>469.69</ele>
        <time>2020-12-23T08:42:33.044Z</time>
      </trkpt>
      <trkpt lat="44.82678" lon="5.05597">
        <ele>471.46</ele>
        <time>2020-12-23T08:42:42.763Z</time>
      </trkpt>
      <trkpt lat="44.82683" lon="5.05604">
        <ele>473.42</ele>
        <time>2020-12-23T08:42:52.999Z</time>
      </trkpt>
      <trkpt lat="44.82683" lon="5.05614">
        <ele>475.24</ele>
        <time>2020-12-23T08:43:02.999Z</time>
      </trkpt>
      <trkpt lat="44.82682" lon="5.05626">
        <ele>476.9</ele>
        <time>2020-12-23T08:43:12.735Z</time>
      </trkpt>
      <trkpt lat="44.82683" lon="5.05639">
        <ele>478.24</ele>
        <time>2020-12-23T08:43:22.999Z</time>
      </trkpt>
      <trkpt lat="44.82685" lon="5.05649">
        <ele>479.42</ele>
        <time>2020-12-23T08:43:32.999Z</time>
      </trkpt>
      <trkpt lat="44.82686" lon="5.05663">
        <ele>480.8</ele>
        <time>2020-12-23T08:43:42.999Z</time>
      </trkpt>
      <trkpt lat="44.82687" lon="5.05675">
        <ele>482</ele>
        <time>2020-12-23T08:43:52.756Z</time>
      </trkpt>
      <trkpt lat="44.82688" lon="5.05687">
        <ele>482.86</ele>
        <time>2020-12-23T08:44:01.999Z</time>
      </trkpt>
      <trkpt lat="44.82689" lon="5.057">
        <ele>484.39</ele>
        <time>2020-12-23T08:44:11.999Z</time>
      </trkpt>
      <trkpt lat="44.82689" lon="5.0571">
        <ele>485.53</ele>
        <time>2020-12-23T08:44:21.999Z</time>
      </trkpt>
      <trkpt lat="44.8269" lon="5.05722">
        <ele>486.65</ele>
        <time>2020-12-23T08:44:31.458Z</time>
      </trkpt>
      <trkpt lat="44.82689" lon="5.05731">
        <ele>487.85</ele>
        <time>2020-12-23T08:44:40.538Z</time>
      </trkpt>
      <trkpt lat="44.82688" lon="5.05738">
        <ele>489.18</ele>
        <time>2020-12-23T08:44:49.999Z</time>
      </trkpt>
      <trkpt lat="44.82688" lon="5.0575">
        <ele>490.77</ele>
        <time>2020-12-23T08:44:59.999Z</time>
      </trkpt>
      <trkpt lat="44.82688" lon="5.05755">
        <ele>492.19</ele>
        <time>2020-12-23T08:45:09.999Z</time>
      </trkpt>
      <trkpt lat="44.82688" lon="5.05759">
        <ele>493.72</ele>
        <time>2020-12-23T08:45:19.999Z</time>
      </trkpt>
      <trkpt lat="44.8269" lon="5.05771">
        <ele>495.09</ele>
        <time>2020-12-23T08:45:29.860Z</time>
      </trkpt>
      <trkpt lat="44.8269" lon="5.05789">
        <ele>495.95</ele>
        <time>2020-12-23T08:45:38.999Z</time>
      </trkpt>
      <trkpt lat="44.82691" lon="5.05801">
        <ele>497.67</ele>
        <time>2020-12-23T08:45:48.999Z</time>
      </trkpt>
      <trkpt lat="44.82688" lon="5.05813">
        <ele>499.49</ele>
        <time>2020-12-23T08:45:58.999Z</time>
      </trkpt>
      <trkpt lat="44.82687" lon="5.05824">
        <ele>502.14</ele>
        <time>2020-12-23T08:46:08.999Z</time>
      </trkpt>
      <trkpt lat="44.82687" lon="5.05834">
        <ele>503.97</ele>
        <time>2020-12-23T08:46:18.999Z</time>
      </trkpt>
      <trkpt lat="44.82687" lon="5.05844">
        <ele>505.76</ele>
        <time>2020-12-23T08:46:28.999Z</time>
      </trkpt>
      <trkpt lat="44.82684" lon="5.05851">
        <ele>507.44</ele>
        <time>2020-12-23T08:46:38.999Z</time>
      </trkpt>
      <trkpt lat="44.8268" lon="5.05859">
        <ele>510</ele>
        <time>2020-12-23T08:46:48.999Z</time>
      </trkpt>
      <trkpt lat="44.82678" lon="5.05866">
        <ele>511.99</ele>
        <time>2020-12-23T08:46:58.999Z</time>
      </trkpt>
      <trkpt lat="44.82675" lon="5.05876">
        <ele>513.99</ele>
        <time>2020-12-23T08:47:08.562Z</time>
      </trkpt>
      <trkpt lat="44.82675" lon="5.05885">
        <ele>515.97</ele>
        <time>2020-12-23T08:47:17.999Z</time>
      </trkpt>
      <trkpt lat="44.82674" lon="5.05895">
        <ele>517.71</ele>
        <time>2020-12-23T08:47:27.999Z</time>
      </trkpt>
      <trkpt lat="44.82675" lon="5.05901">
        <ele>519.39</ele>
        <time>2020-12-23T08:47:37.999Z</time>
      </trkpt>
      <trkpt lat="44.82671" lon="5.0591">
        <ele>521.36</ele>
        <time>2020-12-23T08:47:47.999Z</time>
      </trkpt>
      <trkpt lat="44.8267" lon="5.05918">
        <ele>523.07</ele>
        <time>2020-12-23T08:47:57.999Z</time>
      </trkpt>
      <trkpt lat="44.8267" lon="5.05927">
        <ele>524.78</ele>
        <time>2020-12-23T08:48:07.999Z</time>
      </trkpt>
      <trkpt lat="44.82671" lon="5.05938">
        <ele>526.47</ele>
        <time>2020-12-23T08:48:17.661Z</time>
      </trkpt>
      <trkpt lat="44.82675" lon="5.05947">
        <ele>528.07</ele>
        <time>2020-12-23T08:48:26.999Z</time>
      </trkpt>
      <trkpt lat="44.82678" lon="5.05958">
        <ele>529.86</ele>
        <time>2020-12-23T08:48:36.840Z</time>
      </trkpt>
      <trkpt lat="44.82681" lon="5.05964">
        <ele>531.31</ele>
        <time>2020-12-23T08:48:45.999Z</time>
      </trkpt>
      <trkpt lat="44.82684" lon="5.05969">
        <ele>533.14</ele>
        <time>2020-12-23T08:48:55.999Z</time>
      </trkpt>
      <trkpt lat="44.8269" lon="5.05981">
        <ele>535</ele>
        <time>2020-12-23T08:49:05.781Z</time>
      </trkpt>
      <trkpt lat="44.82693" lon="5.05989">
        <ele>536.81</ele>
        <time>2020-12-23T08:49:14.999Z</time>
      </trkpt>
      <trkpt lat="44.82696" lon="5.05999">
        <ele>538.45</ele>
        <time>2020-12-23T08:49:24.180Z</time>
      </trkpt>
      <trkpt lat="44.827" lon="5.06009">
        <ele>539.39</ele>
        <time>2020-12-23T08:49:33.444Z</time>
      </trkpt>
      <trkpt lat="44.82705" lon="5.06018">
        <ele>540.5</ele>
        <time>2020-12-23T08:49:42.761Z</time>
      </trkpt>
      <trkpt lat="44.82707" lon="5.06031">
        <ele>540.99</ele>
        <time>2020-12-23T08:49:51.999Z</time>
      </trkpt>
      <trkpt lat="44.82707" lon="5.06041">
        <ele>541.56</ele>
        <time>2020-12-23T08:50:01.999Z</time>
      </trkpt>
      <trkpt lat="44.82704" lon="5.06059">
        <ele>542.45</ele>
        <time>2020-12-23T08:50:11.999Z</time>
      </trkpt>
      <trkpt lat="44.82701" lon="5.06075">
        <ele>543.42</ele>
        <time>2020-12-23T08:50:21.341Z</time>
      </trkpt>
      <trkpt lat="44.82698" lon="5.06087">
        <ele>544.34</ele>
        <time>2020-12-23T08:50:30.999Z</time>
      </trkpt>
      <trkpt lat="44.82694" lon="5.06096">
        <ele>545.95</ele>
        <time>2020-12-23T08:50:40.999Z</time>
      </trkpt>
      <trkpt lat="44.8269" lon="5.06105">
        <ele>548.22</ele>
        <time>2020-12-23T08:50:50.999Z</time>
      </trkpt>
      <trkpt lat="44.82683" lon="5.06115">
        <ele>549.86</ele>
        <time>2020-12-23T08:51:00.514Z</time>
      </trkpt>
      <trkpt lat="44.82681" lon="5.06129">
        <ele>550.53</ele>
        <time>2020-12-23T08:51:09.626Z</time>
      </trkpt>
      <trkpt lat="44.8268" lon="5.06144">
        <ele>551.42</ele>
        <time>2020-12-23T08:51:19.135Z</time>
      </trkpt>
      <trkpt lat="44.82679" lon="5.06158">
        <ele>552.16</ele>
        <time>2020-12-23T08:51:28.999Z</time>
      </trkpt>
      <trkpt lat="44.82677" lon="5.06174">
        <ele>553.03</ele>
        <time>2020-12-23T08:51:38.999Z</time>
      </trkpt>
      <trkpt lat="44.82677" lon="5.06189">
        <ele>554.13</ele>
        <time>2020-12-23T08:51:48.999Z</time>
      </trkpt>
      <trkpt lat="44.82677" lon="5.06198">
        <ele>555.44</ele>
        <time>2020-12-23T08:51:58.999Z</time>
      </trkpt>
      <trkpt lat="44.82677" lon="5.06206">
        <ele>556.82</ele>
        <time>2020-12-23T08:52:08.835Z</time>
      </trkpt>
      <trkpt lat="44.82674" lon="5.06223">
        <ele>558.21</ele>
        <time>2020-12-23T08:52:17.999Z</time>
      </trkpt>
      <trkpt lat="44.82672" lon="5.06237">
        <ele>560.17</ele>
        <time>2020-12-23T08:52:27.947Z</time>
      </trkpt>
      <trkpt lat="44.82671" lon="5.06246">
        <ele>562.05</ele>
        <time>2020-12-23T08:52:37.015Z</time>
      </trkpt>
      <trkpt lat="44.82666" lon="5.06258">
        <ele>563.54</ele>
        <time>2020-12-23T08:52:46.729Z</time>
      </trkpt>
      <trkpt lat="44.82665" lon="5.06264">
        <ele>565.1</ele>
        <time>2020-12-23T08:52:56.000Z</time>
      </trkpt>
      <trkpt lat="44.82663" lon="5.06272">
        <ele>567.09</ele>
        <time>2020-12-23T08:53:06.000Z</time>
      </trkpt>
      <trkpt lat="44.82662" lon="5.06281">
        <ele>569.03</ele>
        <time>2020-12-23T08:53:15.757Z</time>
      </trkpt>
      <trkpt lat="44.82661" lon="5.06286">
        <ele>570.61</ele>
        <time>2020-12-23T08:53:26.000Z</time>
      </trkpt>
      <trkpt lat="44.82662" lon="5.06295">
        <ele>572.46</ele>
        <time>2020-12-23T08:53:36.000Z</time>
      </trkpt>
      <trkpt lat="44.82663" lon="5.06302">
        <ele>574.64</ele>
        <time>2020-12-23T08:53:46.000Z</time>
      </trkpt>
      <trkpt lat="44.8266" lon="5.06312">
        <ele>576.66</ele>
        <time>2020-12-23T08:53:55.098Z</time>
      </trkpt>
      <trkpt lat="44.82658" lon="5.06322">
        <ele>578.66</ele>
        <time>2020-12-23T08:54:04.160Z</time>
      </trkpt>
      <trkpt lat="44.82655" lon="5.06337">
        <ele>579.81</ele>
        <time>2020-12-23T08:54:13.640Z</time>
      </trkpt>
      <trkpt lat="44.82653" lon="5.06349">
        <ele>580.85</ele>
        <time>2020-12-23T08:54:22.796Z</time>
      </trkpt>
      <trkpt lat="44.8265" lon="5.06357">
        <ele>581.25</ele>
        <time>2020-12-23T08:54:32.000Z</time>
      </trkpt>
      <trkpt lat="44.82649" lon="5.06366">
        <ele>582.75</ele>
        <time>2020-12-23T08:54:41.642Z</time>
      </trkpt>
      <trkpt lat="44.82652" lon="5.06375">
        <ele>584.37</ele>
        <time>2020-12-23T08:54:51.000Z</time>
      </trkpt>
      <trkpt lat="44.82653" lon="5.06385">
        <ele>586.42</ele>
        <time>2020-12-23T08:55:01.000Z</time>
      </trkpt>
      <trkpt lat="44.82652" lon="5.06395">
        <ele>588.19</ele>
        <time>2020-12-23T08:55:11.000Z</time>
      </trkpt>
      <trkpt lat="44.82651" lon="5.06405">
        <ele>589.38</ele>
        <time>2020-12-23T08:55:21.038Z</time>
      </trkpt>
      <trkpt lat="44.8265" lon="5.06413">
        <ele>590.02</ele>
        <time>2020-12-23T08:55:31.000Z</time>
      </trkpt>
      <trkpt lat="44.82652" lon="5.0642">
        <ele>591.17</ele>
        <time>2020-12-23T08:55:40.879Z</time>
      </trkpt>
      <trkpt lat="44.82653" lon="5.06429">
        <ele>592.55</ele>
        <time>2020-12-23T08:55:50.000Z</time>
      </trkpt>
      <trkpt lat="44.82656" lon="5.06441">
        <ele>594.16</ele>
        <time>2020-12-23T08:55:59.617Z</time>
      </trkpt>
      <trkpt lat="44.82656" lon="5.06451">
        <ele>596.16</ele>
        <time>2020-12-23T08:56:10.000Z</time>
      </trkpt>
      <trkpt lat="44.82659" lon="5.06461">
        <ele>598.61</ele>
        <time>2020-12-23T08:56:19.177Z</time>
      </trkpt>
      <trkpt lat="44.82661" lon="5.06472">
        <ele>600.44</ele>
        <time>2020-12-23T08:56:28.730Z</time>
      </trkpt>
      <trkpt lat="44.82661" lon="5.06474">
        <ele>602.27</ele>
        <time>2020-12-23T08:56:39.000Z</time>
      </trkpt>
      <trkpt lat="44.82663" lon="5.06482">
        <ele>603.82</ele>
        <time>2020-12-23T08:56:49.000Z</time>
      </trkpt>
      <trkpt lat="44.82664" lon="5.0649">
        <ele>605.75</ele>
        <time>2020-12-23T08:56:59.000Z</time>
      </trkpt>
      <trkpt lat="44.82664" lon="5.06499">
        <ele>607.77</ele>
        <time>2020-12-23T08:57:09.000Z</time>
      </trkpt>
      <trkpt lat="44.82667" lon="5.06509">
        <ele>609.38</ele>
        <time>2020-12-23T08:57:19.000Z</time>
      </trkpt>
      <trkpt lat="44.82665" lon="5.06517">
        <ele>611.14</ele>
        <time>2020-12-23T08:57:29.000Z</time>
      </trkpt>
      <trkpt lat="44.82663" lon="5.06527">
        <ele>613.28</ele>
        <time>2020-12-23T08:57:39.000Z</time>
      </trkpt>
      <trkpt lat="44.82665" lon="5.06538">
        <ele>615.09</ele>
        <time>2020-12-23T08:57:48.841Z</time>
      </trkpt>
      <trkpt lat="44.82665" lon="5.06543">
        <ele>616.65</ele>
        <time>2020-12-23T08:57:58.000Z</time>
      </trkpt>
      <trkpt lat="44.82667" lon="5.06551">
        <ele>617.86</ele>
        <time>2020-12-23T08:58:08.000Z</time>
      </trkpt>
      <trkpt lat="44.82669" lon="5.06558">
        <ele>619.81</ele>
        <time>2020-12-23T08:58:18.000Z</time>
      </trkpt>
      <trkpt lat="44.82671" lon="5.06568">
        <ele>621.68</ele>
        <time>2020-12-23T08:58:28.000Z</time>
      </trkpt>
      <trkpt lat="44.82671" lon="5.06574">
        <ele>623.3</ele>
        <time>2020-12-23T08:58:38.000Z</time>
      </trkpt>
      <trkpt lat="44.8267" lon="5.06583">
        <ele>625.02</ele>
        <time>2020-12-23T08:58:48.000Z</time>
      </trkpt>
      <trkpt lat="44.8267" lon="5.06587">
        <ele>627.05</ele>
        <time>2020-12-23T08:58:57.923Z</time>
      </trkpt>
      <trkpt lat="44.82671" lon="5.06594">
        <ele>628.81</ele>
        <time>2020-12-23T08:59:07.164Z</time>
      </trkpt>
      <trkpt lat="44.8267" lon="5.06599">
        <ele>630.5</ele>
        <time>2020-12-23T08:59:16.504Z</time>
      </trkpt>
      <trkpt lat="44.8267" lon="5.06605">
        <ele>631.71</ele>
        <time>2020-12-23T08:59:26.000Z</time>
      </trkpt>
      <trkpt lat="44.82665" lon="5.06618">
        <ele>633.42</ele>
        <time>2020-12-23T08:59:36.000Z</time>
      </trkpt>
      <trkpt lat="44.82661" lon="5.06627">
        <ele>635.61</ele>
        <time>2020-12-23T08:59:46.000Z</time>
      </trkpt>
      <trkpt lat="44.82659" lon="5.06636">
        <ele>637.23</ele>
        <time>2020-12-23T08:59:56.000Z</time>
      </trkpt>
      <trkpt lat="44.82661" lon="5.06644">
        <ele>639.32</ele>
        <time>2020-12-23T09:00:07.000Z</time>
      </trkpt>
      <trkpt lat="44.82663" lon="5.06648">
        <ele>640.96</ele>
        <time>2020-12-23T09:00:16.004Z</time>
      </trkpt>
      <trkpt lat="44.82666" lon="5.06655">
        <ele>642.78</ele>
        <time>2020-12-23T09:00:26.000Z</time>
      </trkpt>
      <trkpt lat="44.82671" lon="5.06662">
        <ele>644.81</ele>
        <time>2020-12-23T09:00:35.723Z</time>
      </trkpt>
      <trkpt lat="44.82671" lon="5.06665">
        <ele>646.35</ele>
        <time>2020-12-23T09:00:45.000Z</time>
      </trkpt>
      <trkpt lat="44.82668" lon="5.06671">
        <ele>648.17</ele>
        <time>2020-12-23T09:00:55.000Z</time>
      </trkpt>
      <trkpt lat="44.82665" lon="5.06676">
        <ele>649.62</ele>
        <time>2020-12-23T09:01:04.105Z</time>
      </trkpt>
      <trkpt lat="44.82663" lon="5.0668">
        <ele>651.45</ele>
        <time>2020-12-23T09:01:14.000Z</time>
      </trkpt>
      <trkpt lat="44.8266" lon="5.0669">
        <ele>652.44</ele>
        <time>2020-12-23T09:01:24.000Z</time>
      </trkpt>
      <trkpt lat="44.82657" lon="5.06695">
        <ele>653.6</ele>
        <time>2020-12-23T09:01:34.000Z</time>
      </trkpt>
      <trkpt lat="44.82654" lon="5.06704">
        <ele>655.46</ele>
        <time>2020-12-23T09:01:43.695Z</time>
      </trkpt>
      <trkpt lat="44.82652" lon="5.06714">
        <ele>657.24</ele>
        <time>2020-12-23T09:01:52.837Z</time>
      </trkpt>
      <trkpt lat="44.82649" lon="5.06721">
        <ele>658.92</ele>
        <time>2020-12-23T09:02:02.000Z</time>
      </trkpt>
      <trkpt lat="44.82649" lon="5.06725">
        <ele>660.66</ele>
        <time>2020-12-23T09:02:12.000Z</time>
      </trkpt>
      <trkpt lat="44.82647" lon="5.06732">
        <ele>662.08</ele>
        <time>2020-12-23T09:02:21.729Z</time>
      </trkpt>
      <trkpt lat="44.82645" lon="5.06744">
        <ele>663.67</ele>
        <time>2020-12-23T09:02:31.000Z</time>
      </trkpt>
      <trkpt lat="44.82645" lon="5.06754">
        <ele>665.05</ele>
        <time>2020-12-23T09:02:41.000Z</time>
      </trkpt>
      <trkpt lat="44.82644" lon="5.06765">
        <ele>666.39</ele>
        <time>2020-12-23T09:02:50.718Z</time>
      </trkpt>
      <trkpt lat="44.82644" lon="5.06773">
        <ele>667.44</ele>
        <time>2020-12-23T09:02:59.759Z</time>
      </trkpt>
      <trkpt lat="44.82642" lon="5.06782">
        <ele>668.94</ele>
        <time>2020-12-23T09:03:09.000Z</time>
      </trkpt>
      <trkpt lat="44.82645" lon="5.06783">
        <ele>669.42</ele>
        <time>2020-12-23T09:03:19.000Z</time>
      </trkpt>
      <trkpt lat="44.82645" lon="5.06781">
        <ele>669.41</ele>
        <time>2020-12-23T09:03:30.000Z</time>
      </trkpt>
      <trkpt lat="44.82644" lon="5.06782">
        <ele>669.52</ele>
        <time>2020-12-23T09:04:02.000Z</time>
      </trkpt>
      <trkpt lat="44.82643" lon="5.06787">
        <ele>670.24</ele>
        <time>2020-12-23T09:04:11.721Z</time>
      </trkpt>
      <trkpt lat="44.82642" lon="5.06801">
        <ele>672.1</ele>
        <time>2020-12-23T09:04:20.759Z</time>
      </trkpt>
      <trkpt lat="44.82642" lon="5.06813">
        <ele>674.25</ele>
        <time>2020-12-23T09:04:29.819Z</time>
      </trkpt>
      <trkpt lat="44.82643" lon="5.0682">
        <ele>676.44</ele>
        <time>2020-12-23T09:04:39.139Z</time>
      </trkpt>
      <trkpt lat="44.82647" lon="5.0683">
        <ele>678.57</ele>
        <time>2020-12-23T09:04:48.579Z</time>
      </trkpt>
      <trkpt lat="44.82647" lon="5.06834">
        <ele>679.34</ele>
        <time>2020-12-23T09:04:57.999Z</time>
      </trkpt>
      <trkpt lat="44.82646" lon="5.06835">
        <ele>679.35</ele>
        <time>2020-12-23T09:05:08.999Z</time>
      </trkpt>
      <trkpt lat="44.82649" lon="5.06845">
        <ele>681.9</ele>
        <time>2020-12-23T09:05:18.999Z</time>
      </trkpt>
      <trkpt lat="44.82654" lon="5.06852">
        <ele>683.8</ele>
        <time>2020-12-23T09:05:28.999Z</time>
      </trkpt>
      <trkpt lat="44.82661" lon="5.0686">
        <ele>685.98</ele>
        <time>2020-12-23T09:05:38.999Z</time>
      </trkpt>
      <trkpt lat="44.82665" lon="5.06865">
        <ele>688.63</ele>
        <time>2020-12-23T09:05:48.999Z</time>
      </trkpt>
      <trkpt lat="44.8267" lon="5.06872">
        <ele>690.55</ele>
        <time>2020-12-23T09:05:58.999Z</time>
      </trkpt>
      <trkpt lat="44.82677" lon="5.06881">
        <ele>692.92</ele>
        <time>2020-12-23T09:06:08.999Z</time>
      </trkpt>
      <trkpt lat="44.82683" lon="5.06889">
        <ele>694.83</ele>
        <time>2020-12-23T09:06:18.999Z</time>
      </trkpt>
      <trkpt lat="44.8269" lon="5.06898">
        <ele>696.84</ele>
        <time>2020-12-23T09:06:28.822Z</time>
      </trkpt>
      <trkpt lat="44.82694" lon="5.06902">
        <ele>698.3</ele>
        <time>2020-12-23T09:06:37.999Z</time>
      </trkpt>
      <trkpt lat="44.82699" lon="5.06907">
        <ele>700.1</ele>
        <time>2020-12-23T09:06:47.481Z</time>
      </trkpt>
      <trkpt lat="44.82703" lon="5.06914">
        <ele>701.33</ele>
        <time>2020-12-23T09:06:56.714Z</time>
      </trkpt>
      <trkpt lat="44.82709" lon="5.06921">
        <ele>703.22</ele>
        <time>2020-12-23T09:07:06.999Z</time>
      </trkpt>
      <trkpt lat="44.82716" lon="5.06927">
        <ele>704.71</ele>
        <time>2020-12-23T09:07:16.443Z</time>
      </trkpt>
      <trkpt lat="44.82719" lon="5.06932">
        <ele>706.6</ele>
        <time>2020-12-23T09:07:25.803Z</time>
      </trkpt>
      <trkpt lat="44.82724" lon="5.06937">
        <ele>708.09</ele>
        <time>2020-12-23T09:07:35.999Z</time>
      </trkpt>
      <trkpt lat="44.82729" lon="5.06941">
        <ele>709.57</ele>
        <time>2020-12-23T09:07:45.999Z</time>
      </trkpt>
      <trkpt lat="44.82736" lon="5.06942">
        <ele>711.1</ele>
        <time>2020-12-23T09:07:56.023Z</time>
      </trkpt>
      <trkpt lat="44.82739" lon="5.06944">
        <ele>712.07</ele>
        <time>2020-12-23T09:08:05.999Z</time>
      </trkpt>
      <trkpt lat="44.82744" lon="5.06946">
        <ele>713.73</ele>
        <time>2020-12-23T09:08:15.999Z</time>
      </trkpt>
      <trkpt lat="44.82751" lon="5.06949">
        <ele>715.38</ele>
        <time>2020-12-23T09:08:25.022Z</time>
      </trkpt>
      <trkpt lat="44.82756" lon="5.06953">
        <ele>716.81</ele>
        <time>2020-12-23T09:08:34.999Z</time>
      </trkpt>
      <trkpt lat="44.82764" lon="5.06957">
        <ele>718.26</ele>
        <time>2020-12-23T09:08:44.042Z</time>
      </trkpt>
      <trkpt lat="44.8277" lon="5.0696">
        <ele>719.91</ele>
        <time>2020-12-23T09:08:53.999Z</time>
      </trkpt>
      <trkpt lat="44.82775" lon="5.06965">
        <ele>721.53</ele>
        <time>2020-12-23T09:09:04.043Z</time>
      </trkpt>
      <trkpt lat="44.82776" lon="5.06968">
        <ele>721.59</ele>
        <time>2020-12-23T09:09:13.999Z</time>
      </trkpt>
      <trkpt lat="44.82778" lon="5.0697">
        <ele>722.37</ele>
        <time>2020-12-23T09:09:31.940Z</time>
      </trkpt>
      <trkpt lat="44.82784" lon="5.06971">
        <ele>723.99</ele>
        <time>2020-12-23T09:09:41.999Z</time>
      </trkpt>
      <trkpt lat="44.82789" lon="5.06978">
        <ele>726.29</ele>
        <time>2020-12-23T09:09:51.782Z</time>
      </trkpt>
      <trkpt lat="44.82792" lon="5.06983">
        <ele>728.04</ele>
        <time>2020-12-23T09:10:00.999Z</time>
      </trkpt>
      <trkpt lat="44.828" lon="5.06988">
        <ele>730.08</ele>
        <time>2020-12-23T09:10:10.724Z</time>
      </trkpt>
      <trkpt lat="44.82805" lon="5.0699">
        <ele>731.25</ele>
        <time>2020-12-23T09:10:19.999Z</time>
      </trkpt>
      <trkpt lat="44.82809" lon="5.06993">
        <ele>732.78</ele>
        <time>2020-12-23T09:10:29.843Z</time>
      </trkpt>
      <trkpt lat="44.82814" lon="5.06996">
        <ele>735.03</ele>
        <time>2020-12-23T09:10:39.023Z</time>
      </trkpt>
      <trkpt lat="44.82816" lon="5.06998">
        <ele>736.56</ele>
        <time>2020-12-23T09:10:48.999Z</time>
      </trkpt>
      <trkpt lat="44.82823" lon="5.07002">
        <ele>738.22</ele>
        <time>2020-12-23T09:10:58.003Z</time>
      </trkpt>
      <trkpt lat="44.82828" lon="5.07007">
        <ele>740.03</ele>
        <time>2020-12-23T09:11:08.046Z</time>
      </trkpt>
      <trkpt lat="44.82832" lon="5.0701">
        <ele>741.4</ele>
        <time>2020-12-23T09:11:17.999Z</time>
      </trkpt>
      <trkpt lat="44.82836" lon="5.07014">
        <ele>743.05</ele>
        <time>2020-12-23T09:11:27.999Z</time>
      </trkpt>
      <trkpt lat="44.82841" lon="5.07018">
        <ele>744.79</ele>
        <time>2020-12-23T09:11:37.083Z</time>
      </trkpt>
      <trkpt lat="44.82845" lon="5.07021">
        <ele>746.67</ele>
        <time>2020-12-23T09:11:46.485Z</time>
      </trkpt>
      <trkpt lat="44.82847" lon="5.07023">
        <ele>748.32</ele>
        <time>2020-12-23T09:11:56.999Z</time>
      </trkpt>
      <trkpt lat="44.82849" lon="5.07024">
        <ele>748.65</ele>
        <time>2020-12-23T09:12:06.999Z</time>
      </trkpt>
      <trkpt lat="44.82853" lon="5.07026">
        <ele>749.31</ele>
        <time>2020-12-23T09:12:16.183Z</time>
      </trkpt>
      <trkpt lat="44.82858" lon="5.07033">
        <ele>751.44</ele>
        <time>2020-12-23T09:12:25.863Z</time>
      </trkpt>
      <trkpt lat="44.82863" lon="5.07042">
        <ele>753.06</ele>
        <time>2020-12-23T09:12:34.962Z</time>
      </trkpt>
      <trkpt lat="44.82868" lon="5.07049">
        <ele>755.17</ele>
        <time>2020-12-23T09:12:43.999Z</time>
      </trkpt>
      <trkpt lat="44.82873" lon="5.0706">
        <ele>757.11</ele>
        <time>2020-12-23T09:12:53.999Z</time>
      </trkpt>
      <trkpt lat="44.82876" lon="5.0706">
        <ele>758.96</ele>
        <time>2020-12-23T09:13:03.662Z</time>
      </trkpt>
      <trkpt lat="44.82878" lon="5.07061">
        <ele>760.24</ele>
        <time>2020-12-23T09:13:12.984Z</time>
      </trkpt>
      <trkpt lat="44.82882" lon="5.07066">
        <ele>761.78</ele>
        <time>2020-12-23T09:13:21.999Z</time>
      </trkpt>
      <trkpt lat="44.82887" lon="5.0707">
        <ele>763.93</ele>
        <time>2020-12-23T09:13:31.999Z</time>
      </trkpt>
      <trkpt lat="44.82891" lon="5.07074">
        <ele>765.59</ele>
        <time>2020-12-23T09:13:41.689Z</time>
      </trkpt>
      <trkpt lat="44.82893" lon="5.07076">
        <ele>765.98</ele>
        <time>2020-12-23T09:13:50.999Z</time>
      </trkpt>
      <trkpt lat="44.82891" lon="5.07077">
        <ele>765.83</ele>
        <time>2020-12-23T09:14:03.999Z</time>
      </trkpt>
      <trkpt lat="44.82894" lon="5.07078">
        <ele>766.64</ele>
        <time>2020-12-23T09:14:13.375Z</time>
      </trkpt>
      <trkpt lat="44.82896" lon="5.07079">
        <ele>767.47</ele>
        <time>2020-12-23T09:14:23.999Z</time>
      </trkpt>
      <trkpt lat="44.82902" lon="5.07084">
        <ele>769.64</ele>
        <time>2020-12-23T09:14:33.999Z</time>
      </trkpt>
      <trkpt lat="44.8291" lon="5.07095">
        <ele>772.1</ele>
        <time>2020-12-23T09:14:43.994Z</time>
      </trkpt>
      <trkpt lat="44.82916" lon="5.07096">
        <ele>774.57</ele>
        <time>2020-12-23T09:14:53.774Z</time>
      </trkpt>
      <trkpt lat="44.8292" lon="5.071">
        <ele>776.55</ele>
        <time>2020-12-23T09:15:02.816Z</time>
      </trkpt>
      <trkpt lat="44.82924" lon="5.07105">
        <ele>779.12</ele>
        <time>2020-12-23T09:15:12.595Z</time>
      </trkpt>
      <trkpt lat="44.82926" lon="5.07109">
        <ele>781.15</ele>
        <time>2020-12-23T09:15:21.999Z</time>
      </trkpt>
      <trkpt lat="44.82928" lon="5.07114">
        <ele>783.5</ele>
        <time>2020-12-23T09:15:31.799Z</time>
      </trkpt>
      <trkpt lat="44.82933" lon="5.07121">
        <ele>785.23</ele>
        <time>2020-12-23T09:15:40.999Z</time>
      </trkpt>
      <trkpt lat="44.82946" lon="5.07131">
        <ele>787.52</ele>
        <time>2020-12-23T09:15:50.454Z</time>
      </trkpt>
      <trkpt lat="44.82951" lon="5.07136">
        <ele>789.5</ele>
        <time>2020-12-23T09:15:59.999Z</time>
      </trkpt>
      <trkpt lat="44.82956" lon="5.07139">
        <ele>790.26</ele>
        <time>2020-12-23T09:16:10.000Z</time>
      </trkpt>
      <trkpt lat="44.82964" lon="5.07147">
        <ele>791.85</ele>
        <time>2020-12-23T09:16:20.000Z</time>
      </trkpt>
      <trkpt lat="44.82966" lon="5.07153">
        <ele>793.19</ele>
        <time>2020-12-23T09:16:29.625Z</time>
      </trkpt>
      <trkpt lat="44.82968" lon="5.07157">
        <ele>794.73</ele>
        <time>2020-12-23T09:16:38.635Z</time>
      </trkpt>
      <trkpt lat="44.82979" lon="5.07163">
        <ele>795.98</ele>
        <time>2020-12-23T09:16:49.000Z</time>
      </trkpt>
      <trkpt lat="44.82988" lon="5.0717">
        <ele>796.76</ele>
        <time>2020-12-23T09:16:59.000Z</time>
      </trkpt>
      <trkpt lat="44.83001" lon="5.07175">
        <ele>798.55</ele>
        <time>2020-12-23T09:17:08.618Z</time>
      </trkpt>
      <trkpt lat="44.83009" lon="5.0718">
        <ele>799.75</ele>
        <time>2020-12-23T09:17:18.000Z</time>
      </trkpt>
      <trkpt lat="44.83017" lon="5.07187">
        <ele>801.72</ele>
        <time>2020-12-23T09:17:27.857Z</time>
      </trkpt>
      <trkpt lat="44.83021" lon="5.07193">
        <ele>803.35</ele>
        <time>2020-12-23T09:17:37.000Z</time>
      </trkpt>
      <trkpt lat="44.83015" lon="5.07198">
        <ele>805.83</ele>
        <time>2020-12-23T09:17:46.776Z</time>
      </trkpt>
      <trkpt lat="44.83006" lon="5.07198">
        <ele>806.94</ele>
        <time>2020-12-23T09:17:56.000Z</time>
      </trkpt>
      <trkpt lat="44.83" lon="5.07204">
        <ele>809.25</ele>
        <time>2020-12-23T09:18:06.000Z</time>
      </trkpt>
      <trkpt lat="44.82995" lon="5.07204">
        <ele>811.97</ele>
        <time>2020-12-23T09:18:16.000Z</time>
      </trkpt>
      <trkpt lat="44.82986" lon="5.07202">
        <ele>814.27</ele>
        <time>2020-12-23T09:18:25.538Z</time>
      </trkpt>
      <trkpt lat="44.82985" lon="5.07205">
        <ele>816.25</ele>
        <time>2020-12-23T09:18:34.638Z</time>
      </trkpt>
      <trkpt lat="44.82991" lon="5.07207">
        <ele>817.73</ele>
        <time>2020-12-23T09:18:44.000Z</time>
      </trkpt>
      <trkpt lat="44.82996" lon="5.07211">
        <ele>819.85</ele>
        <time>2020-12-23T09:18:54.000Z</time>
      </trkpt>
      <trkpt lat="44.83005" lon="5.07218">
        <ele>822.8</ele>
        <time>2020-12-23T09:19:03.658Z</time>
      </trkpt>
      <trkpt lat="44.83009" lon="5.07223">
        <ele>824.39</ele>
        <time>2020-12-23T09:19:13.000Z</time>
      </trkpt>
      <trkpt lat="44.83013" lon="5.0723">
        <ele>826.34</ele>
        <time>2020-12-23T09:19:23.000Z</time>
      </trkpt>
      <trkpt lat="44.83019" lon="5.07239">
        <ele>828.89</ele>
        <time>2020-12-23T09:19:32.558Z</time>
      </trkpt>
      <trkpt lat="44.83023" lon="5.07245">
        <ele>830.48</ele>
        <time>2020-12-23T09:19:42.000Z</time>
      </trkpt>
      <trkpt lat="44.83031" lon="5.07246">
        <ele>833.21</ele>
        <time>2020-12-23T09:19:52.000Z</time>
      </trkpt>
      <trkpt lat="44.83039" lon="5.07251">
        <ele>835.06</ele>
        <time>2020-12-23T09:20:02.000Z</time>
      </trkpt>
      <trkpt lat="44.83036" lon="5.07254">
        <ele>837.52</ele>
        <time>2020-12-23T09:20:11.898Z</time>
      </trkpt>
      <trkpt lat="44.8303" lon="5.0726">
        <ele>839.85</ele>
        <time>2020-12-23T09:20:22.000Z</time>
      </trkpt>
      <trkpt lat="44.83034" lon="5.07264">
        <ele>841.28</ele>
        <time>2020-12-23T09:20:32.000Z</time>
      </trkpt>
      <trkpt lat="44.83046" lon="5.07264">
        <ele>842.33</ele>
        <time>2020-12-23T09:20:41.876Z</time>
      </trkpt>
      <trkpt lat="44.83052" lon="5.07265">
        <ele>843.9</ele>
        <time>2020-12-23T09:20:51.000Z</time>
      </trkpt>
      <trkpt lat="44.83059" lon="5.0727">
        <ele>846.19</ele>
        <time>2020-12-23T09:21:00.796Z</time>
      </trkpt>
      <trkpt lat="44.83063" lon="5.07274">
        <ele>847.72</ele>
        <time>2020-12-23T09:21:09.818Z</time>
      </trkpt>
      <trkpt lat="44.83069" lon="5.07282">
        <ele>849.78</ele>
        <time>2020-12-23T09:21:20.000Z</time>
      </trkpt>
      <trkpt lat="44.83078" lon="5.07292">
        <ele>851.97</ele>
        <time>2020-12-23T09:21:29.816Z</time>
      </trkpt>
      <trkpt lat="44.83084" lon="5.07293">
        <ele>853.12</ele>
        <time>2020-12-23T09:21:39.000Z</time>
      </trkpt>
      <trkpt lat="44.83094" lon="5.07297">
        <ele>854.05</ele>
        <time>2020-12-23T09:21:49.000Z</time>
      </trkpt>
      <trkpt lat="44.83104" lon="5.07305">
        <ele>855.76</ele>
        <time>2020-12-23T09:21:59.000Z</time>
      </trkpt>
      <trkpt lat="44.83112" lon="5.07309">
        <ele>857.38</ele>
        <time>2020-12-23T09:22:09.000Z</time>
      </trkpt>
      <trkpt lat="44.83118" lon="5.07312">
        <ele>859.97</ele>
        <time>2020-12-23T09:22:18.394Z</time>
      </trkpt>
      <trkpt lat="44.83126" lon="5.07317">
        <ele>861.47</ele>
        <time>2020-12-23T09:22:28.000Z</time>
      </trkpt>
      <trkpt lat="44.83133" lon="5.07318">
        <ele>863.83</ele>
        <time>2020-12-23T09:22:37.656Z</time>
      </trkpt>
      <trkpt lat="44.83142" lon="5.07322">
        <ele>864.86</ele>
        <time>2020-12-23T09:22:47.000Z</time>
      </trkpt>
      <trkpt lat="44.83151" lon="5.07328">
        <ele>868.08</ele>
        <time>2020-12-23T09:22:57.000Z</time>
      </trkpt>
      <trkpt lat="44.83157" lon="5.07335">
        <ele>870.03</ele>
        <time>2020-12-23T09:23:07.000Z</time>
      </trkpt>
      <trkpt lat="44.83162" lon="5.0734">
        <ele>873.15</ele>
        <time>2020-12-23T09:23:16.844Z</time>
      </trkpt>
      <trkpt lat="44.83166" lon="5.07347">
        <ele>873.93</ele>
        <time>2020-12-23T09:23:26.000Z</time>
      </trkpt>
      <trkpt lat="44.83164" lon="5.07347">
        <ele>873.31</ele>
        <time>2020-12-23T09:23:40.000Z</time>
      </trkpt>
      <trkpt lat="44.83162" lon="5.07347">
        <ele>873.92</ele>
        <time>2020-12-23T09:25:17.000Z</time>
      </trkpt>
      <trkpt lat="44.8316" lon="5.07348">
        <ele>874.14</ele>
        <time>2020-12-23T09:25:37.000Z</time>
      </trkpt>
      <trkpt lat="44.83162" lon="5.07349">
        <ele>873.68</ele>
        <time>2020-12-23T09:28:03.999Z</time>
      </trkpt>
      <trkpt lat="44.83163" lon="5.07351">
        <ele>874.25</ele>
        <time>2020-12-23T09:28:16.999Z</time>
      </trkpt>
      <trkpt lat="44.83164" lon="5.07353">
        <ele>874.35</ele>
        <time>2020-12-23T09:28:33.999Z</time>
      </trkpt>
      <trkpt lat="44.83163" lon="5.07352">
        <ele>873.59</ele>
        <time>2020-12-23T09:29:03.003Z</time>
      </trkpt>
      <trkpt lat="44.8316" lon="5.07351">
        <ele>874.18</ele>
        <time>2020-12-23T09:29:12.763Z</time>
      </trkpt>
      <trkpt lat="44.83149" lon="5.07349">
        <ele>874.19</ele>
        <time>2020-12-23T09:29:21.924Z</time>
      </trkpt>
      <trkpt lat="44.83142" lon="5.07349">
        <ele>875.25</ele>
        <time>2020-12-23T09:29:31.999Z</time>
      </trkpt>
      <trkpt lat="44.83139" lon="5.0735">
        <ele>875.94</ele>
        <time>2020-12-23T09:30:01.884Z</time>
      </trkpt>
      <trkpt lat="44.83135" lon="5.07348">
        <ele>876.49</ele>
        <time>2020-12-23T09:30:10.999Z</time>
      </trkpt>
      <trkpt lat="44.83131" lon="5.07349">
        <ele>876.59</ele>
        <time>2020-12-23T09:30:20.743Z</time>
      </trkpt>
      <trkpt lat="44.83123" lon="5.07349">
        <ele>878.23</ele>
        <time>2020-12-23T09:30:29.999Z</time>
      </trkpt>
      <trkpt lat="44.83121" lon="5.07348">
        <ele>878.62</ele>
        <time>2020-12-23T09:30:39.999Z</time>
      </trkpt>
      <trkpt lat="44.83119" lon="5.07346">
        <ele>878.85</ele>
        <time>2020-12-23T09:30:53.999Z</time>
      </trkpt>
      <trkpt lat="44.83114" lon="5.0735">
        <ele>880.11</ele>
        <time>2020-12-23T09:31:03.999Z</time>
      </trkpt>
      <trkpt lat="44.83111" lon="5.07351">
        <ele>881.16</ele>
        <time>2020-12-23T09:31:15.688Z</time>
      </trkpt>
      <trkpt lat="44.831" lon="5.07353">
        <ele>882.93</ele>
        <time>2020-12-23T09:31:24.999Z</time>
      </trkpt>
      <trkpt lat="44.83086" lon="5.07361">
        <ele>884.97</ele>
        <time>2020-12-23T09:31:34.999Z</time>
      </trkpt>
      <trkpt lat="44.83075" lon="5.07364">
        <ele>887.7</ele>
        <time>2020-12-23T09:31:44.657Z</time>
      </trkpt>
      <trkpt lat="44.8307" lon="5.07366">
        <ele>889.17</ele>
        <time>2020-12-23T09:31:53.999Z</time>
      </trkpt>
      <trkpt lat="44.83062" lon="5.07369">
        <ele>892.1</ele>
        <time>2020-12-23T09:32:03.999Z</time>
      </trkpt>
      <trkpt lat="44.83056" lon="5.07369">
        <ele>893.6</ele>
        <time>2020-12-23T09:32:13.999Z</time>
      </trkpt>
      <trkpt lat="44.83048" lon="5.07373">
        <ele>896.15</ele>
        <time>2020-12-23T09:32:23.999Z</time>
      </trkpt>
      <trkpt lat="44.8304" lon="5.07371">
        <ele>898.15</ele>
        <time>2020-12-23T09:32:33.156Z</time>
      </trkpt>
      <trkpt lat="44.83032" lon="5.07368">
        <ele>900.01</ele>
        <time>2020-12-23T09:32:42.726Z</time>
      </trkpt>
      <trkpt lat="44.83025" lon="5.07368">
        <ele>901.86</ele>
        <time>2020-12-23T09:32:51.999Z</time>
      </trkpt>
      <trkpt lat="44.83017" lon="5.07373">
        <ele>903.9</ele>
        <time>2020-12-23T09:33:01.999Z</time>
      </trkpt>
      <trkpt lat="44.83014" lon="5.07372">
        <ele>905.2</ele>
        <time>2020-12-23T09:33:11.877Z</time>
      </trkpt>
      <trkpt lat="44.83009" lon="5.07371">
        <ele>906.62</ele>
        <time>2020-12-23T09:33:20.999Z</time>
      </trkpt>
      <trkpt lat="44.83003" lon="5.07376">
        <ele>909.02</ele>
        <time>2020-12-23T09:33:30.999Z</time>
      </trkpt>
      <trkpt lat="44.82997" lon="5.07379">
        <ele>911.18</ele>
        <time>2020-12-23T09:33:40.999Z</time>
      </trkpt>
      <trkpt lat="44.82994" lon="5.07377">
        <ele>912.04</ele>
        <time>2020-12-23T09:33:50.999Z</time>
      </trkpt>
      <trkpt lat="44.82988" lon="5.07376">
        <ele>913.26</ele>
        <time>2020-12-23T09:34:00.797Z</time>
      </trkpt>
      <trkpt lat="44.82983" lon="5.07377">
        <ele>915.19</ele>
        <time>2020-12-23T09:34:09.999Z</time>
      </trkpt>
      <trkpt lat="44.82978" lon="5.07377">
        <ele>917</ele>
        <time>2020-12-23T09:34:19.882Z</time>
      </trkpt>
      <trkpt lat="44.82972" lon="5.07376">
        <ele>918.38</ele>
        <time>2020-12-23T09:34:28.999Z</time>
      </trkpt>
      <trkpt lat="44.82964" lon="5.07377">
        <ele>920.43</ele>
        <time>2020-12-23T09:34:38.999Z</time>
      </trkpt>
      <trkpt lat="44.82959" lon="5.07374">
        <ele>922.1</ele>
        <time>2020-12-23T09:34:48.999Z</time>
      </trkpt>
      <trkpt lat="44.82954" lon="5.07375">
        <ele>922.86</ele>
        <time>2020-12-23T09:34:58.776Z</time>
      </trkpt>
      <trkpt lat="44.82947" lon="5.07374">
        <ele>924.44</ele>
        <time>2020-12-23T09:35:08.999Z</time>
      </trkpt>
      <trkpt lat="44.82939" lon="5.07373">
        <ele>926.34</ele>
        <time>2020-12-23T09:35:18.999Z</time>
      </trkpt>
      <trkpt lat="44.8293" lon="5.07371">
        <ele>927.77</ele>
        <time>2020-12-23T09:35:28.899Z</time>
      </trkpt>
      <trkpt lat="44.82922" lon="5.07368">
        <ele>928.44</ele>
        <time>2020-12-23T09:35:38.999Z</time>
      </trkpt>
      <trkpt lat="44.82913" lon="5.07365">
        <ele>930.89</ele>
        <time>2020-12-23T09:35:48.999Z</time>
      </trkpt>
      <trkpt lat="44.82908" lon="5.0736">
        <ele>931.66</ele>
        <time>2020-12-23T09:35:58.999Z</time>
      </trkpt>
      <trkpt lat="44.82907" lon="5.0736">
        <ele>932.03</ele>
        <time>2020-12-23T09:36:29.999Z</time>
      </trkpt>
      <trkpt lat="44.82896" lon="5.07361">
        <ele>929.84</ele>
        <time>2020-12-23T09:36:39.299Z</time>
      </trkpt>
      <trkpt lat="44.82891" lon="5.07355">
        <ele>932.21</ele>
        <time>2020-12-23T09:36:48.938Z</time>
      </trkpt>
      <trkpt lat="44.82889" lon="5.0735">
        <ele>931.54</ele>
        <time>2020-12-23T09:36:57.999Z</time>
      </trkpt>
      <trkpt lat="44.82888" lon="5.07348">
        <ele>931.5</ele>
        <time>2020-12-23T09:37:12.999Z</time>
      </trkpt>
      <trkpt lat="44.82886" lon="5.0735">
        <ele>930.46</ele>
        <time>2020-12-23T09:38:16.999Z</time>
      </trkpt>
      <trkpt lat="44.82888" lon="5.07348">
        <ele>930.51</ele>
        <time>2020-12-23T09:38:43.999Z</time>
      </trkpt>
      <trkpt lat="44.82886" lon="5.07348">
        <ele>930.14</ele>
        <time>2020-12-23T09:39:23.999Z</time>
      </trkpt>
      <trkpt lat="44.82883" lon="5.07349">
        <ele>932.34</ele>
        <time>2020-12-23T09:39:33.999Z</time>
      </trkpt>
      <trkpt lat="44.82878" lon="5.07347">
        <ele>928.1</ele>
        <time>2020-12-23T09:39:43.121Z</time>
      </trkpt>
      <trkpt lat="44.82866" lon="5.07345">
        <ele>929.09</ele>
        <time>2020-12-23T09:39:52.762Z</time>
      </trkpt>
      <trkpt lat="44.82856" lon="5.07346">
        <ele>926.21</ele>
        <time>2020-12-23T09:40:02.183Z</time>
      </trkpt>
      <trkpt lat="44.82846" lon="5.07337">
        <ele>926.61</ele>
        <time>2020-12-23T09:40:11.362Z</time>
      </trkpt>
      <trkpt lat="44.82837" lon="5.07331">
        <ele>925.16</ele>
        <time>2020-12-23T09:40:20.866Z</time>
      </trkpt>
      <trkpt lat="44.82828" lon="5.07325">
        <ele>924.07</ele>
        <time>2020-12-23T09:40:30.284Z</time>
      </trkpt>
      <trkpt lat="44.82817" lon="5.07321">
        <ele>921.63</ele>
        <time>2020-12-23T09:40:39.623Z</time>
      </trkpt>
      <trkpt lat="44.82807" lon="5.07319">
        <ele>920.43</ele>
        <time>2020-12-23T09:40:48.982Z</time>
      </trkpt>
      <trkpt lat="44.82797" lon="5.07318">
        <ele>918.31</ele>
        <time>2020-12-23T09:40:58.483Z</time>
      </trkpt>
      <trkpt lat="44.82786" lon="5.0732">
        <ele>916.63</ele>
        <time>2020-12-23T09:41:07.623Z</time>
      </trkpt>
      <trkpt lat="44.82776" lon="5.0732">
        <ele>916.75</ele>
        <time>2020-12-23T09:41:17.000Z</time>
      </trkpt>
      <trkpt lat="44.82765" lon="5.0732">
        <ele>916.98</ele>
        <time>2020-12-23T09:41:26.604Z</time>
      </trkpt>
      <trkpt lat="44.82755" lon="5.07329">
        <ele>916.23</ele>
        <time>2020-12-23T09:41:36.194Z</time>
      </trkpt>
      <trkpt lat="44.82746" lon="5.07333">
        <ele>916.85</ele>
        <time>2020-12-23T09:41:46.000Z</time>
      </trkpt>
      <trkpt lat="44.82734" lon="5.07333">
        <ele>916.81</ele>
        <time>2020-12-23T09:41:55.557Z</time>
      </trkpt>
      <trkpt lat="44.82725" lon="5.07333">
        <ele>917.53</ele>
        <time>2020-12-23T09:42:05.000Z</time>
      </trkpt>
      <trkpt lat="44.82727" lon="5.07332">
        <ele>918.12</ele>
        <time>2020-12-23T09:42:15.000Z</time>
      </trkpt>
      <trkpt lat="44.82723" lon="5.07334">
        <ele>917.78</ele>
        <time>2020-12-23T09:42:25.000Z</time>
      </trkpt>
      <trkpt lat="44.8272" lon="5.07333">
        <ele>918.3</ele>
        <time>2020-12-23T09:42:35.417Z</time>
      </trkpt>
      <trkpt lat="44.82709" lon="5.07332">
        <ele>917.94</ele>
        <time>2020-12-23T09:42:45.000Z</time>
      </trkpt>
      <trkpt lat="44.82694" lon="5.07336">
        <ele>916.86</ele>
        <time>2020-12-23T09:42:54.915Z</time>
      </trkpt>
      <trkpt lat="44.8268" lon="5.07339">
        <ele>915.89</ele>
        <time>2020-12-23T09:43:04.416Z</time>
      </trkpt>
      <trkpt lat="44.82667" lon="5.07345">
        <ele>915.15</ele>
        <time>2020-12-23T09:43:13.933Z</time>
      </trkpt>
      <trkpt lat="44.82658" lon="5.07349">
        <ele>914.18</ele>
        <time>2020-12-23T09:43:23.000Z</time>
      </trkpt>
      <trkpt lat="44.82645" lon="5.07354">
        <ele>912.71</ele>
        <time>2020-12-23T09:43:32.155Z</time>
      </trkpt>
      <trkpt lat="44.82634" lon="5.07354">
        <ele>912.03</ele>
        <time>2020-12-23T09:43:42.000Z</time>
      </trkpt>
      <trkpt lat="44.82621" lon="5.07354">
        <ele>911.21</ele>
        <time>2020-12-23T09:43:52.000Z</time>
      </trkpt>
      <trkpt lat="44.82609" lon="5.07359">
        <ele>911.9</ele>
        <time>2020-12-23T09:44:01.385Z</time>
      </trkpt>
      <trkpt lat="44.82598" lon="5.07364">
        <ele>911.8</ele>
        <time>2020-12-23T09:44:11.000Z</time>
      </trkpt>
      <trkpt lat="44.82586" lon="5.0737">
        <ele>913.41</ele>
        <time>2020-12-23T09:44:20.164Z</time>
      </trkpt>
      <trkpt lat="44.82575" lon="5.07374">
        <ele>914.62</ele>
        <time>2020-12-23T09:44:30.000Z</time>
      </trkpt>
      <trkpt lat="44.82564" lon="5.07375">
        <ele>916.1</ele>
        <time>2020-12-23T09:44:40.000Z</time>
      </trkpt>
      <trkpt lat="44.82554" lon="5.07376">
        <ele>918.09</ele>
        <time>2020-12-23T09:44:50.000Z</time>
      </trkpt>
      <trkpt lat="44.82543" lon="5.07379">
        <ele>919.13</ele>
        <time>2020-12-23T09:44:59.718Z</time>
      </trkpt>
      <trkpt lat="44.82535" lon="5.07381">
        <ele>921.22</ele>
        <time>2020-12-23T09:45:09.000Z</time>
      </trkpt>
      <trkpt lat="44.82525" lon="5.07381">
        <ele>923.14</ele>
        <time>2020-12-23T09:45:18.716Z</time>
      </trkpt>
      <trkpt lat="44.82517" lon="5.07383">
        <ele>924.52</ele>
        <time>2020-12-23T09:45:27.736Z</time>
      </trkpt>
      <trkpt lat="44.82507" lon="5.07387">
        <ele>925.49</ele>
        <time>2020-12-23T09:45:36.917Z</time>
      </trkpt>
      <trkpt lat="44.82499" lon="5.07387">
        <ele>928.3</ele>
        <time>2020-12-23T09:45:46.375Z</time>
      </trkpt>
      <trkpt lat="44.82493" lon="5.07382">
        <ele>929.5</ele>
        <time>2020-12-23T09:45:56.000Z</time>
      </trkpt>
      <trkpt lat="44.82487" lon="5.07374">
        <ele>931.42</ele>
        <time>2020-12-23T09:46:06.000Z</time>
      </trkpt>
      <trkpt lat="44.82483" lon="5.07371">
        <ele>933.57</ele>
        <time>2020-12-23T09:46:16.000Z</time>
      </trkpt>
      <trkpt lat="44.82476" lon="5.07372">
        <ele>934.07</ele>
        <time>2020-12-23T09:46:25.556Z</time>
      </trkpt>
      <trkpt lat="44.82469" lon="5.0737">
        <ele>937.6</ele>
        <time>2020-12-23T09:46:35.115Z</time>
      </trkpt>
      <trkpt lat="44.82461" lon="5.07366">
        <ele>937.06</ele>
        <time>2020-12-23T09:46:44.664Z</time>
      </trkpt>
      <trkpt lat="44.82453" lon="5.0736">
        <ele>938.17</ele>
        <time>2020-12-23T09:46:54.000Z</time>
      </trkpt>
      <trkpt lat="44.82446" lon="5.07351">
        <ele>938.25</ele>
        <time>2020-12-23T09:47:04.000Z</time>
      </trkpt>
      <trkpt lat="44.82438" lon="5.07342">
        <ele>941.88</ele>
        <time>2020-12-23T09:47:13.854Z</time>
      </trkpt>
      <trkpt lat="44.82436" lon="5.07337">
        <ele>942.26</ele>
        <time>2020-12-23T09:47:23.000Z</time>
      </trkpt>
      <trkpt lat="44.82437" lon="5.07335">
        <ele>944.16</ele>
        <time>2020-12-23T09:47:45.000Z</time>
      </trkpt>
      <trkpt lat="44.82435" lon="5.07334">
        <ele>942.73</ele>
        <time>2020-12-23T09:48:12.000Z</time>
      </trkpt>
      <trkpt lat="44.82437" lon="5.07335">
        <ele>944.85</ele>
        <time>2020-12-23T09:48:21.617Z</time>
      </trkpt>
      <trkpt lat="44.82442" lon="5.07338">
        <ele>944.16</ele>
        <time>2020-12-23T09:48:31.000Z</time>
      </trkpt>
      <trkpt lat="44.82441" lon="5.07337">
        <ele>941.56</ele>
        <time>2020-12-23T09:48:43.000Z</time>
      </trkpt>
      <trkpt lat="44.82438" lon="5.07336">
        <ele>943.79</ele>
        <time>2020-12-23T09:48:54.000Z</time>
      </trkpt>
      <trkpt lat="44.82437" lon="5.07342">
        <ele>942.93</ele>
        <time>2020-12-23T09:49:04.000Z</time>
      </trkpt>
      <trkpt lat="44.82437" lon="5.07344">
        <ele>942.37</ele>
        <time>2020-12-23T09:49:14.000Z</time>
      </trkpt>
      <trkpt lat="44.82436" lon="5.07348">
        <ele>941.84</ele>
        <time>2020-12-23T09:49:24.000Z</time>
      </trkpt>
      <trkpt lat="44.82435" lon="5.0735">
        <ele>942.17</ele>
        <time>2020-12-23T09:49:45.895Z</time>
      </trkpt>
      <trkpt lat="44.82431" lon="5.07364">
        <ele>940.23</ele>
        <time>2020-12-23T09:49:56.000Z</time>
      </trkpt>
      <trkpt lat="44.82427" lon="5.07377">
        <ele>940.3</ele>
        <time>2020-12-23T09:50:06.000Z</time>
      </trkpt>
      <trkpt lat="44.82424" lon="5.07386">
        <ele>939.95</ele>
        <time>2020-12-23T09:50:16.000Z</time>
      </trkpt>
      <trkpt lat="44.82418" lon="5.07395">
        <ele>940.7</ele>
        <time>2020-12-23T09:50:26.000Z</time>
      </trkpt>
      <trkpt lat="44.8241" lon="5.07396">
        <ele>941.9</ele>
        <time>2020-12-23T09:50:35.876Z</time>
      </trkpt>
      <trkpt lat="44.82402" lon="5.07398">
        <ele>942.86</ele>
        <time>2020-12-23T09:50:45.000Z</time>
      </trkpt>
      <trkpt lat="44.82396" lon="5.07404">
        <ele>944.67</ele>
        <time>2020-12-23T09:50:55.000Z</time>
      </trkpt>
      <trkpt lat="44.82386" lon="5.07413">
        <ele>945.68</ele>
        <time>2020-12-23T09:51:05.000Z</time>
      </trkpt>
      <trkpt lat="44.82376" lon="5.0742">
        <ele>946.83</ele>
        <time>2020-12-23T09:51:15.000Z</time>
      </trkpt>
      <trkpt lat="44.82365" lon="5.07421">
        <ele>947.9</ele>
        <time>2020-12-23T09:51:25.000Z</time>
      </trkpt>
      <trkpt lat="44.82355" lon="5.07425">
        <ele>947.78</ele>
        <time>2020-12-23T09:51:34.205Z</time>
      </trkpt>
      <trkpt lat="44.82344" lon="5.07428">
        <ele>947.93</ele>
        <time>2020-12-23T09:51:43.723Z</time>
      </trkpt>
      <trkpt lat="44.82334" lon="5.07432">
        <ele>947.42</ele>
        <time>2020-12-23T09:51:53.178Z</time>
      </trkpt>
      <trkpt lat="44.82325" lon="5.07436">
        <ele>947.56</ele>
        <time>2020-12-23T09:52:02.555Z</time>
      </trkpt>
      <trkpt lat="44.82314" lon="5.07435">
        <ele>944.59</ele>
        <time>2020-12-23T09:52:11.638Z</time>
      </trkpt>
      <trkpt lat="44.82304" lon="5.07441">
        <ele>943.76</ele>
        <time>2020-12-23T09:52:21.097Z</time>
      </trkpt>
      <trkpt lat="44.82296" lon="5.07449">
        <ele>941.59</ele>
        <time>2020-12-23T09:52:30.479Z</time>
      </trkpt>
      <trkpt lat="44.82285" lon="5.07454">
        <ele>939.94</ele>
        <time>2020-12-23T09:52:39.963Z</time>
      </trkpt>
      <trkpt lat="44.82275" lon="5.07455">
        <ele>938.15</ele>
        <time>2020-12-23T09:52:49.999Z</time>
      </trkpt>
      <trkpt lat="44.82266" lon="5.07458">
        <ele>938.24</ele>
        <time>2020-12-23T09:52:59.999Z</time>
      </trkpt>
      <trkpt lat="44.82263" lon="5.07451">
        <ele>937.5</ele>
        <time>2020-12-23T09:53:09.517Z</time>
      </trkpt>
      <trkpt lat="44.82257" lon="5.07444">
        <ele>937.02</ele>
        <time>2020-12-23T09:53:18.999Z</time>
      </trkpt>
      <trkpt lat="44.82248" lon="5.07436">
        <ele>935.24</ele>
        <time>2020-12-23T09:53:28.581Z</time>
      </trkpt>
      <trkpt lat="44.82242" lon="5.07427">
        <ele>932.68</ele>
        <time>2020-12-23T09:53:38.139Z</time>
      </trkpt>
      <trkpt lat="44.8224" lon="5.07417">
        <ele>930.27</ele>
        <time>2020-12-23T09:53:47.479Z</time>
      </trkpt>
      <trkpt lat="44.82235" lon="5.07405">
        <ele>928.58</ele>
        <time>2020-12-23T09:53:56.480Z</time>
      </trkpt>
      <trkpt lat="44.82223" lon="5.07404">
        <ele>926.04</ele>
        <time>2020-12-23T09:54:05.899Z</time>
      </trkpt>
      <trkpt lat="44.82211" lon="5.07405">
        <ele>923.62</ele>
        <time>2020-12-23T09:54:15.237Z</time>
      </trkpt>
      <trkpt lat="44.822" lon="5.07405">
        <ele>921.02</ele>
        <time>2020-12-23T09:54:24.999Z</time>
      </trkpt>
      <trkpt lat="44.8219" lon="5.07401">
        <ele>918.38</ele>
        <time>2020-12-23T09:54:34.358Z</time>
      </trkpt>
      <trkpt lat="44.8218" lon="5.07393">
        <ele>918.94</ele>
        <time>2020-12-23T09:54:43.838Z</time>
      </trkpt>
      <trkpt lat="44.82172" lon="5.07396">
        <ele>918.53</ele>
        <time>2020-12-23T09:54:52.999Z</time>
      </trkpt>
      <trkpt lat="44.82172" lon="5.07394">
        <ele>918.93</ele>
        <time>2020-12-23T09:55:19.821Z</time>
      </trkpt>
      <trkpt lat="44.82169" lon="5.07394">
        <ele>918.7</ele>
        <time>2020-12-23T09:55:40.498Z</time>
      </trkpt>
      <trkpt lat="44.82161" lon="5.07396">
        <ele>918.35</ele>
        <time>2020-12-23T09:55:49.999Z</time>
      </trkpt>
      <trkpt lat="44.82151" lon="5.07401">
        <ele>917.6</ele>
        <time>2020-12-23T09:55:59.999Z</time>
      </trkpt>
      <trkpt lat="44.82141" lon="5.07406">
        <ele>917.05</ele>
        <time>2020-12-23T09:56:09.999Z</time>
      </trkpt>
      <trkpt lat="44.82134" lon="5.07409">
        <ele>915.68</ele>
        <time>2020-12-23T09:56:19.719Z</time>
      </trkpt>
      <trkpt lat="44.82126" lon="5.07416">
        <ele>914.86</ele>
        <time>2020-12-23T09:56:28.860Z</time>
      </trkpt>
      <trkpt lat="44.82116" lon="5.07412">
        <ele>914.97</ele>
        <time>2020-12-23T09:56:37.938Z</time>
      </trkpt>
      <trkpt lat="44.82106" lon="5.07409">
        <ele>915.2</ele>
        <time>2020-12-23T09:56:46.999Z</time>
      </trkpt>
      <trkpt lat="44.82101" lon="5.0741">
        <ele>914.28</ele>
        <time>2020-12-23T09:56:56.999Z</time>
      </trkpt>
      <trkpt lat="44.82098" lon="5.07411">
        <ele>912.89</ele>
        <time>2020-12-23T09:57:08.596Z</time>
      </trkpt>
      <trkpt lat="44.82087" lon="5.07417">
        <ele>911.47</ele>
        <time>2020-12-23T09:57:17.999Z</time>
      </trkpt>
      <trkpt lat="44.82077" lon="5.07419">
        <ele>910.59</ele>
        <time>2020-12-23T09:57:27.999Z</time>
      </trkpt>
      <trkpt lat="44.8207" lon="5.07417">
        <ele>910.51</ele>
        <time>2020-12-23T09:57:37.198Z</time>
      </trkpt>
      <trkpt lat="44.8206" lon="5.07415">
        <ele>910.42</ele>
        <time>2020-12-23T09:57:46.999Z</time>
      </trkpt>
      <trkpt lat="44.82054" lon="5.07413">
        <ele>911.03</ele>
        <time>2020-12-23T09:57:56.359Z</time>
      </trkpt>
      <trkpt lat="44.82042" lon="5.07414">
        <ele>912.31</ele>
        <time>2020-12-23T09:58:05.999Z</time>
      </trkpt>
      <trkpt lat="44.82034" lon="5.07413">
        <ele>914.03</ele>
        <time>2020-12-23T09:58:15.999Z</time>
      </trkpt>
      <trkpt lat="44.82023" lon="5.07416">
        <ele>916.03</ele>
        <time>2020-12-23T09:58:25.999Z</time>
      </trkpt>
      <trkpt lat="44.82019" lon="5.07419">
        <ele>917.92</ele>
        <time>2020-12-23T09:58:35.999Z</time>
      </trkpt>
      <trkpt lat="44.82016" lon="5.07419">
        <ele>919.33</ele>
        <time>2020-12-23T09:58:45.999Z</time>
      </trkpt>
      <trkpt lat="44.82008" lon="5.07413">
        <ele>920.58</ele>
        <time>2020-12-23T09:58:55.999Z</time>
      </trkpt>
      <trkpt lat="44.82001" lon="5.07413">
        <ele>922.07</ele>
        <time>2020-12-23T09:59:05.999Z</time>
      </trkpt>
      <trkpt lat="44.82001" lon="5.07416">
        <ele>923.69</ele>
        <time>2020-12-23T09:59:15.522Z</time>
      </trkpt>
      <trkpt lat="44.81998" lon="5.07427">
        <ele>925.18</ele>
        <time>2020-12-23T09:59:25.003Z</time>
      </trkpt>
      <trkpt lat="44.81995" lon="5.07429">
        <ele>927.11</ele>
        <time>2020-12-23T09:59:34.082Z</time>
      </trkpt>
      <trkpt lat="44.8199" lon="5.07431">
        <ele>928.9</ele>
        <time>2020-12-23T09:59:43.661Z</time>
      </trkpt>
      <trkpt lat="44.81986" lon="5.07434">
        <ele>930.89</ele>
        <time>2020-12-23T09:59:52.781Z</time>
      </trkpt>
      <trkpt lat="44.81983" lon="5.07436">
        <ele>932.65</ele>
        <time>2020-12-23T10:00:01.999Z</time>
      </trkpt>
      <trkpt lat="44.81981" lon="5.07433">
        <ele>934.7</ele>
        <time>2020-12-23T10:00:11.562Z</time>
      </trkpt>
      <trkpt lat="44.81977" lon="5.07434">
        <ele>936.88</ele>
        <time>2020-12-23T10:00:20.643Z</time>
      </trkpt>
      <trkpt lat="44.81969" lon="5.07434">
        <ele>938.31</ele>
        <time>2020-12-23T10:00:29.744Z</time>
      </trkpt>
      <trkpt lat="44.81964" lon="5.07435">
        <ele>939.3</ele>
        <time>2020-12-23T10:00:38.999Z</time>
      </trkpt>
      <trkpt lat="44.81957" lon="5.07438">
        <ele>940.7</ele>
        <time>2020-12-23T10:00:48.999Z</time>
      </trkpt>
      <trkpt lat="44.81954" lon="5.07439">
        <ele>942.03</ele>
        <time>2020-12-23T10:00:58.959Z</time>
      </trkpt>
      <trkpt lat="44.81952" lon="5.07438">
        <ele>943.54</ele>
        <time>2020-12-23T10:01:07.999Z</time>
      </trkpt>
      <trkpt lat="44.81939" lon="5.07436">
        <ele>945.1</ele>
        <time>2020-12-23T10:01:17.999Z</time>
      </trkpt>
      <trkpt lat="44.81932" lon="5.07437">
        <ele>946.27</ele>
        <time>2020-12-23T10:01:27.862Z</time>
      </trkpt>
      <trkpt lat="44.81925" lon="5.07438">
        <ele>948.05</ele>
        <time>2020-12-23T10:01:36.901Z</time>
      </trkpt>
      <trkpt lat="44.81919" lon="5.07439">
        <ele>950.02</ele>
        <time>2020-12-23T10:01:45.999Z</time>
      </trkpt>
      <trkpt lat="44.81913" lon="5.07438">
        <ele>950.9</ele>
        <time>2020-12-23T10:01:55.621Z</time>
      </trkpt>
      <trkpt lat="44.81909" lon="5.07436">
        <ele>951.99</ele>
        <time>2020-12-23T10:02:04.999Z</time>
      </trkpt>
      <trkpt lat="44.819" lon="5.07432">
        <ele>953.34</ele>
        <time>2020-12-23T10:02:14.760Z</time>
      </trkpt>
      <trkpt lat="44.81896" lon="5.07427">
        <ele>955.53</ele>
        <time>2020-12-23T10:02:23.999Z</time>
      </trkpt>
      <trkpt lat="44.81893" lon="5.07422">
        <ele>957.11</ele>
        <time>2020-12-23T10:02:33.143Z</time>
      </trkpt>
      <trkpt lat="44.81889" lon="5.07417">
        <ele>957.87</ele>
        <time>2020-12-23T10:02:42.999Z</time>
      </trkpt>
      <trkpt lat="44.81887" lon="5.07416">
        <ele>958.04</ele>
        <time>2020-12-23T10:02:54.159Z</time>
      </trkpt>
      <trkpt lat="44.81883" lon="5.07417">
        <ele>959.06</ele>
        <time>2020-12-23T10:03:03.557Z</time>
      </trkpt>
      <trkpt lat="44.81877" lon="5.07415">
        <ele>960.62</ele>
        <time>2020-12-23T10:03:12.917Z</time>
      </trkpt>
      <trkpt lat="44.81872" lon="5.0741">
        <ele>961.8</ele>
        <time>2020-12-23T10:03:21.999Z</time>
      </trkpt>
      <trkpt lat="44.81867" lon="5.07409">
        <ele>963.19</ele>
        <time>2020-12-23T10:03:31.727Z</time>
      </trkpt>
      <trkpt lat="44.81865" lon="5.07403">
        <ele>964.17</ele>
        <time>2020-12-23T10:03:41.000Z</time>
      </trkpt>
      <trkpt lat="44.81862" lon="5.07399">
        <ele>964.93</ele>
        <time>2020-12-23T10:03:51.000Z</time>
      </trkpt>
      <trkpt lat="44.81856" lon="5.07396">
        <ele>966.37</ele>
        <time>2020-12-23T10:04:01.000Z</time>
      </trkpt>
      <trkpt lat="44.8185" lon="5.07394">
        <ele>968.36</ele>
        <time>2020-12-23T10:04:10.037Z</time>
      </trkpt>
      <trkpt lat="44.81846" lon="5.07392">
        <ele>970.24</ele>
        <time>2020-12-23T10:04:20.000Z</time>
      </trkpt>
      <trkpt lat="44.8184" lon="5.07398">
        <ele>970.59</ele>
        <time>2020-12-23T10:04:30.000Z</time>
      </trkpt>
      <trkpt lat="44.81837" lon="5.07392">
        <ele>971.83</ele>
        <time>2020-12-23T10:04:40.000Z</time>
      </trkpt>
      <trkpt lat="44.81834" lon="5.0739">
        <ele>972.75</ele>
        <time>2020-12-23T10:04:49.016Z</time>
      </trkpt>
      <trkpt lat="44.81832" lon="5.07388">
        <ele>974.25</ele>
        <time>2020-12-23T10:04:59.000Z</time>
      </trkpt>
      <trkpt lat="44.81829" lon="5.07387">
        <ele>975.34</ele>
        <time>2020-12-23T10:05:09.000Z</time>
      </trkpt>
      <trkpt lat="44.81823" lon="5.07389">
        <ele>976.35</ele>
        <time>2020-12-23T10:05:18.656Z</time>
      </trkpt>
      <trkpt lat="44.81817" lon="5.07391">
        <ele>977.41</ele>
        <time>2020-12-23T10:05:28.000Z</time>
      </trkpt>
      <trkpt lat="44.81809" lon="5.07393">
        <ele>977.32</ele>
        <time>2020-12-23T10:05:38.000Z</time>
      </trkpt>
      <trkpt lat="44.81802" lon="5.07397">
        <ele>977.52</ele>
        <time>2020-12-23T10:05:47.656Z</time>
      </trkpt>
      <trkpt lat="44.81791" lon="5.07396">
        <ele>979</ele>
        <time>2020-12-23T10:05:58.000Z</time>
      </trkpt>
      <trkpt lat="44.81782" lon="5.07394">
        <ele>980.19</ele>
        <time>2020-12-23T10:06:07.776Z</time>
      </trkpt>
      <trkpt lat="44.81775" lon="5.07395">
        <ele>980.63</ele>
        <time>2020-12-23T10:06:17.000Z</time>
      </trkpt>
      <trkpt lat="44.81767" lon="5.07398">
        <ele>982.02</ele>
        <time>2020-12-23T10:06:26.797Z</time>
      </trkpt>
      <trkpt lat="44.81759" lon="5.07394">
        <ele>983.87</ele>
        <time>2020-12-23T10:06:35.816Z</time>
      </trkpt>
      <trkpt lat="44.81753" lon="5.07397">
        <ele>985</ele>
        <time>2020-12-23T10:06:45.000Z</time>
      </trkpt>
      <trkpt lat="44.81746" lon="5.07393">
        <ele>986.69</ele>
        <time>2020-12-23T10:06:55.000Z</time>
      </trkpt>
      <trkpt lat="44.81746" lon="5.07384">
        <ele>987.87</ele>
        <time>2020-12-23T10:07:04.655Z</time>
      </trkpt>
      <trkpt lat="44.8174" lon="5.07378">
        <ele>989.34</ele>
        <time>2020-12-23T10:07:14.000Z</time>
      </trkpt>
      <trkpt lat="44.8173" lon="5.07376">
        <ele>990.97</ele>
        <time>2020-12-23T10:07:23.656Z</time>
      </trkpt>
      <trkpt lat="44.81724" lon="5.07373">
        <ele>992.3</ele>
        <time>2020-12-23T10:07:33.000Z</time>
      </trkpt>
      <trkpt lat="44.81719" lon="5.07375">
        <ele>992.9</ele>
        <time>2020-12-23T10:07:43.000Z</time>
      </trkpt>
      <trkpt lat="44.81714" lon="5.07369">
        <ele>993.59</ele>
        <time>2020-12-23T10:07:53.000Z</time>
      </trkpt>
      <trkpt lat="44.81704" lon="5.07366">
        <ele>994.24</ele>
        <time>2020-12-23T10:08:03.000Z</time>
      </trkpt>
      <trkpt lat="44.81695" lon="5.07367">
        <ele>994.02</ele>
        <time>2020-12-23T10:08:12.176Z</time>
      </trkpt>
      <trkpt lat="44.81687" lon="5.07369">
        <ele>993.52</ele>
        <time>2020-12-23T10:08:22.000Z</time>
      </trkpt>
      <trkpt lat="44.81685" lon="5.07368">
        <ele>994.42</ele>
        <time>2020-12-23T10:08:32.000Z</time>
      </trkpt>
      <trkpt lat="44.81683" lon="5.07368">
        <ele>994.05</ele>
        <time>2020-12-23T10:08:42.000Z</time>
      </trkpt>
      <trkpt lat="44.81681" lon="5.0737">
        <ele>993.47</ele>
        <time>2020-12-23T10:09:21.000Z</time>
      </trkpt>
      <trkpt lat="44.81679" lon="5.07371">
        <ele>992.94</ele>
        <time>2020-12-23T10:09:32.798Z</time>
      </trkpt>
      <trkpt lat="44.81671" lon="5.07373">
        <ele>990.63</ele>
        <time>2020-12-23T10:09:42.000Z</time>
      </trkpt>
      <trkpt lat="44.81665" lon="5.07374">
        <ele>989.71</ele>
        <time>2020-12-23T10:09:52.000Z</time>
      </trkpt>
      <trkpt lat="44.81663" lon="5.07374">
        <ele>987.74</ele>
        <time>2020-12-23T10:10:10.000Z</time>
      </trkpt>
      <trkpt lat="44.8166" lon="5.07372">
        <ele>986.51</ele>
        <time>2020-12-23T10:10:20.000Z</time>
      </trkpt>
      <trkpt lat="44.81651" lon="5.0737">
        <ele>983.91</ele>
        <time>2020-12-23T10:10:29.663Z</time>
      </trkpt>
      <trkpt lat="44.81643" lon="5.0737">
        <ele>983.06</ele>
        <time>2020-12-23T10:10:38.737Z</time>
      </trkpt>
      <trkpt lat="44.81633" lon="5.07373">
        <ele>981.03</ele>
        <time>2020-12-23T10:10:48.000Z</time>
      </trkpt>
      <trkpt lat="44.81629" lon="5.07373">
        <ele>978.68</ele>
        <time>2020-12-23T10:10:58.000Z</time>
      </trkpt>
      <trkpt lat="44.81618" lon="5.07375">
        <ele>976.24</ele>
        <time>2020-12-23T10:11:07.037Z</time>
      </trkpt>
      <trkpt lat="44.81611" lon="5.07376">
        <ele>974.64</ele>
        <time>2020-12-23T10:11:16.156Z</time>
      </trkpt>
      <trkpt lat="44.81609" lon="5.07375">
        <ele>973.81</ele>
        <time>2020-12-23T10:11:26.000Z</time>
      </trkpt>
      <trkpt lat="44.81601" lon="5.07375">
        <ele>972.09</ele>
        <time>2020-12-23T10:11:36.000Z</time>
      </trkpt>
      <trkpt lat="44.8159" lon="5.07373">
        <ele>971.55</ele>
        <time>2020-12-23T10:11:45.479Z</time>
      </trkpt>
      <trkpt lat="44.81586" lon="5.07372">
        <ele>971.52</ele>
        <time>2020-12-23T10:11:54.619Z</time>
      </trkpt>
      <trkpt lat="44.81582" lon="5.07374">
        <ele>972.8</ele>
        <time>2020-12-23T10:12:04.000Z</time>
      </trkpt>
      <trkpt lat="44.81573" lon="5.07376">
        <ele>974.94</ele>
        <time>2020-12-23T10:12:13.732Z</time>
      </trkpt>
      <trkpt lat="44.81569" lon="5.07376">
        <ele>976.05</ele>
        <time>2020-12-23T10:12:23.000Z</time>
      </trkpt>
      <trkpt lat="44.81566" lon="5.07376">
        <ele>978.42</ele>
        <time>2020-12-23T10:12:33.000Z</time>
      </trkpt>
      <trkpt lat="44.81558" lon="5.07376">
        <ele>980.19</ele>
        <time>2020-12-23T10:12:42.598Z</time>
      </trkpt>
      <trkpt lat="44.81537" lon="5.07378">
        <ele>982.21</ele>
        <time>2020-12-23T10:12:51.858Z</time>
      </trkpt>
      <trkpt lat="44.81512" lon="5.0739">
        <ele>983.78</ele>
        <time>2020-12-23T10:13:02.000Z</time>
      </trkpt>
      <trkpt lat="44.815" lon="5.07397">
        <ele>985.13</ele>
        <time>2020-12-23T10:13:11.861Z</time>
      </trkpt>
      <trkpt lat="44.81497" lon="5.07399">
        <ele>986.58</ele>
        <time>2020-12-23T10:13:21.000Z</time>
      </trkpt>
      <trkpt lat="44.81494" lon="5.074">
        <ele>987.99</ele>
        <time>2020-12-23T10:13:30.357Z</time>
      </trkpt>
      <trkpt lat="44.81491" lon="5.07407">
        <ele>988.88</ele>
        <time>2020-12-23T10:13:39.838Z</time>
      </trkpt>
      <trkpt lat="44.81483" lon="5.07415">
        <ele>990.31</ele>
        <time>2020-12-23T10:13:50.000Z</time>
      </trkpt>
      <trkpt lat="44.81475" lon="5.07414">
        <ele>992.23</ele>
        <time>2020-12-23T10:14:00.000Z</time>
      </trkpt>
      <trkpt lat="44.81471" lon="5.07415">
        <ele>993.82</ele>
        <time>2020-12-23T10:14:10.000Z</time>
      </trkpt>
      <trkpt lat="44.81467" lon="5.07414">
        <ele>995.51</ele>
        <time>2020-12-23T10:14:20.000Z</time>
      </trkpt>
      <trkpt lat="44.81462" lon="5.07413">
        <ele>997.09</ele>
        <time>2020-12-23T10:14:30.000Z</time>
      </trkpt>
      <trkpt lat="44.81459" lon="5.07414">
        <ele>998.22</ele>
        <time>2020-12-23T10:14:40.000Z</time>
      </trkpt>
      <trkpt lat="44.81457" lon="5.07414">
        <ele>999.98</ele>
        <time>2020-12-23T10:14:50.000Z</time>
      </trkpt>
      <trkpt lat="44.81454" lon="5.07416">
        <ele>1000.23</ele>
        <time>2020-12-23T10:15:00.000Z</time>
      </trkpt>
      <trkpt lat="44.81449" lon="5.07417">
        <ele>1000.67</ele>
        <time>2020-12-23T10:15:09.665Z</time>
      </trkpt>
      <trkpt lat="44.81446" lon="5.07418">
        <ele>1002.08</ele>
        <time>2020-12-23T10:15:20.000Z</time>
      </trkpt>
      <trkpt lat="44.81442" lon="5.07419">
        <ele>1000.03</ele>
        <time>2020-12-23T10:15:29.084Z</time>
      </trkpt>
      <trkpt lat="44.8143" lon="5.07422">
        <ele>1000.93</ele>
        <time>2020-12-23T10:15:38.999Z</time>
      </trkpt>
      <trkpt lat="44.81411" lon="5.07432">
        <ele>1001.11</ele>
        <time>2020-12-23T10:15:48.999Z</time>
      </trkpt>
      <trkpt lat="44.81399" lon="5.07436">
        <ele>1001.13</ele>
        <time>2020-12-23T10:15:58.999Z</time>
      </trkpt>
      <trkpt lat="44.81393" lon="5.0744">
        <ele>999.31</ele>
        <time>2020-12-23T10:16:08.783Z</time>
      </trkpt>
      <trkpt lat="44.81388" lon="5.07442">
        <ele>999.34</ele>
        <time>2020-12-23T10:16:17.999Z</time>
      </trkpt>
      <trkpt lat="44.8138" lon="5.07449">
        <ele>998.12</ele>
        <time>2020-12-23T10:16:27.999Z</time>
      </trkpt>
      <trkpt lat="44.81367" lon="5.07453">
        <ele>998.01</ele>
        <time>2020-12-23T10:16:37.999Z</time>
      </trkpt>
      <trkpt lat="44.81364" lon="5.07453">
        <ele>997.66</ele>
        <time>2020-12-23T10:16:47.999Z</time>
      </trkpt>
      <trkpt lat="44.81362" lon="5.07457">
        <ele>997.39</ele>
        <time>2020-12-23T10:16:57.999Z</time>
      </trkpt>
      <trkpt lat="44.81358" lon="5.07462">
        <ele>995.78</ele>
        <time>2020-12-23T10:17:07.999Z</time>
      </trkpt>
      <trkpt lat="44.81352" lon="5.07466">
        <ele>996.14</ele>
        <time>2020-12-23T10:17:17.999Z</time>
      </trkpt>
      <trkpt lat="44.81346" lon="5.07466">
        <ele>994.61</ele>
        <time>2020-12-23T10:17:28.999Z</time>
      </trkpt>
      <trkpt lat="44.81345" lon="5.07468">
        <ele>994.39</ele>
        <time>2020-12-23T10:17:38.111Z</time>
      </trkpt>
      <trkpt lat="44.81336" lon="5.07467">
        <ele>993.35</ele>
        <time>2020-12-23T10:17:47.125Z</time>
      </trkpt>
      <trkpt lat="44.81322" lon="5.07459">
        <ele>992.54</ele>
        <time>2020-12-23T10:17:56.181Z</time>
      </trkpt>
      <trkpt lat="44.81314" lon="5.07452">
        <ele>992.12</ele>
        <time>2020-12-23T10:18:05.999Z</time>
      </trkpt>
      <trkpt lat="44.81302" lon="5.07453">
        <ele>991.39</ele>
        <time>2020-12-23T10:18:15.602Z</time>
      </trkpt>
      <trkpt lat="44.81298" lon="5.07462">
        <ele>990.95</ele>
        <time>2020-12-23T10:18:24.999Z</time>
      </trkpt>
      <trkpt lat="44.81298" lon="5.0746">
        <ele>990.96</ele>
        <time>2020-12-23T10:18:35.562Z</time>
      </trkpt>
      <trkpt lat="44.81297" lon="5.07455">
        <ele>992.82</ele>
        <time>2020-12-23T10:18:44.841Z</time>
      </trkpt>
      <trkpt lat="44.81295" lon="5.07453">
        <ele>992.46</ele>
        <time>2020-12-23T10:18:53.999Z</time>
      </trkpt>
      <trkpt lat="44.81287" lon="5.0745">
        <ele>993.2</ele>
        <time>2020-12-23T10:19:03.840Z</time>
      </trkpt>
      <trkpt lat="44.81281" lon="5.0745">
        <ele>992.29</ele>
        <time>2020-12-23T10:19:13.041Z</time>
      </trkpt>
      <trkpt lat="44.81278" lon="5.0745">
        <ele>990.89</ele>
        <time>2020-12-23T10:19:24.621Z</time>
      </trkpt>
      <trkpt lat="44.81269" lon="5.07452">
        <ele>989.64</ele>
        <time>2020-12-23T10:19:33.999Z</time>
      </trkpt>
      <trkpt lat="44.81264" lon="5.07454">
        <ele>988.29</ele>
        <time>2020-12-23T10:19:43.999Z</time>
      </trkpt>
      <trkpt lat="44.81258" lon="5.07454">
        <ele>987.66</ele>
        <time>2020-12-23T10:19:53.842Z</time>
      </trkpt>
      <trkpt lat="44.81253" lon="5.07454">
        <ele>986.11</ele>
        <time>2020-12-23T10:20:02.999Z</time>
      </trkpt>
      <trkpt lat="44.81244" lon="5.07456">
        <ele>984.75</ele>
        <time>2020-12-23T10:20:12.999Z</time>
      </trkpt>
      <trkpt lat="44.81237" lon="5.07457">
        <ele>982.8</ele>
        <time>2020-12-23T10:20:22.999Z</time>
      </trkpt>
      <trkpt lat="44.81221" lon="5.07453">
        <ele>981.89</ele>
        <time>2020-12-23T10:20:32.999Z</time>
      </trkpt>
      <trkpt lat="44.81206" lon="5.07455">
        <ele>980.82</ele>
        <time>2020-12-23T10:20:42.999Z</time>
      </trkpt>
      <trkpt lat="44.81199" lon="5.07455">
        <ele>981.57</ele>
        <time>2020-12-23T10:20:52.999Z</time>
      </trkpt>
      <trkpt lat="44.81191" lon="5.07454">
        <ele>980.81</ele>
        <time>2020-12-23T10:21:02.999Z</time>
      </trkpt>
      <trkpt lat="44.81184" lon="5.07452">
        <ele>981.78</ele>
        <time>2020-12-23T10:21:12.999Z</time>
      </trkpt>
      <trkpt lat="44.81182" lon="5.07448">
        <ele>982.63</ele>
        <time>2020-12-23T10:21:22.603Z</time>
      </trkpt>
      <trkpt lat="44.81178" lon="5.07446">
        <ele>983.04</ele>
        <time>2020-12-23T10:21:31.999Z</time>
      </trkpt>
      <trkpt lat="44.81173" lon="5.07448">
        <ele>983.05</ele>
        <time>2020-12-23T10:21:41.605Z</time>
      </trkpt>
      <trkpt lat="44.81171" lon="5.07453">
        <ele>981.8</ele>
        <time>2020-12-23T10:21:50.999Z</time>
      </trkpt>
      <trkpt lat="44.81169" lon="5.07459">
        <ele>980.72</ele>
        <time>2020-12-23T10:22:00.626Z</time>
      </trkpt>
      <trkpt lat="44.81164" lon="5.07463">
        <ele>980.05</ele>
        <time>2020-12-23T10:22:09.999Z</time>
      </trkpt>
      <trkpt lat="44.8116" lon="5.07467">
        <ele>978.79</ele>
        <time>2020-12-23T10:22:19.999Z</time>
      </trkpt>
      <trkpt lat="44.81154" lon="5.07471">
        <ele>977.9</ele>
        <time>2020-12-23T10:22:29.895Z</time>
      </trkpt>
      <trkpt lat="44.81149" lon="5.07471">
        <ele>977.75</ele>
        <time>2020-12-23T10:22:39.056Z</time>
      </trkpt>
      <trkpt lat="44.81145" lon="5.07477">
        <ele>976.45</ele>
        <time>2020-12-23T10:22:48.999Z</time>
      </trkpt>
      <trkpt lat="44.81141" lon="5.0748">
        <ele>975.86</ele>
        <time>2020-12-23T10:22:58.999Z</time>
      </trkpt>
      <trkpt lat="44.81138" lon="5.07487">
        <ele>975</ele>
        <time>2020-12-23T10:23:08.798Z</time>
      </trkpt>
      <trkpt lat="44.81133" lon="5.07492">
        <ele>976.2</ele>
        <time>2020-12-23T10:23:18.999Z</time>
      </trkpt>
      <trkpt lat="44.81131" lon="5.07495">
        <ele>975.75</ele>
        <time>2020-12-23T10:23:28.999Z</time>
      </trkpt>
      <trkpt lat="44.81125" lon="5.075">
        <ele>976.16</ele>
        <time>2020-12-23T10:23:38.999Z</time>
      </trkpt>
      <trkpt lat="44.81116" lon="5.07506">
        <ele>977.47</ele>
        <time>2020-12-23T10:23:48.999Z</time>
      </trkpt>
      <trkpt lat="44.81112" lon="5.07509">
        <ele>978.84</ele>
        <time>2020-12-23T10:23:58.999Z</time>
      </trkpt>
      <trkpt lat="44.81104" lon="5.07513">
        <ele>980.07</ele>
        <time>2020-12-23T10:24:08.999Z</time>
      </trkpt>
      <trkpt lat="44.81087" lon="5.07521">
        <ele>980.99</ele>
        <time>2020-12-23T10:24:18.498Z</time>
      </trkpt>
      <trkpt lat="44.81079" lon="5.07526">
        <ele>981.41</ele>
        <time>2020-12-23T10:24:27.999Z</time>
      </trkpt>
      <trkpt lat="44.81068" lon="5.07531">
        <ele>982.64</ele>
        <time>2020-12-23T10:24:37.999Z</time>
      </trkpt>
      <trkpt lat="44.81058" lon="5.07531">
        <ele>984.19</ele>
        <time>2020-12-23T10:24:47.999Z</time>
      </trkpt>
      <trkpt lat="44.8105" lon="5.07533">
        <ele>984.62</ele>
        <time>2020-12-23T10:24:57.999Z</time>
      </trkpt>
      <trkpt lat="44.8104" lon="5.07537">
        <ele>985.69</ele>
        <time>2020-12-23T10:25:07.999Z</time>
      </trkpt>
      <trkpt lat="44.81031" lon="5.07542">
        <ele>984.93</ele>
        <time>2020-12-23T10:25:17.999Z</time>
      </trkpt>
      <trkpt lat="44.81021" lon="5.07544">
        <ele>985.32</ele>
        <time>2020-12-23T10:25:27.999Z</time>
      </trkpt>
      <trkpt lat="44.81015" lon="5.07546">
        <ele>986.56</ele>
        <time>2020-12-23T10:25:37.999Z</time>
      </trkpt>
      <trkpt lat="44.81012" lon="5.07541">
        <ele>987.89</ele>
        <time>2020-12-23T10:25:47.999Z</time>
      </trkpt>
      <trkpt lat="44.8101" lon="5.07538">
        <ele>987.65</ele>
        <time>2020-12-23T10:25:57.999Z</time>
      </trkpt>
      <trkpt lat="44.81009" lon="5.07536">
        <ele>988.08</ele>
        <time>2020-12-23T10:27:36.000Z</time>
      </trkpt>
      <trkpt lat="44.81007" lon="5.07537">
        <ele>987.74</ele>
        <time>2020-12-23T10:28:04.641Z</time>
      </trkpt>
      <trkpt lat="44.81005" lon="5.07541">
        <ele>985.87</ele>
        <time>2020-12-23T10:28:14.000Z</time>
      </trkpt>
      <trkpt lat="44.80996" lon="5.07554">
        <ele>985.61</ele>
        <time>2020-12-23T10:28:23.836Z</time>
      </trkpt>
      <trkpt lat="44.80985" lon="5.07554">
        <ele>986.54</ele>
        <time>2020-12-23T10:28:34.000Z</time>
      </trkpt>
      <trkpt lat="44.80981" lon="5.07561">
        <ele>986.42</ele>
        <time>2020-12-23T10:28:43.377Z</time>
      </trkpt>
      <trkpt lat="44.80971" lon="5.07562">
        <ele>987.31</ele>
        <time>2020-12-23T10:28:52.437Z</time>
      </trkpt>
      <trkpt lat="44.80964" lon="5.0757">
        <ele>985.96</ele>
        <time>2020-12-23T10:29:02.000Z</time>
      </trkpt>
      <trkpt lat="44.80952" lon="5.07566">
        <ele>986.29</ele>
        <time>2020-12-23T10:29:11.116Z</time>
      </trkpt>
      <trkpt lat="44.80942" lon="5.07569">
        <ele>986.56</ele>
        <time>2020-12-23T10:29:20.498Z</time>
      </trkpt>
      <trkpt lat="44.80939" lon="5.07568">
        <ele>987.18</ele>
        <time>2020-12-23T10:29:29.639Z</time>
      </trkpt>
      <trkpt lat="44.80931" lon="5.07563">
        <ele>988.58</ele>
        <time>2020-12-23T10:29:39.016Z</time>
      </trkpt>
      <trkpt lat="44.80925" lon="5.07559">
        <ele>989.52</ele>
        <time>2020-12-23T10:29:49.000Z</time>
      </trkpt>
      <trkpt lat="44.80921" lon="5.07557">
        <ele>989.86</ele>
        <time>2020-12-23T10:29:58.076Z</time>
      </trkpt>
      <trkpt lat="44.80915" lon="5.07554">
        <ele>990.75</ele>
        <time>2020-12-23T10:30:07.800Z</time>
      </trkpt>
      <trkpt lat="44.80911" lon="5.07552">
        <ele>991.36</ele>
        <time>2020-12-23T10:30:16.818Z</time>
      </trkpt>
      <trkpt lat="44.80908" lon="5.07552">
        <ele>991.15</ele>
        <time>2020-12-23T10:30:26.000Z</time>
      </trkpt>
      <trkpt lat="44.80906" lon="5.07553">
        <ele>991.41</ele>
        <time>2020-12-23T10:30:37.000Z</time>
      </trkpt>
      <trkpt lat="44.80908" lon="5.07558">
        <ele>988.92</ele>
        <time>2020-12-23T10:30:46.734Z</time>
      </trkpt>
      <trkpt lat="44.80901" lon="5.07559">
        <ele>988.67</ele>
        <time>2020-12-23T10:30:56.298Z</time>
      </trkpt>
      <trkpt lat="44.80893" lon="5.07554">
        <ele>989.36</ele>
        <time>2020-12-23T10:31:06.000Z</time>
      </trkpt>
      <trkpt lat="44.80889" lon="5.07554">
        <ele>988.53</ele>
        <time>2020-12-23T10:31:15.520Z</time>
      </trkpt>
      <trkpt lat="44.80883" lon="5.07558">
        <ele>987.21</ele>
        <time>2020-12-23T10:31:25.000Z</time>
      </trkpt>
      <trkpt lat="44.80883" lon="5.07561">
        <ele>985.59</ele>
        <time>2020-12-23T10:31:37.000Z</time>
      </trkpt>
      <trkpt lat="44.80877" lon="5.07569">
        <ele>984.29</ele>
        <time>2020-12-23T10:31:47.000Z</time>
      </trkpt>
      <trkpt lat="44.80869" lon="5.0756">
        <ele>985.23</ele>
        <time>2020-12-23T10:31:56.938Z</time>
      </trkpt>
      <trkpt lat="44.80866" lon="5.07561">
        <ele>984.6</ele>
        <time>2020-12-23T10:32:06.399Z</time>
      </trkpt>
      <trkpt lat="44.8086" lon="5.07562">
        <ele>983.75</ele>
        <time>2020-12-23T10:32:16.000Z</time>
      </trkpt>
      <trkpt lat="44.80852" lon="5.07561">
        <ele>981.85</ele>
        <time>2020-12-23T10:32:25.580Z</time>
      </trkpt>
      <trkpt lat="44.80844" lon="5.07565">
        <ele>979.88</ele>
        <time>2020-12-23T10:32:35.000Z</time>
      </trkpt>
      <trkpt lat="44.80836" lon="5.07568">
        <ele>977.7</ele>
        <time>2020-12-23T10:32:44.380Z</time>
      </trkpt>
      <trkpt lat="44.80833" lon="5.07573">
        <ele>975.25</ele>
        <time>2020-12-23T10:32:54.000Z</time>
      </trkpt>
      <trkpt lat="44.8083" lon="5.07574">
        <ele>972.25</ele>
        <time>2020-12-23T10:33:04.000Z</time>
      </trkpt>
      <trkpt lat="44.80816" lon="5.07575">
        <ele>969.2</ele>
        <time>2020-12-23T10:33:13.359Z</time>
      </trkpt>
      <trkpt lat="44.80805" lon="5.0757">
        <ele>966.77</ele>
        <time>2020-12-23T10:33:23.000Z</time>
      </trkpt>
      <trkpt lat="44.80793" lon="5.07565">
        <ele>963.51</ele>
        <time>2020-12-23T10:33:33.160Z</time>
      </trkpt>
      <trkpt lat="44.80787" lon="5.07567">
        <ele>961.86</ele>
        <time>2020-12-23T10:33:42.439Z</time>
      </trkpt>
      <trkpt lat="44.8078" lon="5.07567">
        <ele>959.72</ele>
        <time>2020-12-23T10:33:51.859Z</time>
      </trkpt>
      <trkpt lat="44.80771" lon="5.07562">
        <ele>958.18</ele>
        <time>2020-12-23T10:34:01.358Z</time>
      </trkpt>
      <trkpt lat="44.80763" lon="5.07566">
        <ele>955.56</ele>
        <time>2020-12-23T10:34:10.521Z</time>
      </trkpt>
      <trkpt lat="44.80751" lon="5.07566">
        <ele>954.34</ele>
        <time>2020-12-23T10:34:19.581Z</time>
      </trkpt>
      <trkpt lat="44.80743" lon="5.07568">
        <ele>951.79</ele>
        <time>2020-12-23T10:34:30.000Z</time>
      </trkpt>
      <trkpt lat="44.80728" lon="5.07566">
        <ele>951.15</ele>
        <time>2020-12-23T10:34:39.881Z</time>
      </trkpt>
      <trkpt lat="44.80716" lon="5.07568">
        <ele>951.01</ele>
        <time>2020-12-23T10:34:49.000Z</time>
      </trkpt>
      <trkpt lat="44.80703" lon="5.07572">
        <ele>951.07</ele>
        <time>2020-12-23T10:34:58.482Z</time>
      </trkpt>
      <trkpt lat="44.80693" lon="5.07573">
        <ele>951.61</ele>
        <time>2020-12-23T10:35:08.000Z</time>
      </trkpt>
      <trkpt lat="44.80686" lon="5.07568">
        <ele>953.5</ele>
        <time>2020-12-23T10:35:18.000Z</time>
      </trkpt>
      <trkpt lat="44.80674" lon="5.07569">
        <ele>954.23</ele>
        <time>2020-12-23T10:35:27.542Z</time>
      </trkpt>
      <trkpt lat="44.80662" lon="5.07575">
        <ele>955.06</ele>
        <time>2020-12-23T10:35:37.102Z</time>
      </trkpt>
      <trkpt lat="44.80652" lon="5.07573">
        <ele>956.94</ele>
        <time>2020-12-23T10:35:47.000Z</time>
      </trkpt>
      <trkpt lat="44.80641" lon="5.07573">
        <ele>957.18</ele>
        <time>2020-12-23T10:35:57.000Z</time>
      </trkpt>
      <trkpt lat="44.80634" lon="5.07575">
        <ele>957.48</ele>
        <time>2020-12-23T10:36:06.664Z</time>
      </trkpt>
      <trkpt lat="44.80625" lon="5.07581">
        <ele>958.01</ele>
        <time>2020-12-23T10:36:16.000Z</time>
      </trkpt>
      <trkpt lat="44.80614" lon="5.07586">
        <ele>959.11</ele>
        <time>2020-12-23T10:36:26.000Z</time>
      </trkpt>
      <trkpt lat="44.80606" lon="5.07591">
        <ele>960.1</ele>
        <time>2020-12-23T10:36:36.000Z</time>
      </trkpt>
      <trkpt lat="44.80602" lon="5.07593">
        <ele>961.26</ele>
        <time>2020-12-23T10:36:45.140Z</time>
      </trkpt>
      <trkpt lat="44.80593" lon="5.07594">
        <ele>963.1</ele>
        <time>2020-12-23T10:36:55.000Z</time>
      </trkpt>
      <trkpt lat="44.80583" lon="5.07593">
        <ele>964.22</ele>
        <time>2020-12-23T10:37:05.000Z</time>
      </trkpt>
      <trkpt lat="44.80571" lon="5.07594">
        <ele>964.56</ele>
        <time>2020-12-23T10:37:14.564Z</time>
      </trkpt>
      <trkpt lat="44.80561" lon="5.07596">
        <ele>964.87</ele>
        <time>2020-12-23T10:37:24.170Z</time>
      </trkpt>
      <trkpt lat="44.80551" lon="5.07601">
        <ele>964.16</ele>
        <time>2020-12-23T10:37:33.776Z</time>
      </trkpt>
      <trkpt lat="44.80541" lon="5.07602">
        <ele>964.23</ele>
        <time>2020-12-23T10:37:44.000Z</time>
      </trkpt>
      <trkpt lat="44.80533" lon="5.07602">
        <ele>963.12</ele>
        <time>2020-12-23T10:37:53.579Z</time>
      </trkpt>
      <trkpt lat="44.80526" lon="5.0761">
        <ele>961.36</ele>
        <time>2020-12-23T10:38:03.117Z</time>
      </trkpt>
      <trkpt lat="44.80517" lon="5.07612">
        <ele>960.49</ele>
        <time>2020-12-23T10:38:12.158Z</time>
      </trkpt>
      <trkpt lat="44.80506" lon="5.0761">
        <ele>959.06</ele>
        <time>2020-12-23T10:38:21.638Z</time>
      </trkpt>
      <trkpt lat="44.80495" lon="5.07617">
        <ele>957.3</ele>
        <time>2020-12-23T10:38:32.000Z</time>
      </trkpt>
      <trkpt lat="44.80483" lon="5.07615">
        <ele>956.35</ele>
        <time>2020-12-23T10:38:42.000Z</time>
      </trkpt>
      <trkpt lat="44.80474" lon="5.07613">
        <ele>955.38</ele>
        <time>2020-12-23T10:38:53.000Z</time>
      </trkpt>
      <trkpt lat="44.80463" lon="5.07613">
        <ele>953.66</ele>
        <time>2020-12-23T10:39:02.617Z</time>
      </trkpt>
      <trkpt lat="44.80454" lon="5.0761">
        <ele>953.31</ele>
        <time>2020-12-23T10:39:12.999Z</time>
      </trkpt>
      <trkpt lat="44.80445" lon="5.07604">
        <ele>953.4</ele>
        <time>2020-12-23T10:39:22.999Z</time>
      </trkpt>
      <trkpt lat="44.80436" lon="5.07601">
        <ele>953.45</ele>
        <time>2020-12-23T10:39:32.917Z</time>
      </trkpt>
      <trkpt lat="44.80429" lon="5.07599">
        <ele>952.91</ele>
        <time>2020-12-23T10:39:41.999Z</time>
      </trkpt>
      <trkpt lat="44.80417" lon="5.07591">
        <ele>952.41</ele>
        <time>2020-12-23T10:39:51.712Z</time>
      </trkpt>
      <trkpt lat="44.80413" lon="5.07594">
        <ele>951.26</ele>
        <time>2020-12-23T10:40:00.999Z</time>
      </trkpt>
      <trkpt lat="44.80405" lon="5.07601">
        <ele>949.85</ele>
        <time>2020-12-23T10:40:10.521Z</time>
      </trkpt>
      <trkpt lat="44.80397" lon="5.07598">
        <ele>949.45</ele>
        <time>2020-12-23T10:40:19.999Z</time>
      </trkpt>
      <trkpt lat="44.80388" lon="5.07587">
        <ele>950.35</ele>
        <time>2020-12-23T10:40:29.358Z</time>
      </trkpt>
      <trkpt lat="44.80383" lon="5.07578">
        <ele>950.36</ele>
        <time>2020-12-23T10:40:38.999Z</time>
      </trkpt>
      <trkpt lat="44.80376" lon="5.07582">
        <ele>948.98</ele>
        <time>2020-12-23T10:40:48.138Z</time>
      </trkpt>
      <trkpt lat="44.80373" lon="5.07583">
        <ele>947.43</ele>
        <time>2020-12-23T10:40:57.999Z</time>
      </trkpt>
      <trkpt lat="44.80359" lon="5.07579">
        <ele>947.11</ele>
        <time>2020-12-23T10:41:07.999Z</time>
      </trkpt>
      <trkpt lat="44.80346" lon="5.07578">
        <ele>946.49</ele>
        <time>2020-12-23T10:41:17.999Z</time>
      </trkpt>
      <trkpt lat="44.80335" lon="5.07575">
        <ele>945.74</ele>
        <time>2020-12-23T10:41:27.999Z</time>
      </trkpt>
      <trkpt lat="44.80324" lon="5.07573">
        <ele>944.83</ele>
        <time>2020-12-23T10:41:37.579Z</time>
      </trkpt>
      <trkpt lat="44.80317" lon="5.07571">
        <ele>944.11</ele>
        <time>2020-12-23T10:41:46.999Z</time>
      </trkpt>
      <trkpt lat="44.80309" lon="5.0758">
        <ele>941.14</ele>
        <time>2020-12-23T10:41:56.999Z</time>
      </trkpt>
      <trkpt lat="44.80299" lon="5.07575">
        <ele>940.51</ele>
        <time>2020-12-23T10:42:06.999Z</time>
      </trkpt>
      <trkpt lat="44.8029" lon="5.07566">
        <ele>939</ele>
        <time>2020-12-23T10:42:16.178Z</time>
      </trkpt>
      <trkpt lat="44.80281" lon="5.07558">
        <ele>938.11</ele>
        <time>2020-12-23T10:42:25.640Z</time>
      </trkpt>
      <trkpt lat="44.80274" lon="5.07556">
        <ele>937.87</ele>
        <time>2020-12-23T10:42:34.999Z</time>
      </trkpt>
      <trkpt lat="44.80266" lon="5.07554">
        <ele>937.82</ele>
        <time>2020-12-23T10:42:44.480Z</time>
      </trkpt>
      <trkpt lat="44.80257" lon="5.07551">
        <ele>937.44</ele>
        <time>2020-12-23T10:42:53.820Z</time>
      </trkpt>
      <trkpt lat="44.80252" lon="5.07547">
        <ele>936.94</ele>
        <time>2020-12-23T10:43:02.999Z</time>
      </trkpt>
      <trkpt lat="44.8025" lon="5.07546">
        <ele>936.35</ele>
        <time>2020-12-23T10:43:38.999Z</time>
      </trkpt>
      <trkpt lat="44.8024" lon="5.0755">
        <ele>935.3</ele>
        <time>2020-12-23T10:43:48.999Z</time>
      </trkpt>
      <trkpt lat="44.80227" lon="5.07549">
        <ele>934.28</ele>
        <time>2020-12-23T10:43:58.200Z</time>
      </trkpt>
      <trkpt lat="44.80222" lon="5.0754">
        <ele>934.82</ele>
        <time>2020-12-23T10:44:07.861Z</time>
      </trkpt>
      <trkpt lat="44.80214" lon="5.07537">
        <ele>933.8</ele>
        <time>2020-12-23T10:44:16.999Z</time>
      </trkpt>
      <trkpt lat="44.80204" lon="5.07535">
        <ele>932.21</ele>
        <time>2020-12-23T10:44:26.514Z</time>
      </trkpt>
      <trkpt lat="44.80199" lon="5.07532">
        <ele>931.8</ele>
        <time>2020-12-23T10:44:35.999Z</time>
      </trkpt>
      <trkpt lat="44.80197" lon="5.07533">
        <ele>931.02</ele>
        <time>2020-12-23T10:44:45.999Z</time>
      </trkpt>
      <trkpt lat="44.80192" lon="5.0753">
        <ele>930.34</ele>
        <time>2020-12-23T10:44:55.999Z</time>
      </trkpt>
      <trkpt lat="44.80185" lon="5.07534">
        <ele>928.5</ele>
        <time>2020-12-23T10:45:05.999Z</time>
      </trkpt>
      <trkpt lat="44.8018" lon="5.07535">
        <ele>927.71</ele>
        <time>2020-12-23T10:45:15.064Z</time>
      </trkpt>
      <trkpt lat="44.8017" lon="5.07538">
        <ele>924.91</ele>
        <time>2020-12-23T10:45:24.344Z</time>
      </trkpt>
      <trkpt lat="44.80167" lon="5.07542">
        <ele>922.56</ele>
        <time>2020-12-23T10:45:33.999Z</time>
      </trkpt>
      <trkpt lat="44.80166" lon="5.07541">
        <ele>920.01</ele>
        <time>2020-12-23T10:45:43.262Z</time>
      </trkpt>
      <trkpt lat="44.80155" lon="5.07539">
        <ele>917.87</ele>
        <time>2020-12-23T10:45:52.383Z</time>
      </trkpt>
      <trkpt lat="44.80145" lon="5.07539">
        <ele>915.12</ele>
        <time>2020-12-23T10:46:02.065Z</time>
      </trkpt>
      <trkpt lat="44.80134" lon="5.07539">
        <ele>911.88</ele>
        <time>2020-12-23T10:46:11.281Z</time>
      </trkpt>
      <trkpt lat="44.80127" lon="5.07547">
        <ele>909.42</ele>
        <time>2020-12-23T10:46:20.999Z</time>
      </trkpt>
      <trkpt lat="44.80116" lon="5.07539">
        <ele>907.6</ele>
        <time>2020-12-23T10:46:30.802Z</time>
      </trkpt>
      <trkpt lat="44.80107" lon="5.07537">
        <ele>905.76</ele>
        <time>2020-12-23T10:46:40.999Z</time>
      </trkpt>
      <trkpt lat="44.801" lon="5.07535">
        <ele>903.13</ele>
        <time>2020-12-23T10:46:50.783Z</time>
      </trkpt>
      <trkpt lat="44.80087" lon="5.0753">
        <ele>901.68</ele>
        <time>2020-12-23T10:47:00.999Z</time>
      </trkpt>
      <trkpt lat="44.80069" lon="5.07528">
        <ele>900.12</ele>
        <time>2020-12-23T10:47:10.999Z</time>
      </trkpt>
      <trkpt lat="44.8005" lon="5.07526">
        <ele>897.97</ele>
        <time>2020-12-23T10:47:20.999Z</time>
      </trkpt>
      <trkpt lat="44.80036" lon="5.07521">
        <ele>895.33</ele>
        <time>2020-12-23T10:47:30.565Z</time>
      </trkpt>
      <trkpt lat="44.80027" lon="5.07519">
        <ele>893.25</ele>
        <time>2020-12-23T10:47:39.999Z</time>
      </trkpt>
      <trkpt lat="44.80024" lon="5.07519">
        <ele>891.05</ele>
        <time>2020-12-23T10:47:49.999Z</time>
      </trkpt>
      <trkpt lat="44.80021" lon="5.0752">
        <ele>888.78</ele>
        <time>2020-12-23T10:47:59.527Z</time>
      </trkpt>
      <trkpt lat="44.80016" lon="5.07517">
        <ele>886.35</ele>
        <time>2020-12-23T10:48:08.999Z</time>
      </trkpt>
      <trkpt lat="44.80013" lon="5.07513">
        <ele>884.83</ele>
        <time>2020-12-23T10:48:18.999Z</time>
      </trkpt>
      <trkpt lat="44.8001" lon="5.07508">
        <ele>883.21</ele>
        <time>2020-12-23T10:48:28.999Z</time>
      </trkpt>
      <trkpt lat="44.79999" lon="5.07496">
        <ele>880.55</ele>
        <time>2020-12-23T10:48:38.133Z</time>
      </trkpt>
      <trkpt lat="44.79986" lon="5.07489">
        <ele>879.29</ele>
        <time>2020-12-23T10:48:47.577Z</time>
      </trkpt>
      <trkpt lat="44.79979" lon="5.07477">
        <ele>877.79</ele>
        <time>2020-12-23T10:48:56.655Z</time>
      </trkpt>
      <trkpt lat="44.79973" lon="5.07469">
        <ele>876.28</ele>
        <time>2020-12-23T10:49:05.999Z</time>
      </trkpt>
      <trkpt lat="44.79966" lon="5.07463">
        <ele>874.4</ele>
        <time>2020-12-23T10:49:15.695Z</time>
      </trkpt>
      <trkpt lat="44.79959" lon="5.0746">
        <ele>872.35</ele>
        <time>2020-12-23T10:49:24.999Z</time>
      </trkpt>
      <trkpt lat="44.79954" lon="5.07449">
        <ele>870.48</ele>
        <time>2020-12-23T10:49:34.999Z</time>
      </trkpt>
      <trkpt lat="44.79948" lon="5.07438">
        <ele>869.12</ele>
        <time>2020-12-23T10:49:44.999Z</time>
      </trkpt>
      <trkpt lat="44.79939" lon="5.07435">
        <ele>867.39</ele>
        <time>2020-12-23T10:49:54.999Z</time>
      </trkpt>
      <trkpt lat="44.79932" lon="5.07434">
        <ele>864.98</ele>
        <time>2020-12-23T10:50:04.999Z</time>
      </trkpt>
      <trkpt lat="44.79927" lon="5.07431">
        <ele>863.44</ele>
        <time>2020-12-23T10:50:14.203Z</time>
      </trkpt>
      <trkpt lat="44.79922" lon="5.07427">
        <ele>861.47</ele>
        <time>2020-12-23T10:50:23.999Z</time>
      </trkpt>
      <trkpt lat="44.79918" lon="5.07423">
        <ele>858.5</ele>
        <time>2020-12-23T10:50:33.403Z</time>
      </trkpt>
      <trkpt lat="44.79907" lon="5.07418">
        <ele>856.78</ele>
        <time>2020-12-23T10:50:42.494Z</time>
      </trkpt>
      <trkpt lat="44.799" lon="5.07423">
        <ele>854.51</ele>
        <time>2020-12-23T10:50:51.999Z</time>
      </trkpt>
      <trkpt lat="44.79893" lon="5.07426">
        <ele>852.58</ele>
        <time>2020-12-23T10:51:01.000Z</time>
      </trkpt>
      <trkpt lat="44.79884" lon="5.07417">
        <ele>851.19</ele>
        <time>2020-12-23T10:51:10.057Z</time>
      </trkpt>
      <trkpt lat="44.79877" lon="5.07415">
        <ele>849.82</ele>
        <time>2020-12-23T10:51:20.000Z</time>
      </trkpt>
      <trkpt lat="44.79869" lon="5.07422">
        <ele>848.26</ele>
        <time>2020-12-23T10:51:30.000Z</time>
      </trkpt>
      <trkpt lat="44.79867" lon="5.07422">
        <ele>848.09</ele>
        <time>2020-12-23T10:51:40.000Z</time>
      </trkpt>
      <trkpt lat="44.79864" lon="5.07423">
        <ele>847.29</ele>
        <time>2020-12-23T10:51:49.512Z</time>
      </trkpt>
      <trkpt lat="44.79854" lon="5.07425">
        <ele>846.46</ele>
        <time>2020-12-23T10:51:58.794Z</time>
      </trkpt>
      <trkpt lat="44.79842" lon="5.07427">
        <ele>845.76</ele>
        <time>2020-12-23T10:52:08.204Z</time>
      </trkpt>
      <trkpt lat="44.79837" lon="5.07428">
        <ele>843.59</ele>
        <time>2020-12-23T10:52:17.665Z</time>
      </trkpt>
      <trkpt lat="44.79825" lon="5.07435">
        <ele>843.03</ele>
        <time>2020-12-23T10:52:27.000Z</time>
      </trkpt>
      <trkpt lat="44.79813" lon="5.07441">
        <ele>842.6</ele>
        <time>2020-12-23T10:52:36.476Z</time>
      </trkpt>
      <trkpt lat="44.79803" lon="5.07443">
        <ele>841.57</ele>
        <time>2020-12-23T10:52:46.000Z</time>
      </trkpt>
      <trkpt lat="44.79798" lon="5.07442">
        <ele>839.91</ele>
        <time>2020-12-23T10:52:55.377Z</time>
      </trkpt>
      <trkpt lat="44.79795" lon="5.0744">
        <ele>837.85</ele>
        <time>2020-12-23T10:53:05.000Z</time>
      </trkpt>
      <trkpt lat="44.7979" lon="5.07437">
        <ele>836.43</ele>
        <time>2020-12-23T10:53:15.000Z</time>
      </trkpt>
      <trkpt lat="44.79785" lon="5.07433">
        <ele>835.76</ele>
        <time>2020-12-23T10:53:25.000Z</time>
      </trkpt>
      <trkpt lat="44.7978" lon="5.07431">
        <ele>835.93</ele>
        <time>2020-12-23T10:53:35.000Z</time>
      </trkpt>
      <trkpt lat="44.79775" lon="5.0743">
        <ele>835.88</ele>
        <time>2020-12-23T10:53:45.000Z</time>
      </trkpt>
      <trkpt lat="44.79774" lon="5.0743">
        <ele>835.83</ele>
        <time>2020-12-23T10:53:57.000Z</time>
      </trkpt>
      <trkpt lat="44.79772" lon="5.07428">
        <ele>835.04</ele>
        <time>2020-12-23T10:54:14.000Z</time>
      </trkpt>
      <trkpt lat="44.79768" lon="5.07425">
        <ele>834.73</ele>
        <time>2020-12-23T10:54:24.000Z</time>
      </trkpt>
      <trkpt lat="44.79761" lon="5.0742">
        <ele>834.2</ele>
        <time>2020-12-23T10:54:33.257Z</time>
      </trkpt>
      <trkpt lat="44.79751" lon="5.0741">
        <ele>833.73</ele>
        <time>2020-12-23T10:54:43.000Z</time>
      </trkpt>
      <trkpt lat="44.79738" lon="5.07397">
        <ele>832.35</ele>
        <time>2020-12-23T10:54:53.000Z</time>
      </trkpt>
      <trkpt lat="44.79735" lon="5.07394">
        <ele>832.04</ele>
        <time>2020-12-23T10:55:03.000Z</time>
      </trkpt>
      <trkpt lat="44.7973" lon="5.07393">
        <ele>831.96</ele>
        <time>2020-12-23T10:55:12.038Z</time>
      </trkpt>
      <trkpt lat="44.79725" lon="5.07387">
        <ele>830.73</ele>
        <time>2020-12-23T10:55:21.597Z</time>
      </trkpt>
      <trkpt lat="44.79722" lon="5.07383">
        <ele>829.01</ele>
        <time>2020-12-23T10:55:30.598Z</time>
      </trkpt>
      <trkpt lat="44.7971" lon="5.07364">
        <ele>827.86</ele>
        <time>2020-12-23T10:55:39.717Z</time>
      </trkpt>
      <trkpt lat="44.797" lon="5.07352">
        <ele>826.63</ele>
        <time>2020-12-23T10:55:49.000Z</time>
      </trkpt>
      <trkpt lat="44.79689" lon="5.07343">
        <ele>825.37</ele>
        <time>2020-12-23T10:55:58.016Z</time>
      </trkpt>
      <trkpt lat="44.79682" lon="5.07344">
        <ele>824.04</ele>
        <time>2020-12-23T10:56:08.000Z</time>
      </trkpt>
      <trkpt lat="44.79672" lon="5.0734">
        <ele>823.49</ele>
        <time>2020-12-23T10:56:17.437Z</time>
      </trkpt>
      <trkpt lat="44.79666" lon="5.07334">
        <ele>823.7</ele>
        <time>2020-12-23T10:56:26.919Z</time>
      </trkpt>
      <trkpt lat="44.79659" lon="5.07332">
        <ele>823.31</ele>
        <time>2020-12-23T10:56:36.000Z</time>
      </trkpt>
      <trkpt lat="44.79644" lon="5.07331">
        <ele>822.32</ele>
        <time>2020-12-23T10:56:45.420Z</time>
      </trkpt>
      <trkpt lat="44.79635" lon="5.07327">
        <ele>822.06</ele>
        <time>2020-12-23T10:56:55.000Z</time>
      </trkpt>
      <trkpt lat="44.79633" lon="5.07327">
        <ele>821.96</ele>
        <time>2020-12-23T10:57:05.000Z</time>
      </trkpt>
      <trkpt lat="44.79631" lon="5.07323">
        <ele>822.25</ele>
        <time>2020-12-23T10:57:15.000Z</time>
      </trkpt>
      <trkpt lat="44.79626" lon="5.07314">
        <ele>822.84</ele>
        <time>2020-12-23T10:57:26.000Z</time>
      </trkpt>
      <trkpt lat="44.79616" lon="5.07304">
        <ele>821.1</ele>
        <time>2020-12-23T10:57:36.000Z</time>
      </trkpt>
      <trkpt lat="44.79608" lon="5.07291">
        <ele>820.24</ele>
        <time>2020-12-23T10:57:45.520Z</time>
      </trkpt>
      <trkpt lat="44.79605" lon="5.07285">
        <ele>819.51</ele>
        <time>2020-12-23T10:57:54.540Z</time>
      </trkpt>
      <trkpt lat="44.79597" lon="5.07278">
        <ele>819.06</ele>
        <time>2020-12-23T10:58:04.000Z</time>
      </trkpt>
      <trkpt lat="44.79587" lon="5.0727">
        <ele>817.66</ele>
        <time>2020-12-23T10:58:13.179Z</time>
      </trkpt>
      <trkpt lat="44.7958" lon="5.07264">
        <ele>816.76</ele>
        <time>2020-12-23T10:58:23.000Z</time>
      </trkpt>
      <trkpt lat="44.7957" lon="5.0726">
        <ele>815.46</ele>
        <time>2020-12-23T10:58:32.079Z</time>
      </trkpt>
      <trkpt lat="44.79561" lon="5.07252">
        <ele>814.54</ele>
        <time>2020-12-23T10:58:41.378Z</time>
      </trkpt>
      <trkpt lat="44.79551" lon="5.07244">
        <ele>813.68</ele>
        <time>2020-12-23T10:58:52.000Z</time>
      </trkpt>
      <trkpt lat="44.79546" lon="5.0724">
        <ele>812.98</ele>
        <time>2020-12-23T10:59:01.299Z</time>
      </trkpt>
      <trkpt lat="44.79543" lon="5.07239">
        <ele>813.18</ele>
        <time>2020-12-23T10:59:11.000Z</time>
      </trkpt>
      <trkpt lat="44.79536" lon="5.07233">
        <ele>813.46</ele>
        <time>2020-12-23T10:59:21.000Z</time>
      </trkpt>
      <trkpt lat="44.79525" lon="5.07216">
        <ele>813.86</ele>
        <time>2020-12-23T10:59:31.000Z</time>
      </trkpt>
      <trkpt lat="44.79513" lon="5.07195">
        <ele>813.9</ele>
        <time>2020-12-23T10:59:41.000Z</time>
      </trkpt>
      <trkpt lat="44.79507" lon="5.07178">
        <ele>814.62</ele>
        <time>2020-12-23T10:59:50.620Z</time>
      </trkpt>
      <trkpt lat="44.79505" lon="5.07164">
        <ele>814.97</ele>
        <time>2020-12-23T10:59:59.781Z</time>
      </trkpt>
      <trkpt lat="44.79505" lon="5.07161">
        <ele>814.88</ele>
        <time>2020-12-23T11:00:17.000Z</time>
      </trkpt>
      <trkpt lat="44.79505" lon="5.07153">
        <ele>814.8</ele>
        <time>2020-12-23T11:00:27.000Z</time>
      </trkpt>
      <trkpt lat="44.79504" lon="5.07151">
        <ele>815.13</ele>
        <time>2020-12-23T11:00:37.000Z</time>
      </trkpt>
      <trkpt lat="44.79503" lon="5.07153">
        <ele>815.19</ele>
        <time>2020-12-23T11:00:53.000Z</time>
      </trkpt>
      <trkpt lat="44.79502" lon="5.07155">
        <ele>815.26</ele>
        <time>2020-12-23T11:01:03.000Z</time>
      </trkpt>
      <trkpt lat="44.79503" lon="5.07157">
        <ele>815.27</ele>
        <time>2020-12-23T11:01:13.516Z</time>
      </trkpt>
      <trkpt lat="44.7951" lon="5.07162">
        <ele>815.05</ele>
        <time>2020-12-23T11:01:23.000Z</time>
      </trkpt>
      <trkpt lat="44.79508" lon="5.07157">
        <ele>815.08</ele>
        <time>2020-12-23T11:01:32.035Z</time>
      </trkpt>
      <trkpt lat="44.79502" lon="5.07154">
        <ele>815.92</ele>
        <time>2020-12-23T11:01:42.000Z</time>
      </trkpt>
      <trkpt lat="44.79504" lon="5.07156">
        <ele>815.72</ele>
        <time>2020-12-23T11:01:55.000Z</time>
      </trkpt>
      <trkpt lat="44.79509" lon="5.07158">
        <ele>815.58</ele>
        <time>2020-12-23T11:02:04.877Z</time>
      </trkpt>
      <trkpt lat="44.79509" lon="5.07161">
        <ele>815.62</ele>
        <time>2020-12-23T11:02:14.000Z</time>
      </trkpt>
      <trkpt lat="44.79507" lon="5.07161">
        <ele>815.14</ele>
        <time>2020-12-23T11:02:32.000Z</time>
      </trkpt>
      <trkpt lat="44.79506" lon="5.07162">
        <ele>815.1</ele>
        <time>2020-12-23T11:02:42.999Z</time>
      </trkpt>
      <trkpt lat="44.79506" lon="5.07165">
        <ele>815.52</ele>
        <time>2020-12-23T11:03:44.999Z</time>
      </trkpt>
      <trkpt lat="44.79506" lon="5.07162">
        <ele>815.55</ele>
        <time>2020-12-23T11:04:38.999Z</time>
      </trkpt>
      <trkpt lat="44.79506" lon="5.0716">
        <ele>815.2</ele>
        <time>2020-12-23T11:05:28.999Z</time>
      </trkpt>
      <trkpt lat="44.79508" lon="5.0716">
        <ele>815.79</ele>
        <time>2020-12-23T11:06:09.999Z</time>
      </trkpt>
      <trkpt lat="44.79506" lon="5.07161">
        <ele>816.57</ele>
        <time>2020-12-23T11:06:44.999Z</time>
      </trkpt>
      <trkpt lat="44.79504" lon="5.07163">
        <ele>816.39</ele>
        <time>2020-12-23T11:06:54.999Z</time>
      </trkpt>
      <trkpt lat="44.79503" lon="5.0716">
        <ele>816.65</ele>
        <time>2020-12-23T11:08:47.999Z</time>
      </trkpt>
      <trkpt lat="44.79505" lon="5.0716">
        <ele>816.69</ele>
        <time>2020-12-23T11:09:21.999Z</time>
      </trkpt>
      <trkpt lat="44.79506" lon="5.07163">
        <ele>817.36</ele>
        <time>2020-12-23T11:09:55.999Z</time>
      </trkpt>
      <trkpt lat="44.79507" lon="5.07161">
        <ele>818.28</ele>
        <time>2020-12-23T11:12:24.999Z</time>
      </trkpt>
      <trkpt lat="44.79508" lon="5.07163">
        <ele>818.49</ele>
        <time>2020-12-23T11:12:58.999Z</time>
      </trkpt>
      <trkpt lat="44.79509" lon="5.07166">
        <ele>819.18</ele>
        <time>2020-12-23T11:14:12.999Z</time>
      </trkpt>
      <trkpt lat="44.7951" lon="5.07164">
        <ele>820.04</ele>
        <time>2020-12-23T11:15:39.000Z</time>
      </trkpt>
      <trkpt lat="44.79511" lon="5.07162">
        <ele>819.83</ele>
        <time>2020-12-23T11:16:15.000Z</time>
      </trkpt>
      <trkpt lat="44.7951" lon="5.07163">
        <ele>819.91</ele>
        <time>2020-12-23T11:17:13.000Z</time>
      </trkpt>
      <trkpt lat="44.79508" lon="5.07162">
        <ele>819.84</ele>
        <time>2020-12-23T11:17:29.000Z</time>
      </trkpt>
      <trkpt lat="44.79507" lon="5.0716">
        <ele>819.86</ele>
        <time>2020-12-23T11:17:39.000Z</time>
      </trkpt>
      <trkpt lat="44.79506" lon="5.07162">
        <ele>819.41</ele>
        <time>2020-12-23T11:18:56.000Z</time>
      </trkpt>
      <trkpt lat="44.79507" lon="5.0716">
        <ele>819.46</ele>
        <time>2020-12-23T11:20:32.000Z</time>
      </trkpt>
      <trkpt lat="44.79507" lon="5.07162">
        <ele>819.75</ele>
        <time>2020-12-23T11:22:56.000Z</time>
      </trkpt>
      <trkpt lat="44.79507" lon="5.07165">
        <ele>819.97</ele>
        <time>2020-12-23T11:23:42.000Z</time>
      </trkpt>
      <trkpt lat="44.79506" lon="5.07163">
        <ele>819.95</ele>
        <time>2020-12-23T11:26:14.999Z</time>
      </trkpt>
      <trkpt lat="44.79508" lon="5.07163">
        <ele>820.34</ele>
        <time>2020-12-23T11:27:59.999Z</time>
      </trkpt>
      <trkpt lat="44.79509" lon="5.07165">
        <ele>820.36</ele>
        <time>2020-12-23T11:28:25.999Z</time>
      </trkpt>
      <trkpt lat="44.79508" lon="5.07163">
        <ele>821.55</ele>
        <time>2020-12-23T11:28:57.999Z</time>
      </trkpt>
      <trkpt lat="44.79507" lon="5.07161">
        <ele>821.13</ele>
        <time>2020-12-23T11:29:22.999Z</time>
      </trkpt>
      <trkpt lat="44.79506" lon="5.07159">
        <ele>821.53</ele>
        <time>2020-12-23T11:29:50.999Z</time>
      </trkpt>
      <trkpt lat="44.79507" lon="5.07157">
        <ele>821.32</ele>
        <time>2020-12-23T11:30:07.835Z</time>
      </trkpt>
      <trkpt lat="44.79508" lon="5.07155">
        <ele>821.54</ele>
        <time>2020-12-23T11:30:28.999Z</time>
      </trkpt>
      <trkpt lat="44.79509" lon="5.07157">
        <ele>820.85</ele>
        <time>2020-12-23T11:30:48.999Z</time>
      </trkpt>
      <trkpt lat="44.79507" lon="5.07157">
        <ele>821.09</ele>
        <time>2020-12-23T11:30:58.999Z</time>
      </trkpt>
      <trkpt lat="44.79509" lon="5.07154">
        <ele>822.04</ele>
        <time>2020-12-23T11:31:08.999Z</time>
      </trkpt>
      <trkpt lat="44.79507" lon="5.07153">
        <ele>821.58</ele>
        <time>2020-12-23T11:31:23.999Z</time>
      </trkpt>
      <trkpt lat="44.79506" lon="5.07152">
        <ele>821.55</ele>
        <time>2020-12-23T11:31:36.999Z</time>
      </trkpt>
      <trkpt lat="44.795" lon="5.07151">
        <ele>821.88</ele>
        <time>2020-12-23T11:31:46.758Z</time>
      </trkpt>
      <trkpt lat="44.79501" lon="5.07156">
        <ele>821.95</ele>
        <time>2020-12-23T11:31:55.999Z</time>
      </trkpt>
      <trkpt lat="44.795" lon="5.07154">
        <ele>821.81</ele>
        <time>2020-12-23T11:32:16.999Z</time>
      </trkpt>
      <trkpt lat="44.79501" lon="5.07151">
        <ele>822.02</ele>
        <time>2020-12-23T11:32:30.999Z</time>
      </trkpt>
      <trkpt lat="44.79503" lon="5.07147">
        <ele>821.91</ele>
        <time>2020-12-23T11:32:41.018Z</time>
      </trkpt>
      <trkpt lat="44.79505" lon="5.07145">
        <ele>821.71</ele>
        <time>2020-12-23T11:32:54.999Z</time>
      </trkpt>
      <trkpt lat="44.79512" lon="5.07139">
        <ele>821.2</ele>
        <time>2020-12-23T11:33:04.999Z</time>
      </trkpt>
      <trkpt lat="44.79515" lon="5.07126">
        <ele>820.95</ele>
        <time>2020-12-23T11:33:14.999Z</time>
      </trkpt>
      <trkpt lat="44.79515" lon="5.07109">
        <ele>822.28</ele>
        <time>2020-12-23T11:33:25.999Z</time>
      </trkpt>
      <trkpt lat="44.79519" lon="5.07111">
        <ele>822.79</ele>
        <time>2020-12-23T11:33:35.899Z</time>
      </trkpt>
      <trkpt lat="44.79525" lon="5.07116">
        <ele>824.08</ele>
        <time>2020-12-23T11:33:44.999Z</time>
      </trkpt>
      <trkpt lat="44.79529" lon="5.07123">
        <ele>825.39</ele>
        <time>2020-12-23T11:33:54.999Z</time>
      </trkpt>
      <trkpt lat="44.79536" lon="5.07132">
        <ele>828.09</ele>
        <time>2020-12-23T11:34:04.999Z</time>
      </trkpt>
      <trkpt lat="44.79538" lon="5.07133">
        <ele>827.9</ele>
        <time>2020-12-23T11:34:14.999Z</time>
      </trkpt>
      <trkpt lat="44.79542" lon="5.07134">
        <ele>829.79</ele>
        <time>2020-12-23T11:34:24.641Z</time>
      </trkpt>
      <trkpt lat="44.7955" lon="5.07138">
        <ele>830.62</ele>
        <time>2020-12-23T11:34:33.999Z</time>
      </trkpt>
      <trkpt lat="44.79561" lon="5.07141">
        <ele>831.32</ele>
        <time>2020-12-23T11:34:43.999Z</time>
      </trkpt>
      <trkpt lat="44.79567" lon="5.07145">
        <ele>832.08</ele>
        <time>2020-12-23T11:34:53.999Z</time>
      </trkpt>
      <trkpt lat="44.79569" lon="5.07147">
        <ele>833.45</ele>
        <time>2020-12-23T11:35:03.481Z</time>
      </trkpt>
      <trkpt lat="44.79578" lon="5.07154">
        <ele>833.92</ele>
        <time>2020-12-23T11:35:12.521Z</time>
      </trkpt>
      <trkpt lat="44.79585" lon="5.07159">
        <ele>835.38</ele>
        <time>2020-12-23T11:35:21.942Z</time>
      </trkpt>
      <trkpt lat="44.79594" lon="5.07173">
        <ele>836</ele>
        <time>2020-12-23T11:35:30.999Z</time>
      </trkpt>
      <trkpt lat="44.79603" lon="5.07176">
        <ele>837.6</ele>
        <time>2020-12-23T11:35:40.999Z</time>
      </trkpt>
      <trkpt lat="44.79614" lon="5.0718">
        <ele>839.06</ele>
        <time>2020-12-23T11:35:50.583Z</time>
      </trkpt>
      <trkpt lat="44.79623" lon="5.07186">
        <ele>839.88</ele>
        <time>2020-12-23T11:35:59.585Z</time>
      </trkpt>
      <trkpt lat="44.79632" lon="5.07193">
        <ele>840.22</ele>
        <time>2020-12-23T11:36:09.162Z</time>
      </trkpt>
      <trkpt lat="44.79634" lon="5.07195">
        <ele>841.31</ele>
        <time>2020-12-23T11:36:18.999Z</time>
      </trkpt>
      <trkpt lat="44.79639" lon="5.07194">
        <ele>842.9</ele>
        <time>2020-12-23T11:36:28.485Z</time>
      </trkpt>
      <trkpt lat="44.79648" lon="5.07192">
        <ele>844.93</ele>
        <time>2020-12-23T11:36:37.984Z</time>
      </trkpt>
      <trkpt lat="44.79651" lon="5.07191">
        <ele>846.3</ele>
        <time>2020-12-23T11:36:46.999Z</time>
      </trkpt>
      <trkpt lat="44.79654" lon="5.07193">
        <ele>847.15</ele>
        <time>2020-12-23T11:36:56.544Z</time>
      </trkpt>
      <trkpt lat="44.79673" lon="5.07198">
        <ele>847.78</ele>
        <time>2020-12-23T11:37:06.184Z</time>
      </trkpt>
      <trkpt lat="44.79693" lon="5.07202">
        <ele>848.18</ele>
        <time>2020-12-23T11:37:16.013Z</time>
      </trkpt>
      <trkpt lat="44.79698" lon="5.07209">
        <ele>847.82</ele>
        <time>2020-12-23T11:37:25.286Z</time>
      </trkpt>
      <trkpt lat="44.79704" lon="5.07212">
        <ele>847.3</ele>
        <time>2020-12-23T11:37:34.403Z</time>
      </trkpt>
      <trkpt lat="44.79709" lon="5.07215">
        <ele>845.15</ele>
        <time>2020-12-23T11:37:44.000Z</time>
      </trkpt>
      <trkpt lat="44.79719" lon="5.07218">
        <ele>842.73</ele>
        <time>2020-12-23T11:37:54.000Z</time>
      </trkpt>
      <trkpt lat="44.79729" lon="5.07222">
        <ele>839.92</ele>
        <time>2020-12-23T11:38:03.732Z</time>
      </trkpt>
      <trkpt lat="44.79731" lon="5.07225">
        <ele>837.18</ele>
        <time>2020-12-23T11:38:13.000Z</time>
      </trkpt>
      <trkpt lat="44.79738" lon="5.07234">
        <ele>834.08</ele>
        <time>2020-12-23T11:38:22.323Z</time>
      </trkpt>
      <trkpt lat="44.79746" lon="5.07242">
        <ele>832.67</ele>
        <time>2020-12-23T11:38:31.624Z</time>
      </trkpt>
      <trkpt lat="44.7975" lon="5.07245">
        <ele>830.37</ele>
        <time>2020-12-23T11:38:40.736Z</time>
      </trkpt>
      <trkpt lat="44.79761" lon="5.0725">
        <ele>828.4</ele>
        <time>2020-12-23T11:38:50.123Z</time>
      </trkpt>
      <trkpt lat="44.79773" lon="5.07263">
        <ele>825.57</ele>
        <time>2020-12-23T11:39:00.000Z</time>
      </trkpt>
      <trkpt lat="44.79784" lon="5.07277">
        <ele>823.32</ele>
        <time>2020-12-23T11:39:09.704Z</time>
      </trkpt>
      <trkpt lat="44.79795" lon="5.0728">
        <ele>820.91</ele>
        <time>2020-12-23T11:39:18.904Z</time>
      </trkpt>
      <trkpt lat="44.79802" lon="5.07284">
        <ele>817.7</ele>
        <time>2020-12-23T11:39:27.923Z</time>
      </trkpt>
      <trkpt lat="44.79811" lon="5.07291">
        <ele>815.39</ele>
        <time>2020-12-23T11:39:37.564Z</time>
      </trkpt>
      <trkpt lat="44.79821" lon="5.07296">
        <ele>813.61</ele>
        <time>2020-12-23T11:39:46.965Z</time>
      </trkpt>
      <trkpt lat="44.79828" lon="5.07296">
        <ele>811.86</ele>
        <time>2020-12-23T11:39:56.000Z</time>
      </trkpt>
      <trkpt lat="44.79836" lon="5.07294">
        <ele>809.29</ele>
        <time>2020-12-23T11:40:05.122Z</time>
      </trkpt>
      <trkpt lat="44.79846" lon="5.07295">
        <ele>807.09</ele>
        <time>2020-12-23T11:40:15.000Z</time>
      </trkpt>
      <trkpt lat="44.79857" lon="5.07295">
        <ele>803.74</ele>
        <time>2020-12-23T11:40:25.000Z</time>
      </trkpt>
      <trkpt lat="44.79874" lon="5.0729">
        <ele>800.49</ele>
        <time>2020-12-23T11:40:34.804Z</time>
      </trkpt>
      <trkpt lat="44.79885" lon="5.07288">
        <ele>797.47</ele>
        <time>2020-12-23T11:40:44.142Z</time>
      </trkpt>
      <trkpt lat="44.79888" lon="5.07289">
        <ele>794.76</ele>
        <time>2020-12-23T11:40:54.000Z</time>
      </trkpt>
      <trkpt lat="44.79894" lon="5.07287">
        <ele>791.53</ele>
        <time>2020-12-23T11:41:04.000Z</time>
      </trkpt>
      <trkpt lat="44.79913" lon="5.07283">
        <ele>788.16</ele>
        <time>2020-12-23T11:41:13.542Z</time>
      </trkpt>
      <trkpt lat="44.79921" lon="5.07279">
        <ele>785.38</ele>
        <time>2020-12-23T11:41:23.000Z</time>
      </trkpt>
      <trkpt lat="44.79926" lon="5.07277">
        <ele>782.22</ele>
        <time>2020-12-23T11:41:32.303Z</time>
      </trkpt>
      <trkpt lat="44.79932" lon="5.07274">
        <ele>779.49</ele>
        <time>2020-12-23T11:41:41.783Z</time>
      </trkpt>
      <trkpt lat="44.79944" lon="5.07272">
        <ele>775.89</ele>
        <time>2020-12-23T11:41:52.000Z</time>
      </trkpt>
      <trkpt lat="44.79957" lon="5.07269">
        <ele>772.4</ele>
        <time>2020-12-23T11:42:01.016Z</time>
      </trkpt>
      <trkpt lat="44.79972" lon="5.07262">
        <ele>768.74</ele>
        <time>2020-12-23T11:42:10.335Z</time>
      </trkpt>
      <trkpt lat="44.79984" lon="5.07259">
        <ele>765.21</ele>
        <time>2020-12-23T11:42:19.716Z</time>
      </trkpt>
      <trkpt lat="44.79988" lon="5.07257">
        <ele>762.09</ele>
        <time>2020-12-23T11:42:30.000Z</time>
      </trkpt>
      <trkpt lat="44.79998" lon="5.07251">
        <ele>758.87</ele>
        <time>2020-12-23T11:42:39.335Z</time>
      </trkpt>
      <trkpt lat="44.80011" lon="5.07248">
        <ele>755.48</ele>
        <time>2020-12-23T11:42:49.000Z</time>
      </trkpt>
      <trkpt lat="44.80021" lon="5.07241">
        <ele>751.78</ele>
        <time>2020-12-23T11:42:58.059Z</time>
      </trkpt>
      <trkpt lat="44.80035" lon="5.07234">
        <ele>749.21</ele>
        <time>2020-12-23T11:43:08.000Z</time>
      </trkpt>
      <trkpt lat="44.80048" lon="5.07226">
        <ele>746.15</ele>
        <time>2020-12-23T11:43:17.418Z</time>
      </trkpt>
      <trkpt lat="44.80057" lon="5.07218">
        <ele>743.93</ele>
        <time>2020-12-23T11:43:26.817Z</time>
      </trkpt>
      <trkpt lat="44.80061" lon="5.07213">
        <ele>743.22</ele>
        <time>2020-12-23T11:43:36.617Z</time>
      </trkpt>
      <trkpt lat="44.80067" lon="5.07206">
        <ele>741.69</ele>
        <time>2020-12-23T11:43:46.000Z</time>
      </trkpt>
      <trkpt lat="44.80083" lon="5.07202">
        <ele>739.51</ele>
        <time>2020-12-23T11:43:56.000Z</time>
      </trkpt>
      <trkpt lat="44.80096" lon="5.07198">
        <ele>736.21</ele>
        <time>2020-12-23T11:44:05.037Z</time>
      </trkpt>
      <trkpt lat="44.80105" lon="5.07189">
        <ele>733.03</ele>
        <time>2020-12-23T11:44:14.095Z</time>
      </trkpt>
      <trkpt lat="44.80118" lon="5.07182">
        <ele>729.47</ele>
        <time>2020-12-23T11:44:23.837Z</time>
      </trkpt>
      <trkpt lat="44.80131" lon="5.07176">
        <ele>726.33</ele>
        <time>2020-12-23T11:44:33.000Z</time>
      </trkpt>
      <trkpt lat="44.80148" lon="5.07173">
        <ele>722.41</ele>
        <time>2020-12-23T11:44:43.000Z</time>
      </trkpt>
      <trkpt lat="44.80168" lon="5.07165">
        <ele>718.81</ele>
        <time>2020-12-23T11:44:52.578Z</time>
      </trkpt>
      <trkpt lat="44.80182" lon="5.07159">
        <ele>716.6</ele>
        <time>2020-12-23T11:45:01.996Z</time>
      </trkpt>
      <trkpt lat="44.80194" lon="5.07157">
        <ele>715.46</ele>
        <time>2020-12-23T11:45:11.056Z</time>
      </trkpt>
      <trkpt lat="44.80205" lon="5.07154">
        <ele>713.75</ele>
        <time>2020-12-23T11:45:21.000Z</time>
      </trkpt>
      <trkpt lat="44.80219" lon="5.07144">
        <ele>711.11</ele>
        <time>2020-12-23T11:45:31.000Z</time>
      </trkpt>
      <trkpt lat="44.80235" lon="5.07135">
        <ele>708.43</ele>
        <time>2020-12-23T11:45:40.635Z</time>
      </trkpt>
      <trkpt lat="44.80248" lon="5.0713">
        <ele>706.26</ele>
        <time>2020-12-23T11:45:49.996Z</time>
      </trkpt>
      <trkpt lat="44.80261" lon="5.07124">
        <ele>703.91</ele>
        <time>2020-12-23T11:45:59.000Z</time>
      </trkpt>
      <trkpt lat="44.80274" lon="5.07116">
        <ele>700.7</ele>
        <time>2020-12-23T11:46:09.000Z</time>
      </trkpt>
      <trkpt lat="44.80288" lon="5.07112">
        <ele>697.38</ele>
        <time>2020-12-23T11:46:19.000Z</time>
      </trkpt>
      <trkpt lat="44.80304" lon="5.071">
        <ele>694.86</ele>
        <time>2020-12-23T11:46:28.078Z</time>
      </trkpt>
      <trkpt lat="44.80317" lon="5.0709">
        <ele>692.42</ele>
        <time>2020-12-23T11:46:38.000Z</time>
      </trkpt>
      <trkpt lat="44.80334" lon="5.07084">
        <ele>689.41</ele>
        <time>2020-12-23T11:46:48.000Z</time>
      </trkpt>
      <trkpt lat="44.80348" lon="5.07081">
        <ele>686.7</ele>
        <time>2020-12-23T11:46:57.457Z</time>
      </trkpt>
      <trkpt lat="44.80359" lon="5.0708">
        <ele>683.74</ele>
        <time>2020-12-23T11:47:08.000Z</time>
      </trkpt>
      <trkpt lat="44.80373" lon="5.07073">
        <ele>680.5</ele>
        <time>2020-12-23T11:47:18.000Z</time>
      </trkpt>
      <trkpt lat="44.80388" lon="5.0706">
        <ele>676.7</ele>
        <time>2020-12-23T11:47:27.360Z</time>
      </trkpt>
      <trkpt lat="44.80399" lon="5.07048">
        <ele>672.63</ele>
        <time>2020-12-23T11:47:37.000Z</time>
      </trkpt>
      <trkpt lat="44.80408" lon="5.07033">
        <ele>669.17</ele>
        <time>2020-12-23T11:47:47.000Z</time>
      </trkpt>
      <trkpt lat="44.80421" lon="5.07026">
        <ele>665.93</ele>
        <time>2020-12-23T11:47:57.000Z</time>
      </trkpt>
      <trkpt lat="44.80435" lon="5.07024">
        <ele>663.32</ele>
        <time>2020-12-23T11:48:07.000Z</time>
      </trkpt>
      <trkpt lat="44.8045" lon="5.07016">
        <ele>659.99</ele>
        <time>2020-12-23T11:48:17.000Z</time>
      </trkpt>
      <trkpt lat="44.80466" lon="5.07008">
        <ele>657.57</ele>
        <time>2020-12-23T11:48:26.079Z</time>
      </trkpt>
      <trkpt lat="44.80477" lon="5.07001">
        <ele>653.67</ele>
        <time>2020-12-23T11:48:35.739Z</time>
      </trkpt>
      <trkpt lat="44.80488" lon="5.06994">
        <ele>650.46</ele>
        <time>2020-12-23T11:48:45.000Z</time>
      </trkpt>
      <trkpt lat="44.80502" lon="5.06983">
        <ele>647.59</ele>
        <time>2020-12-23T11:48:54.024Z</time>
      </trkpt>
      <trkpt lat="44.80501" lon="5.06986">
        <ele>646.91</ele>
        <time>2020-12-23T11:49:05.000Z</time>
      </trkpt>
      <trkpt lat="44.80501" lon="5.06988">
        <ele>646.44</ele>
        <time>2020-12-23T11:49:33.999Z</time>
      </trkpt>
      <trkpt lat="44.80501" lon="5.06986">
        <ele>647.12</ele>
        <time>2020-12-23T11:50:01.999Z</time>
      </trkpt>
      <trkpt lat="44.80501" lon="5.0698">
        <ele>646.42</ele>
        <time>2020-12-23T11:50:12.999Z</time>
      </trkpt>
      <trkpt lat="44.80506" lon="5.06973">
        <ele>645.56</ele>
        <time>2020-12-23T11:50:22.999Z</time>
      </trkpt>
      <trkpt lat="44.80506" lon="5.0697">
        <ele>645.68</ele>
        <time>2020-12-23T11:50:38.999Z</time>
      </trkpt>
      <trkpt lat="44.80508" lon="5.06969">
        <ele>644.38</ele>
        <time>2020-12-23T11:50:53.999Z</time>
      </trkpt>
      <trkpt lat="44.80508" lon="5.06966">
        <ele>644.14</ele>
        <time>2020-12-23T11:51:06.999Z</time>
      </trkpt>
      <trkpt lat="44.80514" lon="5.06956">
        <ele>641.87</ele>
        <time>2020-12-23T11:51:16.280Z</time>
      </trkpt>
      <trkpt lat="44.80525" lon="5.06949">
        <ele>639.12</ele>
        <time>2020-12-23T11:51:25.641Z</time>
      </trkpt>
      <trkpt lat="44.80534" lon="5.06944">
        <ele>636.98</ele>
        <time>2020-12-23T11:51:34.999Z</time>
      </trkpt>
      <trkpt lat="44.80542" lon="5.06933">
        <ele>634.5</ele>
        <time>2020-12-23T11:51:44.159Z</time>
      </trkpt>
      <trkpt lat="44.80552" lon="5.06926">
        <ele>632.5</ele>
        <time>2020-12-23T11:51:53.442Z</time>
      </trkpt>
      <trkpt lat="44.80562" lon="5.06923">
        <ele>630.83</ele>
        <time>2020-12-23T11:52:02.960Z</time>
      </trkpt>
      <trkpt lat="44.8057" lon="5.06922">
        <ele>628.84</ele>
        <time>2020-12-23T11:52:11.999Z</time>
      </trkpt>
      <trkpt lat="44.80582" lon="5.06916">
        <ele>626.94</ele>
        <time>2020-12-23T11:52:21.999Z</time>
      </trkpt>
      <trkpt lat="44.80592" lon="5.0691">
        <ele>625.58</ele>
        <time>2020-12-23T11:52:31.999Z</time>
      </trkpt>
      <trkpt lat="44.80597" lon="5.06908">
        <ele>624.79</ele>
        <time>2020-12-23T11:52:41.999Z</time>
      </trkpt>
      <trkpt lat="44.80608" lon="5.069">
        <ele>623.72</ele>
        <time>2020-12-23T11:52:51.163Z</time>
      </trkpt>
      <trkpt lat="44.80625" lon="5.06889">
        <ele>622.23</ele>
        <time>2020-12-23T11:53:00.999Z</time>
      </trkpt>
      <trkpt lat="44.80645" lon="5.06881">
        <ele>622.4</ele>
        <time>2020-12-23T11:53:10.999Z</time>
      </trkpt>
      <trkpt lat="44.8066" lon="5.06872">
        <ele>622.68</ele>
        <time>2020-12-23T11:53:20.037Z</time>
      </trkpt>
      <trkpt lat="44.80668" lon="5.06859">
        <ele>620.66</ele>
        <time>2020-12-23T11:53:29.054Z</time>
      </trkpt>
      <trkpt lat="44.80671" lon="5.06838">
        <ele>617.64</ele>
        <time>2020-12-23T11:53:38.616Z</time>
      </trkpt>
      <trkpt lat="44.80676" lon="5.06824">
        <ele>614.66</ele>
        <time>2020-12-23T11:53:47.839Z</time>
      </trkpt>
      <trkpt lat="44.80684" lon="5.06818">
        <ele>613.07</ele>
        <time>2020-12-23T11:53:56.999Z</time>
      </trkpt>
      <trkpt lat="44.80683" lon="5.06804">
        <ele>610.05</ele>
        <time>2020-12-23T11:54:06.999Z</time>
      </trkpt>
      <trkpt lat="44.80678" lon="5.06787">
        <ele>605.49</ele>
        <time>2020-12-23T11:54:16.726Z</time>
      </trkpt>
      <trkpt lat="44.80672" lon="5.06772">
        <ele>601.47</ele>
        <time>2020-12-23T11:54:25.999Z</time>
      </trkpt>
      <trkpt lat="44.80666" lon="5.06753">
        <ele>598.3</ele>
        <time>2020-12-23T11:54:35.293Z</time>
      </trkpt>
      <trkpt lat="44.80663" lon="5.06738">
        <ele>595.31</ele>
        <time>2020-12-23T11:54:44.999Z</time>
      </trkpt>
      <trkpt lat="44.80662" lon="5.06721">
        <ele>592.12</ele>
        <time>2020-12-23T11:54:54.999Z</time>
      </trkpt>
      <trkpt lat="44.80658" lon="5.06704">
        <ele>589.89</ele>
        <time>2020-12-23T11:55:04.999Z</time>
      </trkpt>
      <trkpt lat="44.80661" lon="5.06687">
        <ele>586.96</ele>
        <time>2020-12-23T11:55:14.999Z</time>
      </trkpt>
      <trkpt lat="44.80664" lon="5.06671">
        <ele>582.79</ele>
        <time>2020-12-23T11:55:24.999Z</time>
      </trkpt>
      <trkpt lat="44.80665" lon="5.06658">
        <ele>579.15</ele>
        <time>2020-12-23T11:55:34.084Z</time>
      </trkpt>
      <trkpt lat="44.80668" lon="5.06646">
        <ele>575.75</ele>
        <time>2020-12-23T11:55:43.474Z</time>
      </trkpt>
      <trkpt lat="44.80673" lon="5.0663">
        <ele>572.39</ele>
        <time>2020-12-23T11:55:53.999Z</time>
      </trkpt>
      <trkpt lat="44.80675" lon="5.06618">
        <ele>569.62</ele>
        <time>2020-12-23T11:56:03.734Z</time>
      </trkpt>
      <trkpt lat="44.80679" lon="5.06607">
        <ele>566.93</ele>
        <time>2020-12-23T11:56:12.737Z</time>
      </trkpt>
      <trkpt lat="44.8068" lon="5.06593">
        <ele>564.12</ele>
        <time>2020-12-23T11:56:21.754Z</time>
      </trkpt>
      <trkpt lat="44.80677" lon="5.06589">
        <ele>562.19</ele>
        <time>2020-12-23T11:56:30.999Z</time>
      </trkpt>
      <trkpt lat="44.80677" lon="5.06581">
        <ele>559.62</ele>
        <time>2020-12-23T11:56:40.999Z</time>
      </trkpt>
      <trkpt lat="44.80671" lon="5.06569">
        <ele>556.73</ele>
        <time>2020-12-23T11:56:50.316Z</time>
      </trkpt>
      <trkpt lat="44.80663" lon="5.0656">
        <ele>554.73</ele>
        <time>2020-12-23T11:56:59.999Z</time>
      </trkpt>
      <trkpt lat="44.80651" lon="5.06549">
        <ele>552.54</ele>
        <time>2020-12-23T11:57:09.235Z</time>
      </trkpt>
      <trkpt lat="44.80642" lon="5.06545">
        <ele>550.46</ele>
        <time>2020-12-23T11:57:18.836Z</time>
      </trkpt>
      <trkpt lat="44.80639" lon="5.06539">
        <ele>548.12</ele>
        <time>2020-12-23T11:57:27.999Z</time>
      </trkpt>
      <trkpt lat="44.80629" lon="5.06523">
        <ele>546.02</ele>
        <time>2020-12-23T11:57:37.999Z</time>
      </trkpt>
      <trkpt lat="44.80623" lon="5.06507">
        <ele>544.1</ele>
        <time>2020-12-23T11:57:47.647Z</time>
      </trkpt>
      <trkpt lat="44.80621" lon="5.06495">
        <ele>542.37</ele>
        <time>2020-12-23T11:57:56.732Z</time>
      </trkpt>
      <trkpt lat="44.8062" lon="5.06484">
        <ele>540.34</ele>
        <time>2020-12-23T11:58:05.999Z</time>
      </trkpt>
      <trkpt lat="44.80619" lon="5.06464">
        <ele>538.29</ele>
        <time>2020-12-23T11:58:16.057Z</time>
      </trkpt>
      <trkpt lat="44.80619" lon="5.06451">
        <ele>536.25</ele>
        <time>2020-12-23T11:58:25.999Z</time>
      </trkpt>
      <trkpt lat="44.80621" lon="5.06435">
        <ele>532.91</ele>
        <time>2020-12-23T11:58:35.999Z</time>
      </trkpt>
      <trkpt lat="44.8062" lon="5.06417">
        <ele>530.45</ele>
        <time>2020-12-23T11:58:45.999Z</time>
      </trkpt>
      <trkpt lat="44.80618" lon="5.06401">
        <ele>528.67</ele>
        <time>2020-12-23T11:58:55.079Z</time>
      </trkpt>
      <trkpt lat="44.80618" lon="5.06385">
        <ele>526.38</ele>
        <time>2020-12-23T11:59:04.999Z</time>
      </trkpt>
      <trkpt lat="44.80615" lon="5.06378">
        <ele>523.73</ele>
        <time>2020-12-23T11:59:14.999Z</time>
      </trkpt>
      <trkpt lat="44.80609" lon="5.0636">
        <ele>521.71</ele>
        <time>2020-12-23T11:59:24.999Z</time>
      </trkpt>
      <trkpt lat="44.80602" lon="5.06346">
        <ele>519.33</ele>
        <time>2020-12-23T11:59:34.063Z</time>
      </trkpt>
      <trkpt lat="44.80601" lon="5.06343">
        <ele>517.19</ele>
        <time>2020-12-23T11:59:43.999Z</time>
      </trkpt>
      <trkpt lat="44.80595" lon="5.06327">
        <ele>514.91</ele>
        <time>2020-12-23T11:59:53.742Z</time>
      </trkpt>
      <trkpt lat="44.80589" lon="5.06315">
        <ele>512.38</ele>
        <time>2020-12-23T12:00:02.999Z</time>
      </trkpt>
      <trkpt lat="44.80584" lon="5.06295">
        <ele>510.43</ele>
        <time>2020-12-23T12:00:12.999Z</time>
      </trkpt>
      <trkpt lat="44.80583" lon="5.06275">
        <ele>508.52</ele>
        <time>2020-12-23T12:00:22.999Z</time>
      </trkpt>
      <trkpt lat="44.80587" lon="5.06254">
        <ele>507.21</ele>
        <time>2020-12-23T12:00:32.999Z</time>
      </trkpt>
      <trkpt lat="44.80591" lon="5.06234">
        <ele>505.38</ele>
        <time>2020-12-23T12:00:42.999Z</time>
      </trkpt>
      <trkpt lat="44.80594" lon="5.06221">
        <ele>503.92</ele>
        <time>2020-12-23T12:00:52.999Z</time>
      </trkpt>
      <trkpt lat="44.80596" lon="5.06219">
        <ele>502.58</ele>
        <time>2020-12-23T12:01:02.741Z</time>
      </trkpt>
      <trkpt lat="44.80597" lon="5.06218">
        <ele>502.05</ele>
        <time>2020-12-23T12:01:12.000Z</time>
      </trkpt>
      <trkpt lat="44.80597" lon="5.06215">
        <ele>501.25</ele>
        <time>2020-12-23T12:01:22.000Z</time>
      </trkpt>
      <trkpt lat="44.80596" lon="5.06218">
        <ele>500.99</ele>
        <time>2020-12-23T12:01:50.000Z</time>
      </trkpt>
      <trkpt lat="44.80596" lon="5.06223">
        <ele>501.5</ele>
        <time>2020-12-23T12:02:00.000Z</time>
      </trkpt>
      <trkpt lat="44.80598" lon="5.06225">
        <ele>501.29</ele>
        <time>2020-12-23T12:02:19.000Z</time>
      </trkpt>
      <trkpt lat="44.80599" lon="5.06226">
        <ele>501.15</ele>
        <time>2020-12-23T12:02:48.000Z</time>
      </trkpt>
      <trkpt lat="44.80601" lon="5.06227">
        <ele>500.52</ele>
        <time>2020-12-23T12:02:59.000Z</time>
      </trkpt>
      <trkpt lat="44.80608" lon="5.06213">
        <ele>498.38</ele>
        <time>2020-12-23T12:03:09.000Z</time>
      </trkpt>
      <trkpt lat="44.80615" lon="5.06193">
        <ele>496.57</ele>
        <time>2020-12-23T12:03:18.375Z</time>
      </trkpt>
      <trkpt lat="44.80619" lon="5.0618">
        <ele>495.56</ele>
        <time>2020-12-23T12:03:28.000Z</time>
      </trkpt>
      <trkpt lat="44.80616" lon="5.06165">
        <ele>493.34</ele>
        <time>2020-12-23T12:03:37.319Z</time>
      </trkpt>
      <trkpt lat="44.80612" lon="5.06147">
        <ele>491.77</ele>
        <time>2020-12-23T12:03:46.738Z</time>
      </trkpt>
      <trkpt lat="44.80609" lon="5.06134">
        <ele>490.12</ele>
        <time>2020-12-23T12:03:56.000Z</time>
      </trkpt>
      <trkpt lat="44.80609" lon="5.06119">
        <ele>487.15</ele>
        <time>2020-12-23T12:04:05.162Z</time>
      </trkpt>
      <trkpt lat="44.80609" lon="5.0611">
        <ele>485.42</ele>
        <time>2020-12-23T12:04:15.000Z</time>
      </trkpt>
      <trkpt lat="44.80606" lon="5.06096">
        <ele>482.91</ele>
        <time>2020-12-23T12:04:24.141Z</time>
      </trkpt>
      <trkpt lat="44.80605" lon="5.06083">
        <ele>481.18</ele>
        <time>2020-12-23T12:04:33.300Z</time>
      </trkpt>
      <trkpt lat="44.80602" lon="5.06073">
        <ele>479.86</ele>
        <time>2020-12-23T12:04:43.000Z</time>
      </trkpt>
      <trkpt lat="44.80601" lon="5.06067">
        <ele>478.63</ele>
        <time>2020-12-23T12:04:52.061Z</time>
      </trkpt>
      <trkpt lat="44.80606" lon="5.06053">
        <ele>476.89</ele>
        <time>2020-12-23T12:05:02.000Z</time>
      </trkpt>
      <trkpt lat="44.80606" lon="5.06029">
        <ele>475.06</ele>
        <time>2020-12-23T12:05:12.000Z</time>
      </trkpt>
      <trkpt lat="44.80606" lon="5.06022">
        <ele>474.08</ele>
        <time>2020-12-23T12:05:23.000Z</time>
      </trkpt>
      <trkpt lat="44.80604" lon="5.06021">
        <ele>473.34</ele>
        <time>2020-12-23T12:05:33.000Z</time>
      </trkpt>
      <trkpt lat="44.80606" lon="5.06006">
        <ele>471.76</ele>
        <time>2020-12-23T12:05:43.000Z</time>
      </trkpt>
      <trkpt lat="44.80605" lon="5.05988">
        <ele>469.97</ele>
        <time>2020-12-23T12:05:53.000Z</time>
      </trkpt>
      <trkpt lat="44.80608" lon="5.05974">
        <ele>468.55</ele>
        <time>2020-12-23T12:06:02.160Z</time>
      </trkpt>
      <trkpt lat="44.8061" lon="5.05956">
        <ele>466.45</ele>
        <time>2020-12-23T12:06:11.453Z</time>
      </trkpt>
      <trkpt lat="44.80613" lon="5.05939">
        <ele>465.47</ele>
        <time>2020-12-23T12:06:20.873Z</time>
      </trkpt>
      <trkpt lat="44.80615" lon="5.0592">
        <ele>462.79</ele>
        <time>2020-12-23T12:06:30.355Z</time>
      </trkpt>
      <trkpt lat="44.80614" lon="5.05907">
        <ele>461.57</ele>
        <time>2020-12-23T12:06:39.514Z</time>
      </trkpt>
      <trkpt lat="44.80616" lon="5.05891">
        <ele>459.6</ele>
        <time>2020-12-23T12:06:48.976Z</time>
      </trkpt>
      <trkpt lat="44.8061" lon="5.05872">
        <ele>457.98</ele>
        <time>2020-12-23T12:06:58.256Z</time>
      </trkpt>
      <trkpt lat="44.80606" lon="5.05858">
        <ele>456.03</ele>
        <time>2020-12-23T12:07:08.000Z</time>
      </trkpt>
      <trkpt lat="44.80602" lon="5.05847">
        <ele>453.97</ele>
        <time>2020-12-23T12:07:18.000Z</time>
      </trkpt>
      <trkpt lat="44.80596" lon="5.05834">
        <ele>451.82</ele>
        <time>2020-12-23T12:07:27.097Z</time>
      </trkpt>
      <trkpt lat="44.8059" lon="5.0582">
        <ele>449.48</ele>
        <time>2020-12-23T12:07:36.338Z</time>
      </trkpt>
      <trkpt lat="44.80581" lon="5.05804">
        <ele>447.4</ele>
        <time>2020-12-23T12:07:45.656Z</time>
      </trkpt>
      <trkpt lat="44.80574" lon="5.05791">
        <ele>444.88</ele>
        <time>2020-12-23T12:07:54.935Z</time>
      </trkpt>
      <trkpt lat="44.80568" lon="5.05777">
        <ele>443.08</ele>
        <time>2020-12-23T12:08:04.359Z</time>
      </trkpt>
      <trkpt lat="44.80565" lon="5.05764">
        <ele>441.04</ele>
        <time>2020-12-23T12:08:14.000Z</time>
      </trkpt>
      <trkpt lat="44.80562" lon="5.05749">
        <ele>438.75</ele>
        <time>2020-12-23T12:08:23.297Z</time>
      </trkpt>
      <trkpt lat="44.80559" lon="5.05731">
        <ele>436.79</ele>
        <time>2020-12-23T12:08:33.000Z</time>
      </trkpt>
      <trkpt lat="44.80556" lon="5.05718">
        <ele>434.94</ele>
        <time>2020-12-23T12:08:43.000Z</time>
      </trkpt>
      <trkpt lat="44.80552" lon="5.05702">
        <ele>432.62</ele>
        <time>2020-12-23T12:08:53.000Z</time>
      </trkpt>
      <trkpt lat="44.8055" lon="5.05683">
        <ele>430.17</ele>
        <time>2020-12-23T12:09:02.764Z</time>
      </trkpt>
      <trkpt lat="44.80549" lon="5.05668">
        <ele>428.33</ele>
        <time>2020-12-23T12:09:12.000Z</time>
      </trkpt>
      <trkpt lat="44.80547" lon="5.05647">
        <ele>426.45</ele>
        <time>2020-12-23T12:09:21.523Z</time>
      </trkpt>
      <trkpt lat="44.80547" lon="5.05631">
        <ele>424.8</ele>
        <time>2020-12-23T12:09:31.143Z</time>
      </trkpt>
      <trkpt lat="44.80552" lon="5.05614">
        <ele>422.96</ele>
        <time>2020-12-23T12:09:40.737Z</time>
      </trkpt>
      <trkpt lat="44.80557" lon="5.05599">
        <ele>421.84</ele>
        <time>2020-12-23T12:09:51.000Z</time>
      </trkpt>
      <trkpt lat="44.80561" lon="5.05584">
        <ele>421.24</ele>
        <time>2020-12-23T12:10:00.201Z</time>
      </trkpt>
      <trkpt lat="44.80564" lon="5.05567">
        <ele>421.03</ele>
        <time>2020-12-23T12:10:09.521Z</time>
      </trkpt>
      <trkpt lat="44.80567" lon="5.05549">
        <ele>421.05</ele>
        <time>2020-12-23T12:10:18.824Z</time>
      </trkpt>
      <trkpt lat="44.80563" lon="5.05534">
        <ele>419.7</ele>
        <time>2020-12-23T12:10:29.000Z</time>
      </trkpt>
      <trkpt lat="44.80559" lon="5.05518">
        <ele>417.91</ele>
        <time>2020-12-23T12:10:38.523Z</time>
      </trkpt>
      <trkpt lat="44.80555" lon="5.05508">
        <ele>416.8</ele>
        <time>2020-12-23T12:10:48.000Z</time>
      </trkpt>
      <trkpt lat="44.80554" lon="5.05495">
        <ele>415.16</ele>
        <time>2020-12-23T12:10:57.190Z</time>
      </trkpt>
      <trkpt lat="44.80552" lon="5.05483">
        <ele>413.66</ele>
        <time>2020-12-23T12:11:07.000Z</time>
      </trkpt>
      <trkpt lat="44.80551" lon="5.0547">
        <ele>411.79</ele>
        <time>2020-12-23T12:11:16.061Z</time>
      </trkpt>
      <trkpt lat="44.80552" lon="5.05454">
        <ele>409.98</ele>
        <time>2020-12-23T12:11:25.464Z</time>
      </trkpt>
      <trkpt lat="44.80556" lon="5.05441">
        <ele>408.75</ele>
        <time>2020-12-23T12:11:35.000Z</time>
      </trkpt>
      <trkpt lat="44.80566" lon="5.0543">
        <ele>407.12</ele>
        <time>2020-12-23T12:11:45.000Z</time>
      </trkpt>
      <trkpt lat="44.80568" lon="5.05415">
        <ele>405.16</ele>
        <time>2020-12-23T12:11:54.421Z</time>
      </trkpt>
      <trkpt lat="44.80573" lon="5.05399">
        <ele>403.18</ele>
        <time>2020-12-23T12:12:05.000Z</time>
      </trkpt>
      <trkpt lat="44.80578" lon="5.05378">
        <ele>401.12</ele>
        <time>2020-12-23T12:12:14.999Z</time>
      </trkpt>
      <trkpt lat="44.80579" lon="5.05362">
        <ele>399.13</ele>
        <time>2020-12-23T12:12:24.099Z</time>
      </trkpt>
      <trkpt lat="44.80581" lon="5.05352">
        <ele>396.92</ele>
        <time>2020-12-23T12:12:33.521Z</time>
      </trkpt>
      <trkpt lat="44.80583" lon="5.05333">
        <ele>395.35</ele>
        <time>2020-12-23T12:12:42.561Z</time>
      </trkpt>
      <trkpt lat="44.80584" lon="5.05321">
        <ele>393.05</ele>
        <time>2020-12-23T12:12:51.999Z</time>
      </trkpt>
      <trkpt lat="44.80585" lon="5.05301">
        <ele>391.42</ele>
        <time>2020-12-23T12:13:01.840Z</time>
      </trkpt>
      <trkpt lat="44.80586" lon="5.05281">
        <ele>389.84</ele>
        <time>2020-12-23T12:13:11.121Z</time>
      </trkpt>
      <trkpt lat="44.80588" lon="5.05268">
        <ele>388.04</ele>
        <time>2020-12-23T12:13:20.999Z</time>
      </trkpt>
      <trkpt lat="44.80588" lon="5.05254">
        <ele>386.64</ele>
        <time>2020-12-23T12:13:30.999Z</time>
      </trkpt>
      <trkpt lat="44.80591" lon="5.05236">
        <ele>384.12</ele>
        <time>2020-12-23T12:13:40.999Z</time>
      </trkpt>
      <trkpt lat="44.80592" lon="5.05221">
        <ele>382.56</ele>
        <time>2020-12-23T12:13:50.059Z</time>
      </trkpt>
      <trkpt lat="44.80592" lon="5.05201">
        <ele>380.67</ele>
        <time>2020-12-23T12:13:59.522Z</time>
      </trkpt>
      <trkpt lat="44.80592" lon="5.05185">
        <ele>379.43</ele>
        <time>2020-12-23T12:14:08.941Z</time>
      </trkpt>
      <trkpt lat="44.80593" lon="5.05168">
        <ele>377.55</ele>
        <time>2020-12-23T12:14:17.999Z</time>
      </trkpt>
      <trkpt lat="44.80603" lon="5.05157">
        <ele>375.63</ele>
        <time>2020-12-23T12:14:27.999Z</time>
      </trkpt>
      <trkpt lat="44.80618" lon="5.05156">
        <ele>373.46</ele>
        <time>2020-12-23T12:14:37.030Z</time>
      </trkpt>
      <trkpt lat="44.80628" lon="5.05146">
        <ele>371.63</ele>
        <time>2020-12-23T12:14:46.042Z</time>
      </trkpt>
      <trkpt lat="44.80636" lon="5.05142">
        <ele>369.83</ele>
        <time>2020-12-23T12:14:55.540Z</time>
      </trkpt>
      <trkpt lat="44.80646" lon="5.0514">
        <ele>368</ele>
        <time>2020-12-23T12:15:04.982Z</time>
      </trkpt>
      <trkpt lat="44.80653" lon="5.05135">
        <ele>366.2</ele>
        <time>2020-12-23T12:15:14.999Z</time>
      </trkpt>
      <trkpt lat="44.80664" lon="5.05124">
        <ele>363.7</ele>
        <time>2020-12-23T12:15:24.463Z</time>
      </trkpt>
      <trkpt lat="44.80672" lon="5.05112">
        <ele>363.38</ele>
        <time>2020-12-23T12:15:34.999Z</time>
      </trkpt>
      <trkpt lat="44.80684" lon="5.05102">
        <ele>365.3</ele>
        <time>2020-12-23T12:15:44.724Z</time>
      </trkpt>
      <trkpt lat="44.80693" lon="5.05102">
        <ele>366.28</ele>
        <time>2020-12-23T12:15:53.999Z</time>
      </trkpt>
      <trkpt lat="44.80704" lon="5.05096">
        <ele>367.32</ele>
        <time>2020-12-23T12:16:03.452Z</time>
      </trkpt>
      <trkpt lat="44.80712" lon="5.05091">
        <ele>368.02</ele>
        <time>2020-12-23T12:16:12.999Z</time>
      </trkpt>
      <trkpt lat="44.80723" lon="5.05086">
        <ele>368.96</ele>
        <time>2020-12-23T12:16:22.999Z</time>
      </trkpt>
      <trkpt lat="44.80735" lon="5.05082">
        <ele>370.25</ele>
        <time>2020-12-23T12:16:32.275Z</time>
      </trkpt>
      <trkpt lat="44.80745" lon="5.05081">
        <ele>371.43</ele>
        <time>2020-12-23T12:16:41.999Z</time>
      </trkpt>
      <trkpt lat="44.80757" lon="5.05081">
        <ele>372.65</ele>
        <time>2020-12-23T12:16:51.999Z</time>
      </trkpt>
      <trkpt lat="44.80769" lon="5.05078">
        <ele>373.52</ele>
        <time>2020-12-23T12:17:01.999Z</time>
      </trkpt>
      <trkpt lat="44.80781" lon="5.05076">
        <ele>373.88</ele>
        <time>2020-12-23T12:17:11.335Z</time>
      </trkpt>
      <trkpt lat="44.80793" lon="5.05076">
        <ele>374.28</ele>
        <time>2020-12-23T12:17:20.635Z</time>
      </trkpt>
      <trkpt lat="44.80803" lon="5.05075">
        <ele>375.13</ele>
        <time>2020-12-23T12:17:29.716Z</time>
      </trkpt>
      <trkpt lat="44.80812" lon="5.05076">
        <ele>375.28</ele>
        <time>2020-12-23T12:17:38.798Z</time>
      </trkpt>
      <trkpt lat="44.80823" lon="5.05076">
        <ele>375.96</ele>
        <time>2020-12-23T12:17:47.997Z</time>
      </trkpt>
      <trkpt lat="44.80835" lon="5.05075">
        <ele>376.1</ele>
        <time>2020-12-23T12:17:57.999Z</time>
      </trkpt>
      <trkpt lat="44.80848" lon="5.05073">
        <ele>376.2</ele>
        <time>2020-12-23T12:18:07.136Z</time>
      </trkpt>
      <trkpt lat="44.80858" lon="5.05072">
        <ele>376.38</ele>
        <time>2020-12-23T12:18:16.999Z</time>
      </trkpt>
      <trkpt lat="44.80868" lon="5.05073">
        <ele>376.43</ele>
        <time>2020-12-23T12:18:26.556Z</time>
      </trkpt>
      <trkpt lat="44.80877" lon="5.05071">
        <ele>376.55</ele>
        <time>2020-12-23T12:18:35.999Z</time>
      </trkpt>
      <trkpt lat="44.8089" lon="5.0507">
        <ele>376.93</ele>
        <time>2020-12-23T12:18:46.137Z</time>
      </trkpt>
      <trkpt lat="44.80901" lon="5.05068">
        <ele>377.19</ele>
        <time>2020-12-23T12:18:55.476Z</time>
      </trkpt>
      <trkpt lat="44.80913" lon="5.05066">
        <ele>377.4</ele>
        <time>2020-12-23T12:19:04.579Z</time>
      </trkpt>
      <trkpt lat="44.80924" lon="5.05062">
        <ele>378.36</ele>
        <time>2020-12-23T12:19:14.097Z</time>
      </trkpt>
      <trkpt lat="44.80933" lon="5.0506">
        <ele>379.95</ele>
        <time>2020-12-23T12:19:23.458Z</time>
      </trkpt>
      <trkpt lat="44.80941" lon="5.05053">
        <ele>380.83</ele>
        <time>2020-12-23T12:19:33.056Z</time>
      </trkpt>
      <trkpt lat="44.80949" lon="5.05047">
        <ele>381.7</ele>
        <time>2020-12-23T12:19:42.999Z</time>
      </trkpt>
      <trkpt lat="44.80958" lon="5.05042">
        <ele>382.65</ele>
        <time>2020-12-23T12:19:52.078Z</time>
      </trkpt>
      <trkpt lat="44.80969" lon="5.05037">
        <ele>383.82</ele>
        <time>2020-12-23T12:20:01.727Z</time>
      </trkpt>
      <trkpt lat="44.80979" lon="5.0503">
        <ele>384.68</ele>
        <time>2020-12-23T12:20:11.999Z</time>
      </trkpt>
      <trkpt lat="44.8099" lon="5.05025">
        <ele>384.97</ele>
        <time>2020-12-23T12:20:21.139Z</time>
      </trkpt>
      <trkpt lat="44.81001" lon="5.0502">
        <ele>384.53</ele>
        <time>2020-12-23T12:20:30.658Z</time>
      </trkpt>
      <trkpt lat="44.8101" lon="5.05013">
        <ele>383.67</ele>
        <time>2020-12-23T12:20:39.999Z</time>
      </trkpt>
      <trkpt lat="44.81021" lon="5.0501">
        <ele>382.55</ele>
        <time>2020-12-23T12:20:49.477Z</time>
      </trkpt>
      <trkpt lat="44.81032" lon="5.05007">
        <ele>381.66</ele>
        <time>2020-12-23T12:20:58.778Z</time>
      </trkpt>
      <trkpt lat="44.81041" lon="5.05004">
        <ele>381.35</ele>
        <time>2020-12-23T12:21:07.999Z</time>
      </trkpt>
      <trkpt lat="44.81053" lon="5.04995">
        <ele>380.64</ele>
        <time>2020-12-23T12:21:17.419Z</time>
      </trkpt>
      <trkpt lat="44.81061" lon="5.04984">
        <ele>379.91</ele>
        <time>2020-12-23T12:21:27.000Z</time>
      </trkpt>
      <trkpt lat="44.81068" lon="5.04968">
        <ele>379.13</ele>
        <time>2020-12-23T12:21:36.518Z</time>
      </trkpt>
      <trkpt lat="44.81077" lon="5.04958">
        <ele>378.7</ele>
        <time>2020-12-23T12:21:46.999Z</time>
      </trkpt>
      <trkpt lat="44.81088" lon="5.04955">
        <ele>378.06</ele>
        <time>2020-12-23T12:21:56.999Z</time>
      </trkpt>
      <trkpt lat="44.81098" lon="5.0495">
        <ele>377.86</ele>
        <time>2020-12-23T12:22:06.258Z</time>
      </trkpt>
      <trkpt lat="44.81108" lon="5.04946">
        <ele>377.26</ele>
        <time>2020-12-23T12:22:15.419Z</time>
      </trkpt>
      <trkpt lat="44.81118" lon="5.0494">
        <ele>377.08</ele>
        <time>2020-12-23T12:22:24.583Z</time>
      </trkpt>
      <trkpt lat="44.8113" lon="5.04932">
        <ele>376.25</ele>
        <time>2020-12-23T12:22:34.138Z</time>
      </trkpt>
      <trkpt lat="44.81139" lon="5.04926">
        <ele>375.38</ele>
        <time>2020-12-23T12:22:43.620Z</time>
      </trkpt>
      <trkpt lat="44.81147" lon="5.04922">
        <ele>374.48</ele>
        <time>2020-12-23T12:22:52.704Z</time>
      </trkpt>
      <trkpt lat="44.81158" lon="5.04919">
        <ele>373.45</ele>
        <time>2020-12-23T12:23:01.818Z</time>
      </trkpt>
      <trkpt lat="44.81169" lon="5.04916">
        <ele>372.24</ele>
        <time>2020-12-23T12:23:11.437Z</time>
      </trkpt>
      <trkpt lat="44.81181" lon="5.04913">
        <ele>370.88</ele>
        <time>2020-12-23T12:23:20.919Z</time>
      </trkpt>
      <trkpt lat="44.81187" lon="5.04917">
        <ele>370.17</ele>
        <time>2020-12-23T12:23:30.416Z</time>
      </trkpt>
      <trkpt lat="44.81193" lon="5.04913">
        <ele>367.54</ele>
        <time>2020-12-23T12:23:40.058Z</time>
      </trkpt>
      <trkpt lat="44.81201" lon="5.04903">
        <ele>365.09</ele>
        <time>2020-12-23T12:23:50.000Z</time>
      </trkpt>
      <trkpt lat="44.81204" lon="5.04895">
        <ele>362.97</ele>
        <time>2020-12-23T12:23:59.179Z</time>
      </trkpt>
      <trkpt lat="44.81207" lon="5.04891">
        <ele>361.09</ele>
        <time>2020-12-23T12:24:08.722Z</time>
      </trkpt>
      <trkpt lat="44.81211" lon="5.04886">
        <ele>359.95</ele>
        <time>2020-12-23T12:24:18.000Z</time>
      </trkpt>
      <trkpt lat="44.81211" lon="5.04883">
        <ele>358.57</ele>
        <time>2020-12-23T12:24:28.757Z</time>
      </trkpt>
      <trkpt lat="44.81212" lon="5.04877">
        <ele>357.02</ele>
        <time>2020-12-23T12:24:39.000Z</time>
      </trkpt>
      <trkpt lat="44.81214" lon="5.04862">
        <ele>355.24</ele>
        <time>2020-12-23T12:24:48.958Z</time>
      </trkpt>
      <trkpt lat="44.81215" lon="5.04858">
        <ele>353.82</ele>
        <time>2020-12-23T12:24:59.000Z</time>
      </trkpt>
      <trkpt lat="44.81222" lon="5.04847">
        <ele>351.61</ele>
        <time>2020-12-23T12:25:09.000Z</time>
      </trkpt>
      <trkpt lat="44.81226" lon="5.04839">
        <ele>350.04</ele>
        <time>2020-12-23T12:25:19.000Z</time>
      </trkpt>
      <trkpt lat="44.81232" lon="5.04831">
        <ele>349.15</ele>
        <time>2020-12-23T12:25:29.000Z</time>
      </trkpt>
      <trkpt lat="44.81239" lon="5.04833">
        <ele>347.36</ele>
        <time>2020-12-23T12:25:39.000Z</time>
      </trkpt>
      <trkpt lat="44.81251" lon="5.04826">
        <ele>345.59</ele>
        <time>2020-12-23T12:25:49.000Z</time>
      </trkpt>
      <trkpt lat="44.81252" lon="5.04824">
        <ele>344.96</ele>
        <time>2020-12-23T12:25:58.078Z</time>
      </trkpt>
      <trkpt lat="44.81255" lon="5.04822">
        <ele>343.36</ele>
        <time>2020-12-23T12:26:08.000Z</time>
      </trkpt>
      <trkpt lat="44.81262" lon="5.04819">
        <ele>341.08</ele>
        <time>2020-12-23T12:26:17.140Z</time>
      </trkpt>
      <trkpt lat="44.81268" lon="5.04816">
        <ele>339.48</ele>
        <time>2020-12-23T12:26:26.819Z</time>
      </trkpt>
      <trkpt lat="44.81274" lon="5.04812">
        <ele>338.17</ele>
        <time>2020-12-23T12:26:36.000Z</time>
      </trkpt>
      <trkpt lat="44.8128" lon="5.04807">
        <ele>337.7</ele>
        <time>2020-12-23T12:26:45.325Z</time>
      </trkpt>
      <trkpt lat="44.81282" lon="5.04806">
        <ele>337.61</ele>
        <time>2020-12-23T12:26:55.000Z</time>
      </trkpt>
      <trkpt lat="44.81283" lon="5.04808">
        <ele>337.51</ele>
        <time>2020-12-23T12:27:08.000Z</time>
      </trkpt>
      <trkpt lat="44.81286" lon="5.04807">
        <ele>337.59</ele>
        <time>2020-12-23T12:27:19.560Z</time>
      </trkpt>
      <trkpt lat="44.81296" lon="5.04799">
        <ele>337.79</ele>
        <time>2020-12-23T12:27:29.000Z</time>
      </trkpt>
      <trkpt lat="44.81309" lon="5.0479">
        <ele>337.64</ele>
        <time>2020-12-23T12:27:38.164Z</time>
      </trkpt>
      <trkpt lat="44.81319" lon="5.04784">
        <ele>337.5</ele>
        <time>2020-12-23T12:27:47.421Z</time>
      </trkpt>
      <trkpt lat="44.81327" lon="5.04777">
        <ele>337.21</ele>
        <time>2020-12-23T12:27:57.000Z</time>
      </trkpt>
      <trkpt lat="44.8134" lon="5.04769">
        <ele>336.82</ele>
        <time>2020-12-23T12:28:06.342Z</time>
      </trkpt>
      <trkpt lat="44.81347" lon="5.04757">
        <ele>336.27</ele>
        <time>2020-12-23T12:28:16.000Z</time>
      </trkpt>
      <trkpt lat="44.81359" lon="5.04739">
        <ele>335.6</ele>
        <time>2020-12-23T12:28:26.004Z</time>
      </trkpt>
      <trkpt lat="44.8137" lon="5.04734">
        <ele>335.02</ele>
        <time>2020-12-23T12:28:35.142Z</time>
      </trkpt>
      <trkpt lat="44.81379" lon="5.04729">
        <ele>334.28</ele>
        <time>2020-12-23T12:28:44.281Z</time>
      </trkpt>
      <trkpt lat="44.81391" lon="5.04724">
        <ele>333.36</ele>
        <time>2020-12-23T12:28:53.343Z</time>
      </trkpt>
      <trkpt lat="44.81403" lon="5.04722">
        <ele>332.64</ele>
        <time>2020-12-23T12:29:02.863Z</time>
      </trkpt>
      <trkpt lat="44.81416" lon="5.04722">
        <ele>332.47</ele>
        <time>2020-12-23T12:29:12.000Z</time>
      </trkpt>
      <trkpt lat="44.81427" lon="5.04723">
        <ele>332.69</ele>
        <time>2020-12-23T12:29:21.137Z</time>
      </trkpt>
      <trkpt lat="44.81437" lon="5.04719">
        <ele>332.28</ele>
        <time>2020-12-23T12:29:31.000Z</time>
      </trkpt>
      <trkpt lat="44.81449" lon="5.04715">
        <ele>332.38</ele>
        <time>2020-12-23T12:29:41.000Z</time>
      </trkpt>
      <trkpt lat="44.8146" lon="5.04706">
        <ele>331.91</ele>
        <time>2020-12-23T12:29:50.157Z</time>
      </trkpt>
      <trkpt lat="44.81473" lon="5.04699">
        <ele>331.23</ele>
        <time>2020-12-23T12:29:59.498Z</time>
      </trkpt>
      <trkpt lat="44.81485" lon="5.04696">
        <ele>330.11</ele>
        <time>2020-12-23T12:30:08.658Z</time>
      </trkpt>
      <trkpt lat="44.81494" lon="5.04696">
        <ele>328.85</ele>
        <time>2020-12-23T12:30:18.000Z</time>
      </trkpt>
      <trkpt lat="44.81507" lon="5.04701">
        <ele>328.3</ele>
        <time>2020-12-23T12:30:27.600Z</time>
      </trkpt>
      <trkpt lat="44.81517" lon="5.04703">
        <ele>328.33</ele>
        <time>2020-12-23T12:30:37.000Z</time>
      </trkpt>
      <trkpt lat="44.81528" lon="5.04705">
        <ele>329.1</ele>
        <time>2020-12-23T12:30:46.120Z</time>
      </trkpt>
      <trkpt lat="44.81541" lon="5.0471">
        <ele>329.37</ele>
        <time>2020-12-23T12:30:56.000Z</time>
      </trkpt>
      <trkpt lat="44.81553" lon="5.04722">
        <ele>329.59</ele>
        <time>2020-12-23T12:31:06.000Z</time>
      </trkpt>
      <trkpt lat="44.81559" lon="5.04734">
        <ele>329.28</ele>
        <time>2020-12-23T12:31:15.179Z</time>
      </trkpt>
      <trkpt lat="44.81568" lon="5.04722">
        <ele>329</ele>
        <time>2020-12-23T12:31:24.542Z</time>
      </trkpt>
      <trkpt lat="44.81572" lon="5.04707">
        <ele>328.74</ele>
        <time>2020-12-23T12:31:33.760Z</time>
      </trkpt>
      <trkpt lat="44.81579" lon="5.04696">
        <ele>329.46</ele>
        <time>2020-12-23T12:31:42.960Z</time>
      </trkpt>
      <trkpt lat="44.81585" lon="5.0469">
        <ele>330.56</ele>
        <time>2020-12-23T12:31:52.000Z</time>
      </trkpt>
      <trkpt lat="44.81593" lon="5.04686">
        <ele>331.22</ele>
        <time>2020-12-23T12:32:02.000Z</time>
      </trkpt>
      <trkpt lat="44.81598" lon="5.04683">
        <ele>331.45</ele>
        <time>2020-12-23T12:32:12.000Z</time>
      </trkpt>
      <trkpt lat="44.81607" lon="5.04679">
        <ele>331.85</ele>
        <time>2020-12-23T12:32:21.058Z</time>
      </trkpt>
      <trkpt lat="44.81619" lon="5.04678">
        <ele>332.63</ele>
        <time>2020-12-23T12:32:31.000Z</time>
      </trkpt>
      <trkpt lat="44.81631" lon="5.04677">
        <ele>333.63</ele>
        <time>2020-12-23T12:32:40.074Z</time>
      </trkpt>
      <trkpt lat="44.81642" lon="5.04677">
        <ele>334.61</ele>
        <time>2020-12-23T12:32:49.944Z</time>
      </trkpt>
      <trkpt lat="44.81652" lon="5.04672">
        <ele>334.88</ele>
        <time>2020-12-23T12:32:59.444Z</time>
      </trkpt>
      <trkpt lat="44.81664" lon="5.0467">
        <ele>334.19</ele>
        <time>2020-12-23T12:33:08.984Z</time>
      </trkpt>
      <trkpt lat="44.81675" lon="5.04668">
        <ele>333.71</ele>
        <time>2020-12-23T12:33:18.403Z</time>
      </trkpt>
      <trkpt lat="44.81688" lon="5.04665">
        <ele>333.46</ele>
        <time>2020-12-23T12:33:27.884Z</time>
      </trkpt>
      <trkpt lat="44.81697" lon="5.04662">
        <ele>333.57</ele>
        <time>2020-12-23T12:33:37.000Z</time>
      </trkpt>
      <trkpt lat="44.81709" lon="5.04659">
        <ele>333.81</ele>
        <time>2020-12-23T12:33:47.000Z</time>
      </trkpt>
      <trkpt lat="44.81716" lon="5.04652">
        <ele>333.83</ele>
        <time>2020-12-23T12:33:57.000Z</time>
      </trkpt>
      <trkpt lat="44.81726" lon="5.04647">
        <ele>332.9</ele>
        <time>2020-12-23T12:34:06.116Z</time>
      </trkpt>
      <trkpt lat="44.81737" lon="5.04643">
        <ele>332.32</ele>
        <time>2020-12-23T12:34:15.557Z</time>
      </trkpt>
      <trkpt lat="44.81749" lon="5.04638">
        <ele>331.63</ele>
        <time>2020-12-23T12:34:25.000Z</time>
      </trkpt>
      <trkpt lat="44.81757" lon="5.04631">
        <ele>331.09</ele>
        <time>2020-12-23T12:34:34.999Z</time>
      </trkpt>
      <trkpt lat="44.81767" lon="5.04627">
        <ele>330.33</ele>
        <time>2020-12-23T12:34:44.658Z</time>
      </trkpt>
      <trkpt lat="44.81777" lon="5.04622">
        <ele>329.76</ele>
        <time>2020-12-23T12:34:53.862Z</time>
      </trkpt>
      <trkpt lat="44.81786" lon="5.04617">
        <ele>329.16</ele>
        <time>2020-12-23T12:35:03.277Z</time>
      </trkpt>
      <trkpt lat="44.81795" lon="5.04612">
        <ele>328.45</ele>
        <time>2020-12-23T12:35:12.737Z</time>
      </trkpt>
      <trkpt lat="44.81806" lon="5.0461">
        <ele>327.67</ele>
        <time>2020-12-23T12:35:22.255Z</time>
      </trkpt>
      <trkpt lat="44.81813" lon="5.04605">
        <ele>327</ele>
        <time>2020-12-23T12:35:31.338Z</time>
      </trkpt>
      <trkpt lat="44.81819" lon="5.04595">
        <ele>326.49</ele>
        <time>2020-12-23T12:35:40.999Z</time>
      </trkpt>
      <trkpt lat="44.81827" lon="5.04589">
        <ele>325.93</ele>
        <time>2020-12-23T12:35:50.999Z</time>
      </trkpt>
      <trkpt lat="44.81842" lon="5.04585">
        <ele>325.62</ele>
        <time>2020-12-23T12:36:00.378Z</time>
      </trkpt>
      <trkpt lat="44.81851" lon="5.04584">
        <ele>325.31</ele>
        <time>2020-12-23T12:36:09.657Z</time>
      </trkpt>
      <trkpt lat="44.81862" lon="5.04583">
        <ele>325.07</ele>
        <time>2020-12-23T12:36:19.058Z</time>
      </trkpt>
      <trkpt lat="44.81873" lon="5.04577">
        <ele>324.87</ele>
        <time>2020-12-23T12:36:28.457Z</time>
      </trkpt>
      <trkpt lat="44.81882" lon="5.04573">
        <ele>324.79</ele>
        <time>2020-12-23T12:36:37.977Z</time>
      </trkpt>
      <trkpt lat="44.81895" lon="5.04569">
        <ele>324.6</ele>
        <time>2020-12-23T12:36:47.498Z</time>
      </trkpt>
      <trkpt lat="44.81906" lon="5.04565">
        <ele>324.49</ele>
        <time>2020-12-23T12:36:56.936Z</time>
      </trkpt>
      <trkpt lat="44.81915" lon="5.04561">
        <ele>324.05</ele>
        <time>2020-12-23T12:37:06.375Z</time>
      </trkpt>
      <trkpt lat="44.81926" lon="5.04559">
        <ele>323.12</ele>
        <time>2020-12-23T12:37:15.720Z</time>
      </trkpt>
      <trkpt lat="44.81937" lon="5.04555">
        <ele>321.87</ele>
        <time>2020-12-23T12:37:24.995Z</time>
      </trkpt>
      <trkpt lat="44.81947" lon="5.04552">
        <ele>320.78</ele>
        <time>2020-12-23T12:37:34.373Z</time>
      </trkpt>
      <trkpt lat="44.81957" lon="5.0455">
        <ele>319.54</ele>
        <time>2020-12-23T12:37:44.999Z</time>
      </trkpt>
      <trkpt lat="44.8196" lon="5.04559">
        <ele>319.65</ele>
        <time>2020-12-23T12:37:54.999Z</time>
      </trkpt>
      <trkpt lat="44.81959" lon="5.04564">
        <ele>320.33</ele>
        <time>2020-12-23T12:38:04.999Z</time>
      </trkpt>
      <trkpt lat="44.81961" lon="5.04575">
        <ele>320.51</ele>
        <time>2020-12-23T12:38:14.634Z</time>
      </trkpt>
      <trkpt lat="44.81962" lon="5.04584">
        <ele>318.86</ele>
        <time>2020-12-23T12:38:24.017Z</time>
      </trkpt>
      <trkpt lat="44.81967" lon="5.04596">
        <ele>318.34</ele>
        <time>2020-12-23T12:38:33.279Z</time>
      </trkpt>
      <trkpt lat="44.81974" lon="5.04611">
        <ele>317.74</ele>
        <time>2020-12-23T12:38:42.635Z</time>
      </trkpt>
      <trkpt lat="44.81977" lon="5.04623">
        <ele>315.83</ele>
        <time>2020-12-23T12:38:51.999Z</time>
      </trkpt>
      <trkpt lat="44.81983" lon="5.04632">
        <ele>315.24</ele>
        <time>2020-12-23T12:39:01.097Z</time>
      </trkpt>
      <trkpt lat="44.81994" lon="5.04644">
        <ele>315.77</ele>
        <time>2020-12-23T12:39:10.375Z</time>
      </trkpt>
      <trkpt lat="44.82004" lon="5.04654">
        <ele>315.36</ele>
        <time>2020-12-23T12:39:19.795Z</time>
      </trkpt>
      <trkpt lat="44.8201" lon="5.04663">
        <ele>315.64</ele>
        <time>2020-12-23T12:39:28.999Z</time>
      </trkpt>
      <trkpt lat="44.82014" lon="5.0468">
        <ele>316.19</ele>
        <time>2020-12-23T12:39:38.515Z</time>
      </trkpt>
      <trkpt lat="44.8202" lon="5.04694">
        <ele>317</ele>
        <time>2020-12-23T12:39:48.135Z</time>
      </trkpt>
      <trkpt lat="44.82026" lon="5.04706">
        <ele>317.51</ele>
        <time>2020-12-23T12:39:57.999Z</time>
      </trkpt>
      <trkpt lat="44.82035" lon="5.04717">
        <ele>318.05</ele>
        <time>2020-12-23T12:40:07.999Z</time>
      </trkpt>
      <trkpt lat="44.8204" lon="5.0473">
        <ele>318.77</ele>
        <time>2020-12-23T12:40:17.139Z</time>
      </trkpt>
      <trkpt lat="44.82041" lon="5.04742">
        <ele>319.16</ele>
        <time>2020-12-23T12:40:26.315Z</time>
      </trkpt>
      <trkpt lat="44.82043" lon="5.04757">
        <ele>319.79</ele>
        <time>2020-12-23T12:40:35.617Z</time>
      </trkpt>
      <trkpt lat="44.82047" lon="5.04771">
        <ele>321.17</ele>
        <time>2020-12-23T12:40:45.118Z</time>
      </trkpt>
      <trkpt lat="44.82051" lon="5.04789">
        <ele>321.38</ele>
        <time>2020-12-23T12:40:54.999Z</time>
      </trkpt>
      <trkpt lat="44.82054" lon="5.04801">
        <ele>321.67</ele>
        <time>2020-12-23T12:41:04.456Z</time>
      </trkpt>
      <trkpt lat="44.82056" lon="5.04811">
        <ele>321.91</ele>
        <time>2020-12-23T12:41:13.999Z</time>
      </trkpt>
      <trkpt lat="44.82052" lon="5.04822">
        <ele>322.52</ele>
        <time>2020-12-23T12:41:23.078Z</time>
      </trkpt>
      <trkpt lat="44.82047" lon="5.04833">
        <ele>323.09</ele>
        <time>2020-12-23T12:41:32.560Z</time>
      </trkpt>
      <trkpt lat="44.82043" lon="5.04844">
        <ele>324.01</ele>
        <time>2020-12-23T12:41:41.916Z</time>
      </trkpt>
      <trkpt lat="44.82042" lon="5.04852">
        <ele>324.55</ele>
        <time>2020-12-23T12:41:50.999Z</time>
      </trkpt>
      <trkpt lat="44.82038" lon="5.04865">
        <ele>324.69</ele>
        <time>2020-12-23T12:42:00.999Z</time>
      </trkpt>
      <trkpt lat="44.82038" lon="5.04882">
        <ele>325.14</ele>
        <time>2020-12-23T12:42:10.519Z</time>
      </trkpt>
      <trkpt lat="44.82039" lon="5.04889">
        <ele>326.49</ele>
        <time>2020-12-23T12:42:19.999Z</time>
      </trkpt>
      <trkpt lat="44.82037" lon="5.0489">
        <ele>327.34</ele>
        <time>2020-12-23T12:42:30.537Z</time>
      </trkpt>
      <trkpt lat="44.82033" lon="5.04897">
        <ele>328.42</ele>
        <time>2020-12-23T12:42:39.798Z</time>
      </trkpt>
      <trkpt lat="44.8203" lon="5.04903">
        <ele>329.18</ele>
        <time>2020-12-23T12:42:48.999Z</time>
      </trkpt>
      <trkpt lat="44.8203" lon="5.04906">
        <ele>329.88</ele>
        <time>2020-12-23T12:43:00.999Z</time>
      </trkpt>
      <trkpt lat="44.82029" lon="5.04909">
        <ele>330.25</ele>
        <time>2020-12-23T12:43:10.999Z</time>
      </trkpt>
      <trkpt lat="44.82029" lon="5.04912">
        <ele>330.22</ele>
        <time>2020-12-23T12:43:20.999Z</time>
      </trkpt>
      <trkpt lat="44.82031" lon="5.04912">
        <ele>330.17</ele>
        <time>2020-12-23T12:43:34.999Z</time>
      </trkpt>
      <trkpt lat="44.82032" lon="5.04911">
        <ele>329.66</ele>
        <time>2020-12-23T12:43:47.999Z</time>
      </trkpt>
      <trkpt lat="44.82032" lon="5.04908">
        <ele>329.88</ele>
        <time>2020-12-23T12:44:17.999Z</time>
      </trkpt>
      <trkpt lat="44.8203" lon="5.04908">
        <ele>330.53</ele>
        <time>2020-12-23T12:44:31.999Z</time>
      </trkpt>
      <trkpt lat="44.8202" lon="5.04907">
        <ele>332.59</ele>
        <time>2020-12-23T12:44:41.999Z</time>
      </trkpt>
      <trkpt lat="44.82014" lon="5.04907">
        <ele>334.31</ele>
        <time>2020-12-23T12:44:51.999Z</time>
      </trkpt>
      <trkpt lat="44.8201" lon="5.04912">
        <ele>336.38</ele>
        <time>2020-12-23T12:45:01.999Z</time>
      </trkpt>
      <trkpt lat="44.82004" lon="5.04916">
        <ele>338.74</ele>
        <time>2020-12-23T12:45:11.379Z</time>
      </trkpt>
      <trkpt lat="44.82" lon="5.04923">
        <ele>341.06</ele>
        <time>2020-12-23T12:45:20.814Z</time>
      </trkpt>
      <trkpt lat="44.81998" lon="5.04927">
        <ele>343.25</ele>
        <time>2020-12-23T12:45:30.476Z</time>
      </trkpt>
      <trkpt lat="44.81995" lon="5.04924">
        <ele>345.34</ele>
        <time>2020-12-23T12:45:41.000Z</time>
      </trkpt>
      <trkpt lat="44.81989" lon="5.04925">
        <ele>347.8</ele>
        <time>2020-12-23T12:45:51.000Z</time>
      </trkpt>
      <trkpt lat="44.81981" lon="5.04925">
        <ele>349.6</ele>
        <time>2020-12-23T12:46:01.000Z</time>
      </trkpt>
      <trkpt lat="44.81975" lon="5.04926">
        <ele>351.45</ele>
        <time>2020-12-23T12:46:11.000Z</time>
      </trkpt>
      <trkpt lat="44.8197" lon="5.04926">
        <ele>352.64</ele>
        <time>2020-12-23T12:46:20.415Z</time>
      </trkpt>
      <trkpt lat="44.81964" lon="5.04925">
        <ele>353.84</ele>
        <time>2020-12-23T12:46:30.000Z</time>
      </trkpt>
      <trkpt lat="44.81954" lon="5.04929">
        <ele>355.97</ele>
        <time>2020-12-23T12:46:40.160Z</time>
      </trkpt>
      <trkpt lat="44.81954" lon="5.04935">
        <ele>357.07</ele>
        <time>2020-12-23T12:46:50.000Z</time>
      </trkpt>
      <trkpt lat="44.81958" lon="5.04936">
        <ele>358.32</ele>
        <time>2020-12-23T12:46:59.715Z</time>
      </trkpt>
      <trkpt lat="44.81957" lon="5.04933">
        <ele>360.44</ele>
        <time>2020-12-23T12:47:16.817Z</time>
      </trkpt>
      <trkpt lat="44.81956" lon="5.04926">
        <ele>361.95</ele>
        <time>2020-12-23T12:47:26.000Z</time>
      </trkpt>
      <trkpt lat="44.81956" lon="5.04921">
        <ele>363.92</ele>
        <time>2020-12-23T12:47:37.000Z</time>
      </trkpt>
      <trkpt lat="44.81959" lon="5.04922">
        <ele>364.5</ele>
        <time>2020-12-23T12:47:47.000Z</time>
      </trkpt>
      <trkpt lat="44.81961" lon="5.04922">
        <ele>364.51</ele>
        <time>2020-12-23T12:47:57.000Z</time>
      </trkpt>
      <trkpt lat="44.81963" lon="5.0492">
        <ele>364.64</ele>
        <time>2020-12-23T12:48:06.597Z</time>
      </trkpt>
      <trkpt lat="44.81965" lon="5.04922">
        <ele>366.16</ele>
        <time>2020-12-23T12:48:16.039Z</time>
      </trkpt>
      <trkpt lat="44.81964" lon="5.04925">
        <ele>366.14</ele>
        <time>2020-12-23T12:48:29.107Z</time>
      </trkpt>
      <trkpt lat="44.81966" lon="5.04923">
        <ele>366.44</ele>
        <time>2020-12-23T12:48:38.620Z</time>
      </trkpt>
      <trkpt lat="44.81965" lon="5.04921">
        <ele>366.01</ele>
        <time>2020-12-23T12:49:07.544Z</time>
      </trkpt>
      <trkpt lat="44.81942" lon="5.04851">
        <ele>364.68</ele>
        <time>2020-12-23T12:49:55.777Z</time>
      </trkpt>
      <trkpt lat="44.81939" lon="5.04867">
        <ele>364.28</ele>
        <time>2020-12-23T12:50:05.000Z</time>
      </trkpt>
      <trkpt lat="44.81942" lon="5.04882">
        <ele>363.47</ele>
        <time>2020-12-23T12:50:15.000Z</time>
      </trkpt>
      <trkpt lat="44.81945" lon="5.04904">
        <ele>362.62</ele>
        <time>2020-12-23T12:50:25.000Z</time>
      </trkpt>
      <trkpt lat="44.81946" lon="5.04912">
        <ele>362.08</ele>
        <time>2020-12-23T12:50:35.000Z</time>
      </trkpt>
      <trkpt lat="44.81946" lon="5.04915">
        <ele>361.48</ele>
        <time>2020-12-23T12:50:45.000Z</time>
      </trkpt>
      <trkpt lat="44.81948" lon="5.04915">
        <ele>359.91</ele>
        <time>2020-12-23T12:51:02.000Z</time>
      </trkpt>
      <trkpt lat="44.8195" lon="5.04917">
        <ele>358.86</ele>
        <time>2020-12-23T12:51:12.000Z</time>
      </trkpt>
      <trkpt lat="44.81953" lon="5.04914">
        <ele>356.53</ele>
        <time>2020-12-23T12:51:22.000Z</time>
      </trkpt>
      <trkpt lat="44.8195" lon="5.04914">
        <ele>356.96</ele>
        <time>2020-12-23T12:51:32.000Z</time>
      </trkpt>
      <trkpt lat="44.81955" lon="5.04909">
        <ele>355.89</ele>
        <time>2020-12-23T12:51:42.000Z</time>
      </trkpt>
      <trkpt lat="44.8196" lon="5.04905">
        <ele>353.99</ele>
        <time>2020-12-23T12:51:52.000Z</time>
      </trkpt>
      <trkpt lat="44.81962" lon="5.04909">
        <ele>354.21</ele>
        <time>2020-12-23T12:52:01.755Z</time>
      </trkpt>
      <trkpt lat="44.81962" lon="5.04912">
        <ele>354.19</ele>
        <time>2020-12-23T12:52:16.000Z</time>
      </trkpt>
      <trkpt lat="44.81963" lon="5.04914">
        <ele>354.18</ele>
        <time>2020-12-23T12:52:26.000Z</time>
      </trkpt>
      <trkpt lat="44.81965" lon="5.04914">
        <ele>352.31</ele>
        <time>2020-12-23T12:52:37.000Z</time>
      </trkpt>
      <trkpt lat="44.81969" lon="5.04912">
        <ele>350.22</ele>
        <time>2020-12-23T12:52:47.000Z</time>
      </trkpt>
      <trkpt lat="44.81976" lon="5.0491">
        <ele>348.08</ele>
        <time>2020-12-23T12:52:57.000Z</time>
      </trkpt>
      <trkpt lat="44.81982" lon="5.04908">
        <ele>345.42</ele>
        <time>2020-12-23T12:53:07.000Z</time>
      </trkpt>
      <trkpt lat="44.81984" lon="5.04905">
        <ele>342.92</ele>
        <time>2020-12-23T12:53:17.000Z</time>
      </trkpt>
      <trkpt lat="44.81987" lon="5.04905">
        <ele>340.85</ele>
        <time>2020-12-23T12:53:26.277Z</time>
      </trkpt>
      <trkpt lat="44.81991" lon="5.04904">
        <ele>338.34</ele>
        <time>2020-12-23T12:53:35.659Z</time>
      </trkpt>
      <trkpt lat="44.81994" lon="5.04905">
        <ele>337.39</ele>
        <time>2020-12-23T12:53:46.000Z</time>
      </trkpt>
      <trkpt lat="44.81997" lon="5.04905">
        <ele>336.89</ele>
        <time>2020-12-23T12:53:55.419Z</time>
      </trkpt>
      <trkpt lat="44.82002" lon="5.04904">
        <ele>335.58</ele>
        <time>2020-12-23T12:54:04.543Z</time>
      </trkpt>
      <trkpt lat="44.82009" lon="5.04902">
        <ele>334.03</ele>
        <time>2020-12-23T12:54:13.819Z</time>
      </trkpt>
      <trkpt lat="44.82012" lon="5.04899">
        <ele>332.32</ele>
        <time>2020-12-23T12:54:23.040Z</time>
      </trkpt>
      <trkpt lat="44.82018" lon="5.04896">
        <ele>330.75</ele>
        <time>2020-12-23T12:54:32.058Z</time>
      </trkpt>
      <trkpt lat="44.82021" lon="5.04891">
        <ele>328.7</ele>
        <time>2020-12-23T12:54:42.078Z</time>
      </trkpt>
      <trkpt lat="44.82024" lon="5.04882">
        <ele>326.43</ele>
        <time>2020-12-23T12:54:51.557Z</time>
      </trkpt>
      <trkpt lat="44.82032" lon="5.04866">
        <ele>325.88</ele>
        <time>2020-12-23T12:55:01.000Z</time>
      </trkpt>
      <trkpt lat="44.82037" lon="5.04864">
        <ele>325.75</ele>
        <time>2020-12-23T12:55:10.078Z</time>
      </trkpt>
      <trkpt lat="44.82041" lon="5.0485">
        <ele>325.6</ele>
        <time>2020-12-23T12:55:19.157Z</time>
      </trkpt>
      <trkpt lat="44.82045" lon="5.04832">
        <ele>324.66</ele>
        <time>2020-12-23T12:55:28.619Z</time>
      </trkpt>
      <trkpt lat="44.82051" lon="5.04817">
        <ele>323.87</ele>
        <time>2020-12-23T12:55:38.116Z</time>
      </trkpt>
      <trkpt lat="44.82056" lon="5.04807">
        <ele>323.59</ele>
        <time>2020-12-23T12:55:47.757Z</time>
      </trkpt>
      <trkpt lat="44.82056" lon="5.04798">
        <ele>323.14</ele>
        <time>2020-12-23T12:55:57.000Z</time>
      </trkpt>
      <trkpt lat="44.82054" lon="5.04793">
        <ele>322.72</ele>
        <time>2020-12-23T12:56:06.999Z</time>
      </trkpt>
      <trkpt lat="44.82049" lon="5.04778">
        <ele>322.59</ele>
        <time>2020-12-23T12:56:16.879Z</time>
      </trkpt>
      <trkpt lat="44.82046" lon="5.04764">
        <ele>322.15</ele>
        <time>2020-12-23T12:56:25.999Z</time>
      </trkpt>
      <trkpt lat="44.82042" lon="5.04757">
        <ele>321.22</ele>
        <time>2020-12-23T12:56:35.999Z</time>
      </trkpt>
      <trkpt lat="44.8204" lon="5.04738">
        <ele>320.67</ele>
        <time>2020-12-23T12:56:45.999Z</time>
      </trkpt>
      <trkpt lat="44.82037" lon="5.04729">
        <ele>320.18</ele>
        <time>2020-12-23T12:56:55.097Z</time>
      </trkpt>
      <trkpt lat="44.8203" lon="5.04717">
        <ele>319.38</ele>
        <time>2020-12-23T12:57:04.518Z</time>
      </trkpt>
      <trkpt lat="44.82022" lon="5.04704">
        <ele>319.01</ele>
        <time>2020-12-23T12:57:13.999Z</time>
      </trkpt>
      <trkpt lat="44.82019" lon="5.04699">
        <ele>319.02</ele>
        <time>2020-12-23T12:57:23.078Z</time>
      </trkpt>
      <trkpt lat="44.82016" lon="5.04688">
        <ele>318.4</ele>
        <time>2020-12-23T12:57:32.999Z</time>
      </trkpt>
      <trkpt lat="44.82012" lon="5.0467">
        <ele>317.65</ele>
        <time>2020-12-23T12:57:42.519Z</time>
      </trkpt>
      <trkpt lat="44.82005" lon="5.04657">
        <ele>317.16</ele>
        <time>2020-12-23T12:57:52.017Z</time>
      </trkpt>
      <trkpt lat="44.81998" lon="5.04645">
        <ele>317.66</ele>
        <time>2020-12-23T12:58:01.999Z</time>
      </trkpt>
      <trkpt lat="44.81992" lon="5.04635">
        <ele>317.94</ele>
        <time>2020-12-23T12:58:11.238Z</time>
      </trkpt>
      <trkpt lat="44.81986" lon="5.04631">
        <ele>318.33</ele>
        <time>2020-12-23T12:58:20.999Z</time>
      </trkpt>
      <trkpt lat="44.81979" lon="5.04622">
        <ele>318.93</ele>
        <time>2020-12-23T12:58:30.613Z</time>
      </trkpt>
      <trkpt lat="44.81974" lon="5.04609">
        <ele>319.87</ele>
        <time>2020-12-23T12:58:40.599Z</time>
      </trkpt>
      <trkpt lat="44.8197" lon="5.04606">
        <ele>320.33</ele>
        <time>2020-12-23T12:58:50.076Z</time>
      </trkpt>
      <trkpt lat="44.81966" lon="5.04594">
        <ele>320.87</ele>
        <time>2020-12-23T12:58:59.999Z</time>
      </trkpt>
      <trkpt lat="44.8196" lon="5.04569">
        <ele>322.41</ele>
        <time>2020-12-23T12:59:09.138Z</time>
      </trkpt>
      <trkpt lat="44.81959" lon="5.04556">
        <ele>321.81</ele>
        <time>2020-12-23T12:59:19.028Z</time>
      </trkpt>
      <trkpt lat="44.81962" lon="5.0454">
        <ele>320.59</ele>
        <time>2020-12-23T12:59:28.436Z</time>
      </trkpt>
      <trkpt lat="44.81973" lon="5.04529">
        <ele>318.98</ele>
        <time>2020-12-23T12:59:37.737Z</time>
      </trkpt>
      <trkpt lat="44.8198" lon="5.04525">
        <ele>317.89</ele>
        <time>2020-12-23T12:59:46.999Z</time>
      </trkpt>
      <trkpt lat="44.81992" lon="5.04519">
        <ele>316.75</ele>
        <time>2020-12-23T12:59:56.479Z</time>
      </trkpt>
      <trkpt lat="44.82004" lon="5.04513">
        <ele>316.14</ele>
        <time>2020-12-23T13:00:05.818Z</time>
      </trkpt>
      <trkpt lat="44.82013" lon="5.04506">
        <ele>315.89</ele>
        <time>2020-12-23T13:00:15.039Z</time>
      </trkpt>
      <trkpt lat="44.82022" lon="5.04499">
        <ele>315.87</ele>
        <time>2020-12-23T13:00:24.318Z</time>
      </trkpt>
      <trkpt lat="44.82031" lon="5.04487">
        <ele>316.25</ele>
        <time>2020-12-23T13:00:33.519Z</time>
      </trkpt>
      <trkpt lat="44.82034" lon="5.04468">
        <ele>316.62</ele>
        <time>2020-12-23T13:00:43.359Z</time>
      </trkpt>
      <trkpt lat="44.82032" lon="5.04454">
        <ele>316.93</ele>
        <time>2020-12-23T13:00:52.379Z</time>
      </trkpt>
      <trkpt lat="44.82034" lon="5.04441">
        <ele>317.6</ele>
        <time>2020-12-23T13:01:01.999Z</time>
      </trkpt>
      <trkpt lat="44.82035" lon="5.04422">
        <ele>318.38</ele>
        <time>2020-12-23T13:01:11.660Z</time>
      </trkpt>
      <trkpt lat="44.82038" lon="5.04409">
        <ele>318.91</ele>
        <time>2020-12-23T13:01:20.999Z</time>
      </trkpt>
      <trkpt lat="44.82037" lon="5.04399">
        <ele>319.32</ele>
        <time>2020-12-23T13:01:30.999Z</time>
      </trkpt>
      <trkpt lat="44.82034" lon="5.04385">
        <ele>319.23</ele>
        <time>2020-12-23T13:01:40.383Z</time>
      </trkpt>
      <trkpt lat="44.82031" lon="5.04373">
        <ele>318.72</ele>
        <time>2020-12-23T13:01:49.704Z</time>
      </trkpt>
      <trkpt lat="44.82026" lon="5.04367">
        <ele>318.06</ele>
        <time>2020-12-23T13:01:58.999Z</time>
      </trkpt>
      <trkpt lat="44.82019" lon="5.04358">
        <ele>317.29</ele>
        <time>2020-12-23T13:02:08.999Z</time>
      </trkpt>
      <trkpt lat="44.82014" lon="5.0434">
        <ele>316.3</ele>
        <time>2020-12-23T13:02:18.999Z</time>
      </trkpt>
      <trkpt lat="44.82009" lon="5.04321">
        <ele>315.23</ele>
        <time>2020-12-23T13:02:28.102Z</time>
      </trkpt>
      <trkpt lat="44.82007" lon="5.04306">
        <ele>313.97</ele>
        <time>2020-12-23T13:02:37.184Z</time>
      </trkpt>
      <trkpt lat="44.82007" lon="5.04291">
        <ele>312.94</ele>
        <time>2020-12-23T13:02:46.302Z</time>
      </trkpt>
      <trkpt lat="44.82005" lon="5.04275">
        <ele>312.13</ele>
        <time>2020-12-23T13:02:55.999Z</time>
      </trkpt>
      <trkpt lat="44.82009" lon="5.04256">
        <ele>312.01</ele>
        <time>2020-12-23T13:03:05.999Z</time>
      </trkpt>
      <trkpt lat="44.82018" lon="5.0424">
        <ele>312.68</ele>
        <time>2020-12-23T13:03:15.622Z</time>
      </trkpt>
      <trkpt lat="44.82027" lon="5.04228">
        <ele>313.16</ele>
        <time>2020-12-23T13:03:25.123Z</time>
      </trkpt>
      <trkpt lat="44.82029" lon="5.04213">
        <ele>313.53</ele>
        <time>2020-12-23T13:03:34.568Z</time>
      </trkpt>
      <trkpt lat="44.82041" lon="5.04212">
        <ele>314.16</ele>
        <time>2020-12-23T13:03:44.144Z</time>
      </trkpt>
      <trkpt lat="44.82055" lon="5.04202">
        <ele>314.97</ele>
        <time>2020-12-23T13:03:54.024Z</time>
      </trkpt>
      <trkpt lat="44.82066" lon="5.04189">
        <ele>315.82</ele>
        <time>2020-12-23T13:04:03.464Z</time>
      </trkpt>
      <trkpt lat="44.82079" lon="5.04185">
        <ele>316.5</ele>
        <time>2020-12-23T13:04:12.905Z</time>
      </trkpt>
      <trkpt lat="44.82089" lon="5.04178">
        <ele>317.29</ele>
        <time>2020-12-23T13:04:21.933Z</time>
      </trkpt>
      <trkpt lat="44.82099" lon="5.04171">
        <ele>317.83</ele>
        <time>2020-12-23T13:04:31.155Z</time>
      </trkpt>
      <trkpt lat="44.82108" lon="5.04161">
        <ele>318.6</ele>
        <time>2020-12-23T13:04:40.999Z</time>
      </trkpt>
      <trkpt lat="44.82117" lon="5.04156">
        <ele>319.48</ele>
        <time>2020-12-23T13:04:50.155Z</time>
      </trkpt>
      <trkpt lat="44.82125" lon="5.04145">
        <ele>320.34</ele>
        <time>2020-12-23T13:04:59.656Z</time>
      </trkpt>
      <trkpt lat="44.82131" lon="5.04134">
        <ele>321.16</ele>
        <time>2020-12-23T13:05:09.999Z</time>
      </trkpt>
      <trkpt lat="44.82139" lon="5.04123">
        <ele>322.06</ele>
        <time>2020-12-23T13:05:19.836Z</time>
      </trkpt>
      <trkpt lat="44.82145" lon="5.04109">
        <ele>322.71</ele>
        <time>2020-12-23T13:05:29.999Z</time>
      </trkpt>
      <trkpt lat="44.82153" lon="5.04094">
        <ele>323.58</ele>
        <time>2020-12-23T13:05:39.136Z</time>
      </trkpt>
      <trkpt lat="44.82159" lon="5.04082">
        <ele>324.58</ele>
        <time>2020-12-23T13:05:48.999Z</time>
      </trkpt>
      <trkpt lat="44.82165" lon="5.04075">
        <ele>325.26</ele>
        <time>2020-12-23T13:05:58.999Z</time>
      </trkpt>
      <trkpt lat="44.8217" lon="5.04061">
        <ele>325.99</ele>
        <time>2020-12-23T13:06:08.999Z</time>
      </trkpt>
      <trkpt lat="44.82174" lon="5.04043">
        <ele>326.59</ele>
        <time>2020-12-23T13:06:18.114Z</time>
      </trkpt>
      <trkpt lat="44.8218" lon="5.04032">
        <ele>327.07</ele>
        <time>2020-12-23T13:06:27.657Z</time>
      </trkpt>
      <trkpt lat="44.82187" lon="5.04023">
        <ele>327.6</ele>
        <time>2020-12-23T13:06:36.999Z</time>
      </trkpt>
      <trkpt lat="44.82197" lon="5.04011">
        <ele>327.74</ele>
        <time>2020-12-23T13:06:47.000Z</time>
      </trkpt>
      <trkpt lat="44.82206" lon="5.04002">
        <ele>327.61</ele>
        <time>2020-12-23T13:06:56.697Z</time>
      </trkpt>
      <trkpt lat="44.82214" lon="5.03996">
        <ele>327.46</ele>
        <time>2020-12-23T13:07:06.000Z</time>
      </trkpt>
      <trkpt lat="44.82224" lon="5.03992">
        <ele>327.2</ele>
        <time>2020-12-23T13:07:15.096Z</time>
      </trkpt>
      <trkpt lat="44.82232" lon="5.03981">
        <ele>327.01</ele>
        <time>2020-12-23T13:07:24.613Z</time>
      </trkpt>
      <trkpt lat="44.82242" lon="5.03975">
        <ele>326.55</ele>
        <time>2020-12-23T13:07:34.000Z</time>
      </trkpt>
      <trkpt lat="44.82252" lon="5.03963">
        <ele>325.89</ele>
        <time>2020-12-23T13:07:44.000Z</time>
      </trkpt>
      <trkpt lat="44.82257" lon="5.03957">
        <ele>326.07</ele>
        <time>2020-12-23T13:07:53.444Z</time>
      </trkpt>
      <trkpt lat="44.82269" lon="5.03952">
        <ele>325.49</ele>
        <time>2020-12-23T13:08:02.594Z</time>
      </trkpt>
      <trkpt lat="44.82281" lon="5.0395">
        <ele>324.79</ele>
        <time>2020-12-23T13:08:11.814Z</time>
      </trkpt>
      <trkpt lat="44.8229" lon="5.03943">
        <ele>324.31</ele>
        <time>2020-12-23T13:08:22.000Z</time>
      </trkpt>
      <trkpt lat="44.82299" lon="5.03942">
        <ele>323.76</ele>
        <time>2020-12-23T13:08:31.574Z</time>
      </trkpt>
      <trkpt lat="44.82308" lon="5.03949">
        <ele>324.37</ele>
        <time>2020-12-23T13:08:41.000Z</time>
      </trkpt>
      <trkpt lat="44.82317" lon="5.03954">
        <ele>324.73</ele>
        <time>2020-12-23T13:08:51.000Z</time>
      </trkpt>
    </trkseg>
  </trk>
</gpx>